     2.11           OBSERVATION DATA    G (GPS)             RINEX VERSION / TYPE
teqc 2010Oct21 OPUS Account 20111026 21:11:32UTC            PGM / RUN BY / DATE
W 1523                                                      MARKER NAME
1201                                                        MARKER NUMBER
CSMIDDLETON NGS                                             OBSERVER / AGENCY
4624K01631 TRIMBLE NETR5 4.41                               REC # / TYPE / VERS
12481390 TRM41249.00 NONE                                   ANT # / TYPE
  -750848.9751 -5520867.1751  3094063.2049                  APPROX POSITION XYZ
        2.0000        0.0000        0.0000                  ANTENNA: DELTA H/E/N
     1     1                                                WAVELENGTH FACT L1/2
     5    L1    L2    C1    P1    P2                        # / TYPES OF OBSERV
    15                                                      LEAP SECONDS
  2011     8    11    16    34    0.0000000     GPS         TIME OF FIRST OBS
                                                            END OF HEADER
 11  8 11 16 34  0.0000000  0 10G06G10G20G16G19G03G07G08G13G23
 118237846.18617  92133425.08255  22499914.695                    22499924.234
 125246952.71017  97595127.20454  23833718.547                    23833729.992
 129553038.04716 100950491.70153  24653131.195                    24653143.465
 120067691.59717  93559271.81054  22848122.109                    22848130.895
 111958624.40518  87240513.01356  21305017.758                    21305024.438
 109866969.83118  85610662.91955  20906989.719                    20906998.691
 117619420.20417  91651532.63617  22382230.805                    22382240.387
 128206210.96616  99900987.91453  24396831.820                    24396842.621
 105537660.08318  82237168.50056  20083149.242                    20083157.086
 106357092.25218  82875681.49956  20239081.875                    20239088.273
 11  8 11 16 34 30.0000000  0 10G06G10G20G16G19G03G07G08G13G23
 118290440.674 7  92174407.78245  22509923.148                    22509932.910
 125252371.803 7  97599349.88244  23834750.781                    23834760.988
 129637814.321 6 101016550.92343  24669264.289                    24669276.273
 120157112.908 7  93628950.74144  22865138.289                    22865146.859
 111912050.266 7  87204221.48846  21296154.977                    21296161.957
 109893435.963 8  85631285.87345  20912026.156                    20912035.020
 117562675.393 7  91607315.946 7  22371432.547                    22371442.086
 128139801.368 6  99849240.26343  24384193.711                    24384205.418
 105519815.960 8  82223263.98946  20079753.594                    20079761.293
 106398127.634 8  82907657.09246  20246890.648                    20246897.285
 11  8 11 16 35  0.0000000  0 10G06G10G20G16G19G03G07G08G13G23
 118343522.186 7  92215769.98245  22520024.211                    22520034.137
 125258271.900 7  97603947.33944  23835873.031                    23835883.891
 129722448.745 6 101082499.65443  24685368.531                    24685381.148
 120246600.485 7  93698681.28344  22882167.555                    22882176.383
 111865998.304 8  87168336.85746  21287391.461                    21287399.039
 109920520.896 8  85652391.00145  20917180.383                    20917189.480
 117505957.306 7  91563120.067 7  22360639.883                    22360649.180
 128073333.858 6  99797447.48543  24371545.461                    24371556.465
 105502521.974 8  82209788.16046  20076462.406                    20076470.438
 106439716.845 8  82940064.24146  20254805.008                    20254811.313
 11  8 11 16 35 30.0000000  0 10G06G10G20G16G19G03G07G08G13G23
 118397089.395 7  92257510.63144  22530217.609                    22530226.984
 125264652.170 7  97608918.95544  23837087.266                    23837098.305
 129806939.516 6 101148336.40643  24701447.594                    24701459.836
 120336152.652 7  93768462.17144  22899208.367                    22899216.988
 111820471.016 8  87132861.05246  21278728.320                    21278735.891
 109948224.191 7  85673977.97445  20922451.695                    20922460.844
 117449266.555 7  91518945.469 7  22349852.023                    22349860.980
 128006808.206 6  99745609.37443  24358886.609                    24358897.695
 105485779.752 8  82196742.26146  20073276.609                    20073284.063
 106481859.180 8  82972902.38946  20262824.258                    20262830.711
 11  8 11 16 36  0.0000000  0 10G06G10G20G16G19G03G07G08G13G23
 118451139.570 7  92299627.64045  22540503.031                    22540512.766
 125271510.683 6  97614263.20344  23838392.461                    23838403.152
 129891283.219 6 101214058.59443  24717497.680                    24717509.906
 120425766.335 7  93838290.97944  22916261.914                    22916270.328
 111775469.635 7  87097795.04646  21270164.578                    21270171.402
 109976543.981 8  85696045.33045  20927841.297                    20927850.441
 117392602.857 7  91474791.964 7  22339069.766                    22339077.922
 127940223.420 6  99693725.22643  24346215.102                    24346226.520
 105469589.879 8  82184126.76346  20070195.875                    20070203.844
 106524552.725 8  83006170.06246  20270948.602                    20270955.188
 11  8 11 16 36 30.0000000  0 10G06G10G20G16G19G03G07G08G13G23
 118505670.889 7  92342119.55144  22550880.477                    22550889.344
 125278845.662 7  97619978.76044  23839788.469                    23839799.113
 129975477.355 6 101279664.21542  24733519.242                    24733531.426
 120515439.557 7  93908166.19144  22933325.484                    22933334.285
 111730996.181 8  87063140.42346  21261701.313                    21261708.629
 110005479.025 8  85718592.10645  20933347.328                    20933356.191
 117335966.393 7  91430659.666 7  22328291.664                    22328300.309
 127873579.246 6  99641794.81043  24333533.102                    24333544.805
 105453953.427 8  82171942.51246  20067220.102                    20067228.117
 106567796.540 8  83039866.50746  20279177.680                    20279184.645
 11  8 11 16 37  0.0000000  0 10G06G10G20G16G19G03G07G08G13G23
 118560681.965 7  92384985.30245  22561348.305                    22561357.875
 125286656.557 7  97626065.11943  23841274.758                    23841285.574
 130059520.014 5 101345151.82442  24749511.828                    24749524.520
 120605170.554 7  93978086.40744  22950401.141                    22950409.969
 111687052.994 8  87028898.99046  21253339.469                    21253346.625
 110035028.628 8  85741617.76745  20938970.180                    20938979.754
 117279358.056 7  91386549.290 7  22317519.250                    22317528.234
 127806875.646 6  99589818.08743  24320839.328                    24320851.117
 105438872.187 8  82160190.88246  20064350.305                    20064358.527
 106611590.500 8  83073991.63346  20287511.594                    20287518.309
 11  8 11 16 37 30.0000000  0 10G06G10G20G16G19G03G07G08G13G23
 118616171.247 7  92428223.67544  22571907.719                    22571917.699
 125294942.289 6  97632521.52443  23842851.211                    23842862.168
 130143409.039 5 101410519.60742  24765475.281                    24765488.781
 120694957.477 7  94048050.20844  22967487.078                    22967495.461
 111643642.459 7  86995072.62246  21245078.719                    21245085.398
 110065192.270 8  85765121.89945  20944710.484                    20944719.195
 117222778.614 7  91342461.422 7  22306752.852                    22306761.375
 127740112.902 6  99537795.26243  24308135.023                    24308146.438
 105424347.539 8  82148872.96546  20061586.586                    20061594.461
 106655933.694 8  83108544.75046  20295949.703                    20295956.383
 11  8 11 16 38  0.0000000  0 10G06G10G20G16G19G03G07G08G13G23
 118672137.541 7  92471833.73145  22582558.031                    22582566.852
 125303702.285 6  97639347.47644  23844518.172                    23844529.082
 130227142.828 5 101475766.51342  24781410.320                    24781422.715
 120784799.003 7  94118056.55944  22984583.531                    22984591.902
 111600767.601 7  86961663.66246  21236920.016                    21236927.242
 110095969.314 8  85789104.00845  20950566.836                    20950575.859
 117166229.243 7  91298396.994 7  22295991.359                    22296000.512
 127673291.466 6  99485726.71143  24295419.883                    24295430.688
 105410382.066 8  82137990.77446  20058928.898                    20058937.137
 106700826.077 8  83143525.79046  20304492.758                    20304499.430
 11  8 11 16 38 30.0000000  0  9G06G10G16G19G03G07G08G13G23
 118728579.422 7  92515814.39045  22593297.906                    22593307.605
 125312935.719 7  97646542.33944  23846275.516                    23846286.574
 120874693.640 7  94188104.27344  23001689.820                    23001698.770
 111558430.487 8  86928673.71746  21228863.453                    21228870.879
 110127359.061 7  85813563.55445  20956540.414                    20956548.922
 117109710.505 7  91254356.429 7  22285236.609                    22285245.617
 127606411.241 6  99433612.32843  24282692.516                    24282703.477
 105396976.890 8  82127545.17446  20056377.969                    20056386.121
 106746266.857 8  83178934.16246  20313139.773                    20313146.418
 11  8 11 16 39  0.0000000  0  9G06G10G16G19G03G07G08G13G23
 118785494.041 7  92560163.41345  22604128.344                    22604138.270
 125322639.965 6  97654104.06044  23848122.109                    23848132.730
 120964638.106 7  94258190.83644  23018805.359                    23018814.457
 111516632.388 7  86896103.79246  21220909.453                    21220916.738
 110159359.176 7  85838498.70745  20962629.547                    20962638.969
 117053221.911 7  91210339.383 7  22274487.266                    22274496.078
 127539471.321 7  99381451.43343  24269954.305                    24269965.012
 105384132.022 8  82117536.17946  20053933.867                    20053941.895
 106792254.146 8  83214768.37146  20321890.828                    20321897.484
 11  8 11 16 39 30.0000000  0  9G06G10G16G19G03G07G08G13G23
 118842879.854 7  92604879.57945  22615048.586                    22615058.629
 125332814.059 7  97662031.91843  23850057.773                    23850069.199
 121054630.833 7  94328314.99144  23035930.586                    23035939.445
 111475375.599 7  86863955.65446  21213058.430                    21213065.938
 110191969.408 7  85863909.27845  20968835.109                    20968844.137
 116996764.290 7  91166346.433 7  22263743.414                    22263752.328
 127472471.690 6  99329243.97343  24257204.875                    24257215.402
 105371849.381 8  82107965.27546  20051596.531                    20051604.539
 106838787.342 8  83251027.97246  20330745.938                    20330752.566
 11  8 11 16 40  0.0000000  0  9G06G10G16G19G03G07G08G13G23
 118900735.192 7  92649961.62445  22626058.305                    22626067.879
 125343456.944 6  97670325.02343  23852083.813                    23852094.277
 121144669.828 7  94398475.19844  23053064.398                    23053073.527
 111434661.990 8  86832230.78446  21205310.898                    21205318.434
 110225188.292 8  85889794.12645  20975156.664                    20975165.359
 116940338.492 7  91122378.306 7  22253005.891                    22253014.672
 127405412.532 7  99276990.15643  24244443.945                    24244454.578
 105360130.254 8  82098833.47346  20049366.609                    20049374.453
 106885865.802 8  83287712.45546  20339704.641                    20339711.281
 11  8 11 16 40 30.0000000  0  9G06G10G16G19G03G07G08G13G23
 118959057.990 7  92695407.91645  22637157.570                    22637166.801
 125354566.833 6  97678982.04443  23854197.078                    23854208.254
 121234753.223 7  94468670.01544  23070206.656                    23070215.566
 111394493.552 7  86800930.72246  21197666.953                    21197674.391
 110259014.500 7  85916152.20645  20981593.336                    20981602.586
 116883944.625 7  91078435.052 7  22242274.750                    22242283.598
 127338293.303 6  99224689.52043  24231671.297                    24231682.324
 105348975.461 8  82090141.41146  20047243.625                    20047251.887
 106933487.883 8  83324820.54146  20348766.586                    20348773.137
 11  8 11 16 41  0.0000000  0  9G06G10G16G19G03G07G08G13G23
 119017846.380 7  92741217.03945  22648343.883                    22648353.676
 125366142.620 7  97688002.11443  23856400.539                    23856411.875
 121324879.018 7  94538897.85044  23087357.180                    23087366.113
 111354872.186 7  86770056.94746  21190127.023                    21190134.438
 110293446.699 8  85942982.48145  20988145.227                    20988155.203
 116827583.303 7  91034517.163 7  22231549.758                    22231558.391
 127271114.328 6  99172342.33843  24218887.922                    24218897.953
 105338386.399 8  82081890.18346  20045228.555                    20045236.836
 106981652.689 8  83362351.52246  20357932.219                    20357938.988
 11  8 11 16 41 30.0000000  0  9G06G10G16G19G03G07G08G13G23
 119077098.799 7  92787387.71445  22659619.484                    22659629.039
 125378183.057 6  97697384.24044  23858691.695                    23858703.031
 121415045.599 7  94609157.46444  23104515.891                    23104524.461
 111315800.158 7  86739611.23446  21182692.203                    21182699.801
 110328484.190 8  85970284.41845  20994813.172                    20994822.340
 116771255.414 7  90990625.331 7  22220830.750                    22220839.086
 127203875.220 6  99119948.29543  24206092.633                    24206102.695
 105328364.480 8  82074080.88646  20043321.781                    20043329.828
 107030359.393 8  83400304.77546  20367200.742                    20367207.516
 11  8 11 16 42  0.0000000  0  9G06G10G16G19G03G07G08G13G23
 119136813.575 7  92833918.67845  22670983.227                    22670992.824
 125390687.012 7  97707127.57944  23861071.063                    23861082.180
 121505251.215 7  94679447.51444  23121681.320                    23121690.531
 111277279.636 7  86709595.26046  21175362.211                    21175369.672
 110364126.053 8  85998057.28245  21001595.328                    21001604.320
 116714961.881 7  90946760.266 7  22210118.406                    22210126.832
 127136576.428 6  99067507.72143  24193286.438                    24193296.781
 105318911.382 8  82066714.82246  20041522.844                    20041530.742
 107079607.592 8  83438679.95746  20376572.031                    20376578.926
 11  8 11 16 42 30.0000000  0  9G06G10G16G19G03G07G08G13G23
 119196988.379 7  92880808.11745  22682433.875                    22682443.090
 125403652.450 7  97717230.50344  23863538.070                    23863548.961
 121595493.881 7  94749766.40544  23138853.742                    23138862.660
 111239311.946 7  86680010.05346  21168137.258                    21168144.125
 110400370.301 8  86026299.54345  21008492.633                    21008501.473
 116658702.630 7  90902921.919 7  22199412.578                    22199421.168
 127069217.672 6  99015020.40643  24180467.211                    24180478.121
 105310027.493 8  82059792.30546  20039832.383                    20039840.363
 107129395.473 8  83477475.67946  20386046.648                    20386053.609
 11  8 11 16 43  0.0000000  0  9G06G10G16G19G03G07G08G13G23
 119257620.914 7  92928054.22645  22693971.969                    22693981.277
 125417077.586 7  97727691.61843  23866092.758                    23866103.813
 121685771.174 7  94820112.30844  23156032.961                    23156041.758
 111201898.679 8  86650856.87646  21161017.414                    21161025.086
 110437215.346 8  86055009.94745  21015504.305                    21015513.027
 116602478.077 7  90859110.613 7  22188713.281                    22188722.234
 127001798.549 6  98962486.08243  24167638.586                    24167648.703
 105301713.183 8  82053313.61146  20038250.000                    20038258.125
 107179721.559 8  83516690.77146  20395623.836                    20395630.434
 11  8 11 16 43 30.0000000  0  9G06G10G16G19G03G07G08G13G23
 119318710.056 7  92975656.14745  22705597.344                    22705606.723
 125430961.851 7  97738510.47144  23868735.273                    23868746.277
 121776081.713 7  94890484.09744  23173219.008                    23173227.672
 111165042.662 7  86622137.91046  21154003.789                    21154011.059
 110474660.496 8  86084187.96145  21022629.383                    21022638.184
 116546289.416 7  90815327.271 7  22178021.219                    22178029.789
 126934319.590 6  98909905.13743  24154797.391                    24154807.602
 105293970.963 8  82047280.70546  20036776.672                    20036785.125
 107230585.811 8  83556325.21446  20405302.734                    20405309.504
 11  8 11 16 44  0.0000000  0  9G06G10G16G19G03G07G08G13G23
 119380253.869 7  93023612.35845  22717308.313                    22717317.945
 125445303.885 7  97749686.05443  23871464.633                    23871475.668
 121866423.881 7  94960880.51744  23190410.289                    23190419.133
 111128745.537 8  86593854.44646  21147097.008                    21147103.813
 110512704.710 8  86113832.78545  21029869.391                    21029878.484
 116490137.555 7  90771572.608 7  22167335.898                    22167344.527
 126866780.427 6  98857277.28743  24141944.750                    24141955.078
 105286801.760 8  82041694.30646  20035412.414                    20035420.793
 107281986.706 8  83596377.83146  20415083.672                    20415090.590
 11  8 11 16 44 30.0000000  0  9G06G10G16G19G03G07G08G13G23
 119442249.698 7  93071920.78345  22729105.688                    22729114.988
 125460101.624 6  97761216.71843  23874280.281                    23874291.531
 121956795.308 7  95031299.75944  23207607.492                    23207616.113
 111093008.587 7  86566007.48146  21140296.172                    21140303.281
 110551345.859 8  86143942.74645  21037222.273                    21037231.340
 116434022.223 7  90727846.395 7  22156656.742                    22156666.203
 126799180.923 6  98804602.40543  24129081.203                    24129092.316
 105280205.637 8  82036554.45646  20034157.789                    20034165.637
 107333922.629 8  83636847.34146  20424967.281                    20424973.961
 11  8 11 16 45  0.0000000  0  9G06G10G16G19G03G07G08G13G23
 119504695.980 7  93120580.21445  22740988.664                    22740998.512
 125475353.862 6  97773101.54143  23877182.281                    23877193.863
 122047194.427 7  95101740.55844  23224809.938                    23224818.703
 111057833.888 7  86538598.63846  21133603.016                    21133609.934
 110590582.898 8  86174517.03445  21044689.063                    21044697.715
 116377944.484 7  90684149.479 7  22145986.234                    22145994.945
 126731521.291 6  98751880.69543  24116205.328                    24116216.859
 105274184.259 7  82031862.46046  20033011.477                    20033019.699
 107386392.773 8  83677733.13046  20434951.852                    20434958.785
 11  8 11 16 45 30.0000000  0  9G06G10G16G19G03G07G08G13G23
 119567590.935 7  93169589.25744  22752956.930                    22752967.223
 125491059.020 7  97785339.27644  23880171.563                    23880182.629
 122137619.600 7  95172201.66944  23242017.461                    23242026.301
 111023223.713 7  86511629.68046  21127016.828                    21127023.645
 110630414.627 8  86205554.72545  21052268.703                    21052277.867
 116321905.231 7  90640482.565 7  22135321.984                    22135330.844
 126663801.540 6  98699112.11643  24103319.039                    24103329.789
 105268738.975 8  82027619.36846  20031975.383                    20031983.414
 107439396.298 8  83719034.54946  20445038.234                    20445044.930
 11  8 11 16 46  0.0000000  0  9G06G10G16G19G03G07G08G13G23
 119630932.132 7  93218946.03345  22765010.867                    22765020.297
 125507215.381 7  97797928.62343  23883245.438                    23883257.480
 122228068.726 7  95242681.45244  23259229.023                    23259237.836
 110989179.318 7  86485101.59446  21120537.961                    21120545.203
 110670839.314 8  86237054.45045  21059960.820                    21059970.004
 116265904.639 7  90596845.769 7  22124665.523                    22124674.117
 126596021.408 6  98646296.52343  24090421.258                    24090431.633
 105263870.059 8  82023825.39246  20031048.797                    20031056.902
 107492931.268 8  83760750.07246  20455225.438                    20455232.410
 11  8 11 16 46 30.0000000  0  9G06G10G16G19G03G07G08G13G23
 119694717.990 7  93268649.30545  22777148.742                    22777159.020
 125523821.530 7  97810868.42644  23886405.570                    23886417.148
 122318540.323 7  95313178.74644  23276444.914                    23276454.125
 110955702.282 8  86459015.60846  21114167.922                    21114175.129
 110711855.719 8  86269015.25045  21067766.773                    21067775.457
 116209943.760 7  90553239.913 7  22114016.430                    22114024.891
 126528181.177 6  98593434.08743  24077511.109                    24077521.984
 105259578.836 8  82020481.56846  20030231.844                    20030240.273
 107546996.934 8  83802879.12746  20465514.211                    20465520.992
 11  8 11 16 47  0.0000000  0  9G06G10G16G19G03G07G08G13G23
 119758946.410 7  93318697.40244  22789370.922                    22789380.660
 125540876.092 7  97824157.65344  23889651.055                    23889662.625
 122409032.506 6  95383692.09144  23293665.406                    23293674.129
 110922794.786 7  86433373.41446  21107905.445                    21107913.008
 110753462.535 8  86301436.13645  21075683.563                    21075693.188
 116154023.369 7  90509665.609 7  22103375.039                    22103383.961
 126460280.659 6  98540524.68043  24064589.898                    24064601.219
 105255866.547 8  82017588.86046  20029525.758                    20029534.273
 107601591.955 8  83845420.65946  20475903.078                    20475909.785
 11  8 11 16 47 30.0000000  0 10G06G10G28G16G19G03G07G08G13G23
 119823615.327 7  93369088.75244  22801676.578                    22801686.348
 125558377.245 6  97837794.87844  23892981.953                    23892993.148
 129734523.33016 101091923.48753  24687670.672                    24687681.289
 122499543.592 6  95454220.14244  23310889.180                    23310897.645
 110890458.441 7  86408176.27246  21101752.492                    21101759.578
 110795658.149 8  86334315.81345  21083713.727                    21083722.625
 116098143.996 7  90466123.250 7  22092741.727                    22092750.535
 126392320.310 6  98487568.63643  24051658.023                    24051668.656
 105252733.785 8  82015147.73246  20028929.781                    20028937.895
 107656714.842 8  83888373.52146  20486392.570                    20486399.398
 11  8 11 16 48  0.0000000  0 10G06G10G28G16G19G03G07G08G13G23
 119888722.244 7  93419821.40744  22814066.523                    22814075.988
 125576322.966 6  97851778.50044  23896397.203                    23896407.898
 129659956.015 6 101033819.17343  24673481.219                    24673492.793
 122590071.496 6  95524761.33444  23328115.734                    23328124.289
 110858694.069 7  86383424.82346  21095707.641                    21095714.680
 110838440.343 8  86367652.57245  21091854.750                    21091863.551
 116042305.970 7  90422613.105 7  22082115.930                    22082124.410
 126324299.152 7  98434565.19043  24038713.336                    24038724.633
 105250180.911 8  82013158.46946  20028443.695                    20028452.051
 107712363.973 8  83931736.43846  20496982.367                    20496989.105
 11  8 11 16 48 30.0000000  0 10G06G10G28G16G19G03G07G08G13G23
 119954265.321 7  93470893.93244  22826538.789                    22826549.027
 125594711.940 7  97866107.55744  23899896.016                    23899907.238
 129585596.762 6 100975876.92643  24659331.164                    24659342.422
 122680614.206 6  95595314.04644  23345345.930                    23345354.207
 110827503.646 7  86359120.61146  21089772.547                    21089779.473
 110881807.622 8  86401445.24845  21100107.242                    21100116.219
 115986510.030 7  90379135.761 7  22071498.141                    22071507.094
 126256217.771 7  98381514.82243  24025758.281                    24025768.934
 105248209.015 7  82011621.90846  20028068.703                    20028076.777
 107768538.490 8  83975508.74246  20507672.055                    20507679.145
 11  8 11 16 49  0.0000000  0 10G06G10G28G16G19G03G07G08G13G23
 120020242.466 7  93522304.69244  22839093.820                    22839103.563
 125613542.691 7  97880780.82744  23903479.086                    23903490.887
 129511446.424 6 100918097.48943  24645220.289                    24645231.902
 122771170.568 6  95665877.42344  23362578.188                    23362586.832
 110796889.002 7  86335265.05546  21083946.617                    21083953.223
 110925758.981 8  86435693.06145  21108470.914                    21108479.680
 115930757.182 7  90335691.994 7  22060889.016                    22060897.574
 126188076.172 7  98328417.54544  24012791.453                    24012802.500
 105246819.175 8  82010538.90146  20027804.414                    20027811.949
 107825236.779 8  84019689.19346  20518461.172                    20518467.934
 11  8 11 16 49 30.0000000  0 10G06G10G28G16G19G03G07G08G13G23
 120086652.147 7  93574052.46944  22851731.000                    22851741.063
 125632813.878 7  97895797.28943  23907146.547                    23907157.906
 129437505.859 6 100860481.49843  24631149.867                    24631161.711
 122861738.982 6  95736450.16044  23379812.578                    23379821.398
 110766852.035 7  86311859.63646  21078230.883                    21078237.816
 110970293.076 8  86470394.94645  21116945.148                    21116954.527
 115875048.472 7  90292282.612 7  22050287.797                    22050296.523
 126119874.958 7  98275273.81444  23999812.680                    23999823.469
 105246012.878 7  82009910.60846  20027650.781                    20027658.949
 107882458.043 7  84064277.14746  20529350.414                    20529357.148
 11  8 11 16 50  0.0000000  0 10G06G10G28G16G19G03G07G08G13G23
 120153492.044 7  93626135.50044  22864450.406                    22864460.113
 125652523.377 7  97911155.32344  23910896.930                    23910908.020
 129363775.213 6 100803029.13042  24617118.461                    24617130.867
 122952317.463 6  95807030.75744  23397049.523                    23397057.980
 110737394.229 7  86288905.50746  21072625.234                    21072632.473
 111015408.059 8  86505549.48445  21125530.711                    21125539.652
 115819384.635 7  90248908.197 7  22039695.641                    22039704.070
 126051614.004 7  98222083.52644  23986823.578                    23986834.285
 105245790.190 7  82009737.06346  20027608.320                    20027616.188
 107940200.301 8  84109271.07146  20540338.359                    20540345.082
 11  8 11 16 50 30.0000000  0 11G06G10G28G16G11G19G03G07G08G13G23
 120220759.869 7  93678551.96244  22877250.688                    22877260.922
 125672669.448 6  97926853.51743  23914730.938                    23914742.352
 129290254.721 6 100745740.47742  24603128.680                    24603140.246
 123042904.515 6  95877618.02944  23414287.891                    23414296.344
 130198363.50316                  24775952.742
 110708516.934 7  86266403.73746  21067130.156                    21067137.063
 111061101.951 8  86541155.10545  21134226.117                    21134234.797
 115763765.738 7  90205568.810 7  22029111.617                    22029120.012
 125983293.270 7  98168846.66744  23973822.180                    23973833.051
 105246151.766 7  82010018.79446  20027677.367                    20027685.184
 107998462.599 8  84154670.23446  20551425.211                    20551431.949
 11  8 11 16 51  0.0000000  0 11G06G10G28G16G11G19G03G07G08G13G23
 120288453.650 7  93731300.36544  22890132.867                    22890142.441
 125693250.830 6  97942890.91643  23918647.070                    23918659.035
 129216945.098 6 100688616.13342  24589177.461                    24589190.313
 123133498.299 6  95948210.53544  23431526.727                    23431535.852
 130123696.276 6 101395243.93452  24761744.070                    24761755.652
 110680221.672 7  86244355.49346  21061745.555                    21061752.684
 111107373.263 8  86577210.66945  21143031.086                    21143039.949
 115708193.385 7  90162265.669 7  22018536.211                    22018544.820
 125914912.830 7  98115563.27344  23960810.211                    23960821.254
 105247098.682 7  82010756.63046  20027857.391                    20027865.602
 108057243.369 8  84200473.38946  20562610.859                    20562618.086
 11  8 11 16 51 30.0000000  0 11G06G10G28G16G11G19G03G07G08G13G23
 120356571.447 7  93784379.15744  22903095.063                    22903104.813
 125714265.570 6  97959266.00443  23922646.711                    23922657.922
 129143847.152 6 100631656.78942  24575268.211                    24575279.871
 123224097.415 6  96018807.18444  23448767.461                    23448776.156
 130048881.054 6 101336946.39042  24747507.242                    24747519.395
 110652510.043 7  86222762.02246  21056471.859                    21056478.934
 111154220.515 8  86613715.02645  21151945.563                    21151954.563
 115652667.930 7  90118999.070 7  22007970.266                    22007978.938
 125846472.599 7  98062233.31344  23947786.063                    23947797.000
 105248631.591 7  82011951.08446  20028149.172                    20028157.328
 108116541.241 8  84246679.48346  20573894.867                    20573901.570
 11  8 11 16 52  0.0000000  0 11G06G10G28G16G11G19G03G07G08G13G23
 120425110.743 7  93837786.37044  22916137.961                    22916147.918
 125735711.483 6  97975977.07643  23926727.172                    23926738.875
 129070960.958 6 100574862.41542  24561398.180                    24561410.254
 123314700.007 6  96089406.56144  23466008.453                    23466017.578
 129973920.176 6 101278535.35043  24733242.742                    24733255.070
 110625383.339 7  86201624.35546  21051310.156                    21051317.320
 111201641.820 8  86650666.69145  21160970.023                    21160979.129
 115597190.208 7  90075769.689 7  21997413.742                    21997421.816
 125777972.881 7  98008856.93444  23934750.648                    23934761.512
 105250751.089 7  82013602.62646  20028552.742                    20028560.680
 108176354.483 8  84293287.16546  20585277.063                    20585284.250
 11  8 11 16 52 30.0000000  0 11G06G10G28G16G11G19G03G07G08G13G23
 120494069.644 7  93891520.55644  22929260.063                    22929269.945
 125757587.023 6  97993022.91643  23930890.719                    23930901.801
 128998286.990 6 100518233.43442  24547568.797                    24547580.457
 123405304.589 6  96160007.44644  23483249.930                    23483259.613
 129898815.615 6 101220012.33943  24718950.617                    24718962.922
 110598843.191 7  86180943.73546  21046259.617                    21046267.012
 111249635.155 8  86688064.09845  21170102.281                    21170111.891
 115541760.969 8  90032578.085 7  21986865.367                    21986874.020
 125709413.978 7  97955434.49544  23921704.781                    23921715.402
 105253458.056 7  82015711.93446  20029067.625                    20029075.801
 108236681.686 8  84340295.34046  20596757.008                    20596763.918
 11  8 11 16 53  0.0000000  0 11G06G10G28G16G11G19G03G07G08G13G23
 120563445.699 7  93945579.79644  22942462.109                    22942472.043
 125779890.235 6  98010402.01543  23935134.656                    23935145.973
 128925825.592 6 100461770.05043  24533780.555                    24533791.293
 123495909.324 6  96230608.50344  23500492.117                    23500500.820
 129823570.115 6 101161379.47942  24704631.977                    24704643.766
 110572890.578 7  86160720.93446  21041321.227                    21041327.930
 111298199.426 8  86725906.38045  21179343.969                    21179352.977
 115486381.050 7  89989424.938 7  21976326.727                    21976335.453
 125640795.770 6  97901965.80243  23908647.281                    23908657.188
 105256752.864 8  82018279.29346  20029694.391                    20029702.754
 108297521.328 8  84387702.80946  20608334.352                    20608341.148
 11  8 11 16 53 30.0000000  0 11G06G10G28G16G11G19G03G07G08G13G23
 120633236.936 7  93999962.53344  22955743.078                    22955752.789
 125802619.787 6  98028113.32443  23939459.406                    23939471.023
 128853577.211 6 100405472.65243  24520032.023                    24520042.680
 123586512.772 6  96301208.51744  23517732.602                    23517742.078
 129748185.736 6 101102638.44443  24690286.758                    24690298.598
 110547526.999 8  86140957.12646  21036494.727                    21036501.086
 111347332.149 8  86764191.60845  21188693.789                    21188703.094
 115431051.257 7  89946310.819 7  21965797.875                    21965806.609
 125572117.862 6  97848450.58243  23895578.047                    23895588.227
 105260636.257 8  82021305.30146  20030433.438                    20030441.695
 108358871.937 8  84435508.43046  20620009.578                    20620016.098
 11  8 11 16 54  0.0000000  0 11G06G10G28G16G11G19G03G07G08G13G23
 120703441.102 7  94054667.06244  22969102.109                    22969111.895
 125825773.552 6  98046155.16743  23943865.492                    23943876.918
 128781542.227 6 100349341.54743  24506324.461                    24506335.063
 123677113.059 6  96371806.09444  23534973.344                    23534982.879
 129672664.847 6 101043790.96143  24675915.500                    24675927.496
 110522753.763 7  86121653.33446  21031780.102                    21031787.363
 111397031.742 8  86802918.55245  21198150.969                    21198160.188
 115375772.361 7  89903236.367 7  21955279.188                    21955287.660
 125503380.885 6  97794889.33343  23882497.727                    23882507.531
 105265108.705 8  82024790.30746  20031284.195                    20031292.414
 108420731.892 8  84483710.94546  20631780.594                    20631787.531
 11  8 11 16 54 30.0000000  0 11G06G10G28G16G11G19G03G07G08G13G23
 120774056.089 7  94109691.68044  22982540.211                    22982550.109
 125849349.723 6  98064526.15843  23948352.703                    23948363.488
 128709721.087 6 100293377.07843  24492657.211                    24492667.793
 123767708.593 6  96442399.99944  23552213.227                    23552222.699
 129597009.698 6 100984838.90642  24661518.953                    24661530.766
 110498572.484 8  86102810.79546  21027178.859                    21027185.680
 111447296.616 8  86842085.98345  21207716.203                    21207725.250
 115320545.119 7  89860202.178 7  21944769.156                    21944777.836
 125434585.182 7  97741282.33343  23869405.852                    23869416.598
 105270170.725 8  82028734.72146  20032247.961                    20032256.199
 108483099.583 8  84532309.10246  20643648.867                    20643655.539
 11  8 11 16 55  0.0000000  0 11G06G10G28G16G11G19G03G07G08G13G23
 120845079.375 7  94165034.45444  22996055.422                    22996065.359
 125873346.306 6  98083224.75943  23952918.703                    23952930.180
 128638113.941 6 100237579.38243  24479030.430                    24479041.379
 123858297.879 7  96512988.98843  23569452.094                    23569461.027
 129521222.659 6 100925784.06643  24647096.578                    24647108.852
 110474984.162 7  86084430.30446  21022690.008                    21022696.469
 111498124.663 8  86881692.24645  21217388.172                    21217397.277
 115265370.149 7  89817208.725 7  21934269.758                    21934278.598
 125365730.596 6  97687629.44143  23856304.063                    23856314.000
 105275822.978 7  82033139.05146  20033323.625                    20033331.988
 108545972.854 8  84581301.22146  20655613.297                    20655620.457
 11  8 11 16 55 30.0000000  0 11G06G10G28G16G11G19G03G07G08G13G23
 120916509.035 7  94220693.88344  23009648.125                    23009657.504
 125897761.626 6  98102249.64643  23957564.813                    23957575.910
 128566721.609 6 100181949.05043  24465444.398                    24465456.387
 123948879.087 7  96583571.73544  23586689.227                    23586697.465
 129445306.185 6 100866628.38642  24632650.141                    24632662.504
 110451989.919 7  86066512.74346  21018314.258                    21018321.172
 111549514.086 8  86921735.94445  21227167.742                    21227176.930
 115210248.769 7  89774257.027 7  21923780.680                    21923789.344
 125296817.283 7  97633930.78343  23843189.563                    23843199.434
 105282065.908 7  82038003.64746  20034511.633                    20034519.594
 108609350.881 8  84630686.66046  20667673.750                    20667680.719
 11  8 11 16 56  0.0000000  0 11G06G10G28G16G11G19G03G07G08G13G23
 120988342.876 7  94276668.23944  23023317.969                    23023327.750
 125922593.628 6  98121599.23143  23962289.953                    23962301.832
 128495544.180 6 100126486.17143  24451900.094                    24451912.094
 124039451.068 7  96654147.27843  23603924.563                    23603933.246
 129369262.604 6 100807373.61343  24618179.867                    24618191.586
 110429591.374 7  86049059.34646  21014051.742                    21014058.723
 111601463.023 8  86962215.63445  21237053.289                    21237062.066
 115155181.604 7  89731347.565 7  21913301.414                    21913310.313
 125227845.501 6  97580186.63343  23830064.750                    23830075.000
 105288900.109 8  82043328.97846  20035811.930                    20035820.230
 108673231.873 8  84680464.01546  20679829.836                    20679836.953
 11  8 11 16 56 30.0000000  0 11G06G10G28G16G11G19G03G07G08G13G23
 121060578.619 7  94332955.79244  23037063.328                    23037072.910
 125947840.485 6  98141272.06443  23967094.414                    23967106.719
 128424582.206 6 100071191.15643  24438396.625                    24438408.414
 124130012.080 7  96724714.25144  23621158.164                    23621167.023
 129293094.274 6 100748021.67743  24603685.750                    24603697.824
 110407789.660 8  86032071.01746  21009903.352                    21009910.254
 111653969.547 8  87003129.79045  21247044.984                    21247053.984
 115100169.630 7  89688481.116 7  21902833.148                    21902841.805
 125158815.631 7  97526397.18643  23816929.281                    23816939.094
 105296326.148 7  82049115.47846  20037225.180                    20037233.582
 108737614.194 8  84730632.01246  20692081.766                    20692088.469
 11  8 11 16 57  0.0000000  0 11G06G10G28G16G11G19G03G07G08G13G23
 121133213.763 7  94389554.56944  23050885.727                    23050895.285
 125973500.449 6  98161266.80443  23971977.375                    23971988.945
 128353835.893 6 100016064.21243  24424934.234                    24424945.227
 124220560.646 7  96795271.55143  23638388.953                    23638397.363
 129216803.478 6 100688574.26442  24589168.484                    24589180.176
 110386585.823 7  86015548.57446  21005868.289                    21005875.629
 111707032.032 8  87044477.17845  21257142.063                    21257151.336
 115045213.871 7  89645658.468 7  21892375.609                    21892384.090
 125089727.843 7  97472562.62243  23803782.172                    23803792.703
 105304344.142 8  82055363.24046  20038751.148                    20038759.418
 108802495.931 8  84781189.16946  20704428.094                    20704435.121
 11  8 11 16 57 30.0000000  0 11G06G10G28G16G11G19G03G07G08G13G23
 121206246.146 7  94446462.87844  23064783.188                    23064793.199
 125999571.278 6  98181581.66843  23976939.078                    23976949.785
 128283305.218 6  99961105.30843  24411512.109                    24411523.328
 124311095.219 6  96865817.93843  23655616.609                    23655625.711
 129140392.505 6 100629033.26443  24574627.469                    24574639.836
 110365980.921 8  85999492.81746  21001947.125                    21001954.422
 111760648.146 7  87086255.95845  21267345.461                    21267354.145
 114990314.834 7  89602880.021 7  21881928.602                    21881937.320
 125020581.994 6  97418682.83243  23790623.734                    23790633.926
 105312954.498 8  82062072.58846  20040389.609                    20040397.980
 108867875.335 8  84832134.11646  20716869.602                    20716876.309
 11  8 11 16 58  0.0000000  0 11G06G10G28G16G11G19G03G07G08G13G23
 121279673.773 7  94503679.16044  23078756.617                    23078766.621
 126026051.235 6  98202215.36443  23981977.688                    23981989.324
 128212991.158 6  99906315.16543  24398132.164                    24398142.816
 124401614.080 7  96936352.06844  23672842.211                    23672850.988
 129063864.027 6 100569400.69243  24560065.352                    24560076.879
 110345976.353 8  85983904.86146  20998140.805                    20998147.539
 111814816.193 8  87128464.82145  21277652.883                    21277662.148
 114935473.727 7  89560146.710 7  21871492.734                    21871501.234
 124951378.516 7  97364758.12243  23777455.023                    23777464.691
 105322157.932 8  82069244.06946  20042140.820                    20042149.145
 108933750.869 8  84883465.66746  20729405.305                    20729412.320
 11  8 11 16 58 30.0000000  0 11G06G10G28G16G11G19G03G07G08G13G23
 121353494.288 7  94561201.62444  23092803.539                    23092813.766
 126052938.260 6  98223166.25343  23987093.578                    23987105.711
 128142894.129 6  99851694.17343  24384793.047                    24384804.133
 124492115.988 6  97006872.98743  23690063.594                    23690072.793
 128987220.506 6 100509678.52943  24545479.688                    24545491.980
 110326573.118 8  85968785.46746  20994448.086                    20994455.320
 111869533.955 7  87171102.00945  21288065.523                    21288074.535
 114880691.427 7  89517459.228 7  21861067.852                    21861076.188
 124882117.258 7  97310788.36344  23764275.125                    23764284.750
 105331954.977 8  82076878.11446  20044005.336                    20044013.559
 109000120.921 8  84935182.55046  20742035.000                    20742042.031
 11  8 11 16 59  0.0000000  0 11G06G10G28G16G11G19G03G07G08G13G23
 121427705.310 7  94619028.34944  23106925.992                    23106935.266
 126080230.382 6  98244432.80343  23992287.188                    23992299.340
 128073013.849 6  99797242.01343  24371494.672                    24371505.902
 124582599.118 6  97077379.25344  23707282.438                    23707291.078
 128910464.331 6 100449868.54943  24530873.133                    24530885.578
 110307772.591 8  85954135.72146  20990870.383                    20990877.391
 111924799.573 8  87214166.10645  21298581.992                    21298591.258
 114825968.792 7  89474818.228 7  21850654.383                    21850663.156
 124812798.601 7  97256773.90244  23751083.961                    23751094.043
 105342345.631 8  82084974.70946  20045982.250                    20045990.789
 109066983.540 8  84987283.24146  20754758.445                    20754765.492
 11  8 11 16 59 30.0000000  0 11G06G10G28G16G11G19G03G07G08G13G23
 121502304.374 7  94677157.47844  23121121.281                    23121131.191
 126107925.403 6  98266013.29043  23997557.742                    23997569.375
 128003350.637 6  99742959.04443  24358238.500                    24358249.418
 124673062.345 6  97147870.02944  23724497.117                    23724505.906
 128833597.784 6 100389972.62543  24516246.156                    24516258.375
 110289575.188 8  85939955.93046  20987407.883                    20987414.500
 111980610.766 7  87257655.31945  21309202.813                    21309211.746
 114771306.602 7  89432224.331 7  21840252.625                    21840261.094
 124743422.880 7  97202714.95444  23737882.078                    23737892.426
 105353329.756 8  82093533.74646  20048072.883                    20048081.059
 109134336.875 8  85039766.32046  20767575.570                    20767582.520
 11  8 11 17  0  0.0000000  0 11G06G10G28G16G11G19G03G07G08G13G23
 121577289.318 6  94735587.27444  23135390.727                    23135400.094
 126136021.479 6  98287906.30543  24002904.594                    24002915.406
 127933905.234 6  99688845.80043  24345023.250                    24345034.406
 124763503.910 6  97218343.90044  23741707.375                    23741716.512
 128756623.286 6 100329992.58443  24501598.586                    24501610.094
 110271982.002 8  85926246.97046  20984059.805                    20984066.801
 112036965.357 7  87301567.94945  21319926.305                    21319935.523
 114716705.827 7  89389678.277 7  21829862.688                    21829871.180
 124673990.354 7  97148611.74144  23724669.211                    23724679.785
 105364908.068 8  82102555.79046  20050276.047                    20050284.449
 109202178.890 8  85092630.18346  20780485.563                    20780492.332
 11  8 11 17  0 30.0000000  0 11G06G10G28G16G11G19G03G07G08G13G23
 121652657.890 6  94794316.00744  23149732.906                    23149742.418
 126164516.694 6  98310110.30443  24008327.164                    24008337.926
 127864677.556 7  99634902.19343  24331850.297                    24331861.215
 124853922.415 6  97288799.80844  23758914.328                    23758922.816
 128679543.362 6 100269930.41942  24486930.883                    24486942.391
 110254994.057 8  85913009.61946  20980827.016                    20980833.789
 112093861.598 8  87345902.64745  21330753.961                    21330763.008
 114662167.521 7  89347180.917 7  21819484.430                    21819492.813
 124604501.311 7  97094464.48243  23711445.750                    23711455.930
 105377080.809 8  82112041.02146  20052592.367                    20052600.633
 109270508.262 8  85145873.80846  20793488.336                    20793495.320
 11  8 11 17  1  0.0000000  0 11G06G10G28G16G11G19G03G07G08G13G23
 121728407.520 6  94853341.66444  23164147.227                    23164157.031
 126193408.795 6  98332623.58143  24013825.891                    24013835.344
 127795667.911 6  99581128.46843  24318718.164                    24318728.906
 124944316.115 7  97359236.43443  23776115.203                    23776123.453
 128602360.232 6 100209787.83043  24472242.734                    24472255.430
 110238612.449 8  85900244.73946  20977710.039                    20977716.887
 112151297.409 7  87390657.78945  21341683.148                    21341692.461
 114607692.438 8  89304732.804 7  21809117.750                    21809126.469
 124534955.882 7  97040273.29244  23698211.633                    23698222.223
 105389848.100 7  82121989.55346  20055022.180                    20055030.375
 109339323.024 8  85199495.65446  20806583.352                    20806590.227
 11  8 11 17  1 30.0000000  0 11G06G10G28G16G11G19G03G07G08G13G23
 121804536.203 6  94912662.67344  23178634.352                    23178643.816
 126222695.716 6  98355444.51843  24019398.609                    24019408.543
 127726876.717 6  99527525.00243  24305626.844                    24305637.730
 125034684.104 6  97429652.98743  23793311.266                    23793320.820
 128525076.430 6 100149566.79142  24457536.188                    24457548.512
 110222838.267 8  85887953.17546  20974707.969                    20974715.281
 112209270.931 7  87435831.91545  21352715.320                    21352724.375
 114553281.744 8  89262334.868 7  21798763.703                    21798772.563
 124465354.376 7  96986038.38944  23684966.992                    23684977.477
 105403210.218 8  82132401.57246  20057564.773                    20057572.727
 109408621.248 8  85253494.22746  20819770.172                    20819777.516
 11  8 11 17  2  0.0000000  0 11G06G10G28G16G11G19G03G07G08G13G23
 121881041.515 7  94972277.14644  23193193.047                    23193202.488
 126252375.247 6  98378571.41443  24025046.063                    24025056.980
 127658304.295 7  99474091.95943  24292578.578                    24292588.879
 125125024.764 6  97500048.24543  23810502.898                    23810511.965
 128447694.690 6 100089269.47242  24442810.781                    24442822.684
 110207672.466 8  85876135.67846  20971822.242                    20971829.559
 112267779.850 7  87481423.23445  21363849.070                    21363858.273
 114498936.547 8  89219987.984 7  21788422.039                    21788430.688
 124395697.226 7  96931760.13344  23671711.609                    23671722.164
 105417167.491 8  82143277.36246  20060220.547                    20060229.168
 109478401.276 8  85307868.23746  20833048.813                    20833056.012
 11  8 11 17  2 30.0000000  0 11G06G10G28G16G11G19G03G07G08G13G23
 121957921.123 7  95032183.31644  23207822.609                    23207831.852
 126282445.429 6  98402002.66643  24030767.656                    24030778.934
 127589950.668 7  99420829.47743  24279571.008                    24279581.949
 125215337.193 7  97570421.52744  23827689.086                    23827697.367
 128370217.355 5 100028897.60043  24428067.758                    24428078.797
 110193115.751 8  85864792.77946  20969051.859                    20969058.938
 112326821.534 7  87527429.69945  21375084.484                    21375094.039
 114444657.607 8  89177692.701 7  21778093.102                    21778101.613
 124325984.471 7  96877438.55344  23658446.063                    23658456.594
 105431720.177 8  82154617.10946  20062989.625                    20062998.004
 109548660.830 8  85362615.89546  20846418.984                    20846425.574
 11  8 11 17  3  0.0000000  0 11G06G10G28G16G11G19G03G07G08G13G23
 122035172.486 7  95092379.14544  23222522.945                    23222532.477
 126312904.055 6  98425736.61743  24036564.547                    24036575.641
 127521816.145 6  99367737.69443  24266605.641                    24266616.648
 125305619.119 6  97640771.05744  23844868.711                    23844876.996
 128292646.727 6  99968453.10643  24413306.078                    24413317.813
 110179168.661 8  85853924.92346  20966398.156                    20966405.082
 112386394.204 7  87573849.93345  21386421.102                    21386429.891
 114390446.053 8  89135449.939 7  21767777.484                    21767785.488
 124256216.404 7  96823073.88444  23645169.586                    23645179.840
 105446867.669 8  82166420.34346  20065872.797                    20065880.355
 109619398.244 8  85417735.91046  20859879.914                    20859886.676
 11  8 11 17  3 30.0000000  0 11G06G10G28G16G11G19G03G07G08G13G23
 122112793.397 7  95152862.92344  23237293.688                    23237303.117
 126343749.260 6  98449771.78443  24042434.188                    24042445.188
 127453900.822 6  99314816.75543  24253681.805                    24253692.484
 125395869.156 7  97711095.70644  23862043.195                    23862051.301
 128214985.868 6  99907938.25743  24398527.516                    24398538.984
 110165832.286 8  85843532.94246  20963860.719                    20963867.418
 112446495.974 7  87620682.45345  21397857.797                    21397867.254
 114336303.007 8  89093260.562 7  21757474.555                    21757482.605
 124186393.645 6  96768666.57644  23631882.523                    23631892.695
 105462610.691 8  82178687.62046  20068868.422                    20068876.359
 109690611.474 8  85473226.69646  20873431.234                    20873438.367
 11  8 11 17  4  0.0000000  0 11G06G10G28G16G11G19G03G07G08G13G23
 122190781.530 7  95213632.87544  23252135.227                    23252144.445
 126374978.996 6  98474106.63543  24048376.563                    24048387.930
 127386205.038 7  99262066.84743  24240799.695                    24240810.234
 125486086.314 6  97781394.75843  23879210.977                    23879219.578
 128137236.699 6  99847354.60243  24383732.602                    24383744.906
 110153107.541 8  85833617.56146  20961438.820                    20961445.488
 112507124.355 7  87667925.32745  21409394.914                    21409404.176
 114282228.892 8  89051124.905 7  21747184.188                    21747192.539
 124116516.109 6  96714216.59044  23618585.070                    23618595.363
 105478949.213 8  82191418.92246  20071977.422                    20071985.293
 109762298.735 8  85529086.85346  20887072.852                    20887080.051
 11  8 11 17  4 30.0000000  0 11G06G10G28G16G11G19G03G07G08G13G23
 122269134.350 7  95274686.97944  23267045.117                    23267054.004
 126406590.589 6  98498738.98043  24054392.445                    24054403.309
 127318729.037 6  99209488.25243  24227958.734                    24227969.602
 125576269.361 6  97851667.24443  23896372.094                    23896380.684
 128059401.922 6  99786704.24943  24368919.875                    24368933.066
 110140994.998 8  85824179.21946  20959133.914                    20959140.527
 112568277.200 7  87715576.86145  21421031.953                    21421041.531
 114228225.237 8  89009044.156 7  21736907.281                    21736916.207
 124046584.459 6  96659724.45143  23605277.266                    23605287.543
 105495883.217 8  82204614.23646  20075199.773                    20075208.105
 109834458.044 8  85585314.83746  20900804.422                    20900811.504
 11  8 11 17  5  0.0000000  0 11G06G10G28G16G11G19G03G07G08G13G23
 122347849.665 7  95336023.53544  23282023.813                    23282033.352
 126438582.121 6  98523667.40743  24060479.828                    24060491.602
 127251473.239 6  99157081.23343  24215160.250                    24215171.250
 125666416.767 7  97921911.96643  23913526.086                    23913535.492
 127981484.172 6  99725989.19443  24354093.461                    24354104.848
 110129495.498 8  85815218.56546  20956945.516                    20956952.543
 112629952.281 7  87763635.36045  21432768.328                    21432777.805
 114174293.136 8  88967019.158 7  21726644.563                    21726653.309
 123976599.088 6  96605190.42543  23591960.273                    23591969.789
 105513413.059 8  82218273.83646  20078535.633                    20078543.734
 109907087.351 8  85641909.05546  20914625.570                    20914632.586
 11  8 11 17  5 30.0000000  0 11G06G10G28G16G11G19G03G07G08G13G23
 122426924.873 7  95397640.54644  23297070.844                    23297080.691
 126470951.383 6  98548890.19343  24066640.156                    24066651.367
 127184437.222 6  99104845.47743  24202403.406                    24202415.074
 125756527.149 6  97992127.77643  23930674.008                    23930683.180
 127903485.964 6  99665211.47043  24339250.250                    24339262.891
 110118609.517 8  85806735.98946  20954874.188                    20954881.473
 112692147.403 7  87812099.07845  21444603.984                    21444613.328
 114120433.327 8  88925050.505 7  21716395.438                    21716403.734
 123906560.318 7  96550614.80044  23578631.727                    23578642.055
 105531538.247 8  82232397.34846  20081984.250                    20081992.563
 109980184.368 8  85698867.72846  20928535.516                    20928542.406
 11  8 11 17  6  0.0000000  0 11G06G10G28G16G11G19G03G07G08G13G23
 122506357.769 7  95459536.29144  23312186.875                    23312196.531
 126503696.383 6  98574405.68543  24072871.141                    24072882.883
 127117621.693 6  99052781.56043  24189689.422                    24189700.422
 125846598.908 6  98062313.54443  23947813.648                    23947822.887
 127825409.861 6  99604373.04443  24324393.328                    24324405.594
 110108338.093 8  85798732.29246  20952919.516                    20952926.402
 112754860.404 7  87860966.33145  21456537.203                    21456546.715
 114066647.215 8  88883139.258 7  21706160.070                    21706168.910
 123836468.442 7  96495997.79444  23565293.992                    23565303.895
 105550258.948 8  82246984.89146  20085547.250                    20085555.504
 110053747.751 8  85756189.79646  20942534.086                    20942541.586
 11  8 11 17  6 30.0000000  0 11G06G10G28G16G11G19G03G07G08G13G23
 122586145.835 7  95521708.78644  23327370.203                    23327379.699
 126536814.721 6  98600212.14443  24079173.242                    24079184.984
 127051026.224 6  99000889.06043  24177016.555                    24177027.984
 125936630.800 6  98132468.22343  23964946.336                    23964955.355
 127747258.221 6  99543475.75143  24309522.391                    24309533.477
 110098681.638 8  85791207.79346  20951081.711                    20951088.730
 112818088.382 7  87910234.87045  21468569.750                    21468579.148
 114012935.386 8  88841285.895 7  21695939.195                    21695947.809
 123766323.552 7  96441339.45644  23551945.211                    23551956.277
 105569574.724 8  82262036.13246  20089222.813                    20089230.898
 110127774.817 8  85813873.17246  20956621.031                    20956628.371
 11  8 11 17  7  0.0000000  0 11G06G10G28G16G11G19G03G07G08G13G23
 122666286.620 7  95584156.13144  23342620.516                    23342630.426
 126570304.228 6  98626307.81243  24085546.383                    24085557.848
 126984651.368 6  98949168.51643  24164384.594                    24164397.445
 126026621.899 6  98202591.11543  23982071.281                    23982080.176
 127669033.640 6  99482521.60243  24294635.758                    24294647.676
 110089640.731 8  85784162.93746  20949361.445                    20949368.359
 112881829.429 7  87959903.20145  21480699.203                    21480708.543
 113959299.249 7  88799491.514 7  21685732.664                    21685741.074
 123696126.202 7  96386640.26444  23538587.773                    23538597.117
 105589485.790 8  82277551.22446  20093012.000                    20093020.184
 110202263.800 8  85871916.48246  20970795.734                    20970803.000
 11  8 11 17  7 30.0000000  0 11G06G10G28G16G11G19G03G07G08G13G23
 122746777.666 7  95646876.38844  23357937.344                    23357947.094
 126604163.088 6  98652691.25643  24091990.227                    24092001.168
 126918497.166 6  98897619.85843  24151796.633                    24151808.102
 126116570.391 6  98272680.80843  23999187.625                    23999196.969
 127590738.821 6  99421512.71043  24279736.508                    24279748.270
 110081216.071 8  85777598.27946  20947758.125                    20947765.211
 112946081.752 7  88009969.92945  21492926.016                    21492935.184
 113905739.809 7  88757756.895 7  21675540.469                    21675549.316
 123625876.796 7  96331900.49543  23525219.711                    23525229.008
 105609992.137 8  82293530.17246  20096914.195                    20096922.371
 110277212.648 8  85930318.13346  20985058.359                    20985065.426
 11  8 11 17  8  0.0000000  0 11G06G10G28G16G11G19G03G07G08G13G23
 122827616.635 6  95709867.76644  23373320.414                    23373330.637
 126638388.293 6  98679360.20243  24098502.578                    24098513.914
 126852563.695 6  98846243.22243  24139250.078                    24139261.246
 126206475.037 6  98342736.30043  24016295.828                    24016305.375
 127512376.211 6  99360450.97643  24264825.219                    24264836.707
 110073407.980 8  85771514.07346  20946272.711                    20946279.340
 113010842.379 7  88060432.73645  21505249.148                    21505258.461
 113852258.079 8  88716082.835 7  21665363.250                    21665371.645
 123555575.637 6  96277120.41944  23511842.008                    23511851.578
 105631093.342 8  82309972.65746  20100929.563                    20100937.789
 110352619.153 8  85989076.39446  20999407.578                    20999414.879
 11  8 11 17  8 30.0000000  0 11G06G10G28G16G11G19G03G07G08G13G23
 122908801.165 6  95773128.41444  23388769.094                    23388779.793
 126672977.889 6  98706313.05343  24105085.266                    24105095.957
 126786850.989 6  98795038.62143  24126745.281                    24126755.781
 126296334.996 6  98412757.00443  24033396.008                    24033405.316
 127433948.498 7  99299338.46943  24249901.734                    24249911.867
 110066217.282 8  85765910.94246  20944904.188                    20944911.008
 113076108.752 7  88111289.62845  21517669.008                    21517678.445
 113798855.168 8  88674470.193 7  21655201.297                    21655209.426
 123485223.284 7  96222300.46444  23498454.406                    23498464.211
 105652789.608 8  82326878.81446  20105058.250                    20105066.527
 110428481.475 8  86048189.84446  21013843.828                    21013850.988
 11  8 11 17  9  0.0000000  0 11G06G10G28G16G11G19G03G07G08G13G23
 122990328.612 6  95836656.25144  23404283.563                    23404293.488
 126707929.717 6  98733548.20143  24111736.805                    24111747.031
 126721359.444 6  98744006.29443  24114282.359                    24114293.387
 126386148.606 7  98482741.58843  24050487.211                    24050496.516
 127355458.150 6  99238177.20043  24234964.258                    24234975.941
 110059644.169 8  85760789.05846  20943653.328                    20943660.125
 113141879.006 7  88162539.16445  21530184.797                    21530194.016
 113745532.408 8  88632920.013 7  21645054.242                    21645062.398
 123414819.917 7  96167440.75144  23485056.680                    23485066.219
 105675080.451 8  82344248.27846  20109300.000                    20109308.449
 110504797.132 8  86107656.53946  21028366.008                    21028373.246
 11  8 11 17  9 30.0000000  0 11G06G10G28G16G11G19G03G07G08G13G23
 123072196.655 6  95900449.49544  23419862.031                    23419872.508
 126743241.367 7  98761063.71543  24118456.102                    24118466.633
 126656088.966 6  98693146.23643  24101862.305                    24101872.887
 126475914.763 7  98552689.17743  24067569.328                    24067577.941
 127276908.022 7  99176969.33243  24220016.758                    24220028.168
 110053689.475 8  85756149.06446  20942520.008                    20942526.809
 113208150.722 7  88214179.43345  21542796.000                    21542805.227
 113692290.740 8  88591433.015 7  21634922.523                    21634930.723
 123344366.081 7  96112541.70444  23471649.922                    23471659.211
 105697965.901 8  82362081.07746  20113655.117                    20113663.371
 110581564.176 8  86167474.96246  21042974.422                    21042981.582
 11  8 11 17 10  0.0000000  0 11G06G10G28G16G11G19G03G07G08G13G23
 123154402.686 6  95964506.10444  23435505.453                    23435515.613
 126778910.517 7  98788857.78643  24125243.258                    24125254.309
 126591039.325 6  98642458.23143  24089483.156                    24089494.020
 126565631.950 6  98622598.62243  24084641.734                    24084650.676
 127198300.563 7  99115716.79043  24205057.586                    24205069.625
 110048353.193 8  85751990.93446  20941504.695                    20941510.934
 113274921.390 7  88266208.49745  21555501.805                    21555511.266
 113639130.982 8  88550009.815 7  21624806.672                    21624815.125
 123273862.231 7  96057603.66744  23458232.844                    23458242.730
 105721445.101 8  82380376.53546  20118122.766                    20118131.047
 110658780.390 8  86227643.38246  21057667.891                    21057675.223
 11  8 11 17 10 30.0000000  0 11G06G10G28G16G11G19G03G07G08G13G23
 123236944.467 6  96028824.33144  23451212.805                    23451223.223
 126814934.850 6  98816928.63543  24132097.914                    24132110.109
 126526210.663 6  98591942.41043  24077147.852                    24077157.363
 126655299.047 6  98692469.00643  24101704.734                    24101714.617
 127119638.309 7  99054421.54343  24190088.984                    24190101.266
 110043635.976 8  85748315.20146  20940606.813                    20940613.750
 113342188.409 7  88318624.32545  21568302.688                    21568312.145
 113586054.578 8  88508651.600 7  21614706.477                    21614714.867
 123203308.765 7  96002626.97644  23444807.844                    23444817.051
 105745518.056 8  82399134.65746  20122703.461                    20122712.035
 110736443.634 8  86288160.13846  21072447.258                    21072454.160
 11  8 11 17 11  0.0000000  0 11G06G10G28G16G11G19G03G07G08G13G23
 123319819.288 6  96093402.08044  23466983.711                    23466993.773
 126851312.089 6  98845274.48543  24139019.828                    24139032.082
 126461603.594 6  98541599.26843  24064853.172                    24064862.973
 126744915.034 6  98762299.57243  24118758.672                    24118767.047
 127040923.986 7  98993085.70443  24175110.766                    24175122.230
 110039538.144 7  85745122.10746  20939827.313                    20939833.879
 113409949.312 7  88371424.98145  21581197.352                    21581206.566
 113533062.684 8  88467359.227 7  21604622.773                    21604631.012
 123132706.162 7  95947612.02244  23431371.883                    23431381.805
 105770184.660 8  82418355.36246  20127397.734                    20127406.559
 110814551.801 8  86349023.59246  21087310.641                    21087317.531
 11  8 11 17 11 30.0000000  0 11G06G10G28G16G11G19G03G07G08G13G23
 123403024.721 6  96158237.43344  23482817.391                    23482827.332
 126888039.762 6  98873893.36443  24146010.039                    24146021.688
 126397217.837 6  98491428.58943  24052600.094                    24052611.332
 126834478.568 6  98832089.31043  24135802.211                    24135810.875
 126962160.114 6  98931711.30843  24160121.922                    24160134.238
 110036059.964 8  85742411.85046  20939165.063                    20939172.109
 113478202.278 7  88424609.07645  21594185.055                    21594194.125
 113480156.310 8  88426133.485 7  21594554.820                    21594563.055
 123062054.452 7  95892558.78444  23417928.094                    23417937.824
 105795444.428 8  82438038.26546  20132204.617                    20132213.148
 110893102.281 8  86410231.71046  21102258.398                    21102265.582
 11  8 11 17 12  0.0000000  0 11G06G10G28G16G11G19G03G07G08G13G23
 123486558.448 6  96223328.59144  23498712.773                    23498723.219
 126925115.574 6  98902783.53643  24153065.555                    24153076.453
 126333053.524 6  98441430.46443  24040390.367                    24040400.691
 126923988.267 6  98901837.07043  24152835.375                    24152843.867
 126883349.624 6  98870300.60043  24145125.070                    24145136.777
 110033201.963 8  85740184.85146  20938621.430                    20938628.035
 113546944.762 7  88478174.61545  21607266.906                    21607276.145
 113427336.928 8  88384975.541 7  21584503.570                    21584511.621
 122991354.780 7  95837468.18644  23404473.469                    23404483.719
 105821297.269 8  82458183.31646  20137124.227                    20137133.094
 110972093.335 8  86471783.11846  21117290.359                    21117297.328
 11  8 11 17 12 30.0000000  0 11G06G10G28G16G11G19G03G07G08G13G23
 123570418.146 6  96288673.74744  23514671.492                    23514680.906
 126962537.570 6  98931943.44643  24160186.406                    24160197.992
 126269110.635 6  98391604.82443  24028222.828                    24028233.180
 127013443.222 6  98971542.15343  24169857.438                    24169867.184
 126804495.195 6  98808855.58943  24130119.047                    24130131.301
 110030964.464 8  85738441.35346  20938195.656                    20938202.055
 113616173.963 7  88532119.41445  21620440.539                    21620449.668
 113374605.601 8  88343886.207 7  21574468.711                    21574477.309
 122920607.664 7  95782340.59744  23391011.219                    23391021.391
 105847742.970 8  82478790.33046  20142156.523                    20142164.605
 111051522.864 8  86533676.20046  21132404.711                    21132412.164
 11  8 11 17 13  0.0000000  0 11G06G10G28G16G11G19G03G07G08G13G23
 123654600.874 6  96354270.64044  23530690.922                    23530700.750
 127000302.997 6  98961371.01443  24167372.453                    24167384.273
 126205389.130 6  98341951.74043  24016096.727                    24016107.242
 127102841.947 6  99041203.43143  24186870.133                    24186878.332
 126725599.112 6  98747378.17943  24115106.398                    24115117.258
 110029347.607 7  85737181.48146  20937888.203                    20937894.902
 113685887.655 7  88586441.74345  21633706.766                    21633715.664
 113321963.354 8  88302866.298 7  21564451.797                    21564460.051
 122849813.384 7  95727176.26244  23377538.727                    23377549.617
 105874780.486 8  82499858.50446  20147301.891                    20147310.242
 111131388.395 8  86595909.02746  21147602.766                    21147609.656
 11  8 11 17 13 30.0000000  0 11G06G10G28G16G11G19G03G07G08G13G23
 123739104.523 6  96420117.57444  23546771.023                    23546781.750
 127038409.698 6  98991064.46843  24174624.172                    24174636.340
 126141889.239 6  98292471.34043  24004013.141                    24004023.391
 127192183.508 6  99110820.16043  24203870.906                    24203879.949
 126646664.245 6  98685870.54943  24100085.078                    24100095.941
 110028351.709 8  85736405.46946  20937698.656                    20937704.824
 113756083.077 7  88641139.45145  21647064.680                    21647073.379
 113269411.481 8  88261916.802 7  21554451.102                    21554459.914
 122778972.351 7  95671975.48444  23364059.008                    23364068.750
 105902409.734 8  82521387.75846  20152559.813                    20152568.281
 111211687.741 8  86658479.87646  21162883.500                    21162890.426
 11  8 11 17 14  0.0000000  0 11G06G10G28G16G11G19G03G07G08G13G23
 123823926.505 6  96486212.55744  23562912.820                    23562922.605
 127076854.983 6  99021021.78243  24181940.469                    24181951.594
 126078610.585 6  98243163.32643  23991970.680                    23991981.492
 127281466.686 6  99180391.41643  24220860.969                    24220870.168
 126567693.305 6  98624334.81043  24085056.945                    24085068.547
 110027976.927 8  85736113.43246  20937626.734                    20937633.723
 113826757.926 7  88696210.75345  21660513.242                    21660522.875
 113216951.101 8  88221038.601 7  21544468.344                    21544477.117
 122708085.173 7  95616738.76144  23350569.203                    23350579.492
 105930630.054 7  82543377.58946  20157929.781                    20157937.664
 111292418.347 8  86721386.78546  21178245.883                    21178253.109
 11  8 11 17 14 30.0000000  0 11G06G10G28G16G11G19G03G07G08G13G23
 123909064.272 6  96552553.62244  23579113.516                    23579123.359
 127115636.697 6  99051241.22843  24189320.328                    24189332.211
 126015553.332 6  98194027.86643  23979972.070                    23979982.512
 127370690.334 6  99249916.22943  24237839.680                    24237848.309
 126488688.987 6  98562773.09743  24070023.023                    24070035.191
 110028223.359 7  85736305.46246  20937673.797                    20937680.680
 113897909.427 7  88751653.45445  21674052.797                    21674062.805
 113164583.397 8  88180232.607 7  21534503.094                    21534511.609
 122637152.529 7  95561466.57144  23337071.477                    23337080.633
 105959440.983 8  82565827.64346  20163412.258                    20163420.820
 111373578.136 8  86784628.12246  21193690.461                    21193697.426
 11  8 11 17 15  0.0000000  0 11G06G10G28G16G11G19G03G07G08G13G23
 123994515.266 6  96619138.77044  23595374.977                    23595384.266
 127154752.289 6  99081720.84343  24196763.641                    24196775.156
 125952717.503 6  98145064.93143  23968014.852                    23968025.465
 127459853.281 6  99319393.83143  24254806.703                    24254815.898
 126409653.650 6  98501187.12143  24054983.594                    24054994.938
 110029091.050 7  85736981.59346  20937838.805                    20937845.734
 113969535.142 7  88807465.68545  21687683.117                    21687692.270
 113112309.788 8  88139499.936 7  21524555.781                    21524564.223
 122566174.512 7  95506159.07844  23323564.797                    23323574.547
 105988842.014 8  82588737.51146  20169006.773                    20169015.238
 111455164.909 8  86848202.17946  21209215.570                    21209222.898
 11  8 11 17 15 30.0000000  0 11G06G10G28G16G11G19G03G07G08G13G23
 124080277.132 7  96685966.14743  23611694.102                    23611704.402
 127194199.335 6  99112458.73043  24204270.828                    24204281.738
 125890102.952 6  98096274.42643  23956099.820                    23956110.270
 127548954.364 6  99388823.19243  24271762.438                    24271771.871
 126330590.426 6  98439579.54943  24039938.242                    24039949.305
 110030580.401 8  85738142.13246  20938122.602                    20938129.305
 114041632.886 7  88863645.72645  21701402.203                    21701412.258
 113060131.404 8  88098841.458 7  21514626.758                    21514634.719
 122495151.766 7  95450816.70444  23310049.469                    23310059.168
 106018832.604 8  82612106.78146  20174714.000                    20174722.387
 111537176.110 8  86912106.95345  21224821.789                    21224829.254
 11  8 11 17 16  0.0000000  0 11G06G10G28G16G11G19G03G07G08G13G23
 124166347.267 6  96753033.74843  23628073.203                    23628082.934
 127233975.760 6  99143453.27243  24211839.742                    24211851.641
 125827710.009 6  98047656.58643  23944225.953                    23944236.977
 127637992.471 6  99458203.49043  24288705.742                    24288714.328
 126251502.046 6  98377952.32143  24024887.648                    24024898.742
 110032691.411 7  85739787.08246  20938524.047                    20938530.746
 114114199.932 7  88920191.46745  21715211.734                    21715220.914
 113008049.442 8  88058258.128 7  21504715.648                    21504724.117
 122424084.917 7  95395439.98844  23296525.727                    23296535.648
 106049412.369 8  82635935.14646  20180533.242                    20180542.012
 111619609.666 8  86976340.82245  21240508.367                    21240515.879
 11  8 11 17 16 30.0000000  0 11G06G10G28G16G11G19G03G07G08G13G23
 124252723.129 6  96820339.57144  23644509.555                    23644519.953
 127274078.537 6  99174702.13043  24219471.453                    24219482.309
 125765538.194 6  97999211.08843  23932395.273                    23932405.598
 127726966.419 6  99527533.78043  24305637.461                    24305645.898
 126172391.116 6  98316307.47643  24009833.359                    24009845.191
 110035424.067 7  85741916.43646  20939044.328                    20939050.922
 114187233.600 7  88977100.80345  21729109.141                    21729119.086
 112956065.313 8  88017751.046 7  21494823.164                    21494831.914
 122352974.817 7  95340029.57344  23282993.820                    23283004.023
 106080580.361 7  82660221.86646  20186464.320                    20186472.785
 111702463.187 8  87040901.94745  21256275.195                    21256282.230
 11  8 11 17 17  0.0000000  0 11G06G10G28G16G11G19G03G07G08G13G23
 124339402.437 6  96887881.83043  23661004.250                    23661014.742
 127314505.546 6  99206203.61143  24227164.242                    24227176.313
 125703587.714 6  97950938.05343  23920606.578                    23920617.352
 127815875.452 6  99596813.55143  24322555.742                    24322564.926
 126093260.460 6  98254647.30343  23994775.250                    23994787.070
 110038778.629 7  85744530.38946  20939682.719                    20939689.715
 114260731.414 7  89034371.81545  21743096.039                    21743105.355
 112904180.120 8  87977321.038 7  21484949.891                    21484958.707
 122281822.138 7  95284585.96244  23269454.344                    23269464.074
 106112336.340 8  82684966.76646  20192507.227                    20192515.598
 111785734.477 8  87105788.60945  21272121.273                    21272128.473
 11  8 11 17 17 30.0000000  0 11G06G10G28G16G11G19G03G07G08G13G23
 124426382.480 6  96955658.43044  23677556.000                    23677565.875
 127355254.455 6  99237955.91843  24234918.453                    24234929.836
 125641858.609 6  97902837.53643  23908859.516                    23908870.410
 127904718.205 6  99666041.57943  24339460.727                    24339471.551
 126014112.621 6  98192973.67543  23979714.172                    23979725.191
 110042754.837 8  85747628.74746  20940439.289                    20940446.168
 114334690.692 7  89092002.37845  21757170.227                    21757179.270
 112852395.006 8  87936969.015 7  21475095.508                    21475103.801
 122210627.004 7  95229109.27044  23255905.500                    23255915.922
 106144679.563 8  82710169.24946  20198662.211                    20198670.199
 111869420.865 8  87170998.71445  21288046.320                    21288053.516
 11  8 11 17 18  0.0000000  0 11G06G10G28G16G11G19G03G07G08G13G23
 124513660.939 7  97023667.56144  23694164.477                    23694175.238
 127396322.506 6  99269956.95543  24242734.039                    24242745.602
 125580350.649 6  97854909.32943  23897155.469                    23897165.980
 127993493.788 6  99735217.31043  24356355.383                    24356365.102
 125934950.635 6  98131289.08343  23964649.938                    23964660.891
 110047352.760 8  85751211.54446  20941313.789                    20941320.969
 114409108.876 7  89149990.54745  21771330.883                    21771340.109
 112800711.643 8  87896696.268 7  21465260.508                    21465268.816
 122139389.577 7  95173599.63744  23242349.727                    23242359.195
 106177609.358 8  82735828.80546  20204928.398                    20204936.930
 111953519.914 8  87236530.37246  21304049.555                    21304057.219
 11  8 11 17 18 30.0000000  0 11G06G10G28G16G11G19G03G07G08G13G23
 124601235.123 6  97091907.13343  23710829.641                    23710839.746
 127437707.336 6  99302204.80043  24250609.109                    24250620.910
 125519063.631 6  97807153.32143  23885492.859                    23885503.137
 128082201.039 6  99804339.78543  24373235.977                    24373245.004
 125855776.812 6  98069595.26543  23949583.867                    23949595.000
 110052572.406 8  85755278.80746  20942307.594                    20942314.063
 114483983.796 7  89208334.61945  21785579.438                    21785588.699
 112749131.247 8  87856503.770 7  21455445.070                    21455453.754
 122068111.357 7  95118058.21844  23228785.969                    23228796.043
 106211125.096 8  82761944.93946  20211306.297                    20211314.895
 112038029.467 8  87302381.90545  21320131.547                    21320138.652
 11  8 11 17 19  0.0000000  0 11G06G10G28G16G11G19G03G07G08G13G23
 124689102.368 6  97160375.09344  23727549.742                    23727560.156
 127479406.102 6  99334697.23743  24258544.391                    24258555.355
 125457997.650 6  97759569.51844  23873872.281                    23873882.723
 128170838.747 6  99873408.06343  24390102.992                    24390112.289
 125776594.041 6  98007894.46243  23934515.898                    23934527.082
 110058413.373 7  85759830.22246  20943419.086                    20943425.617
 114559312.277 7  89267032.10545  21799913.500                    21799923.293
 112697654.693 8  87816392.176 7  21445649.703                    21445657.805
 121996792.762 7  95062485.32744  23215214.641                    23215223.879
 106245225.819 8  82788516.90346  20217795.070                    20217803.863
 112122946.980 8  87368551.32945  21336290.414                    21336298.305
 11  8 11 17 19 30.0000000  0 11G06G10G28G16G11G19G03G07G08G13G23
 124777260.404 6  97229069.60144  23744326.000                    23744336.414
 127521416.632 6  99367432.67243  24266538.344                    24266550.258
 125397152.564 6  97712157.84743  23862294.086                    23862304.219
 128259406.062 6  99942421.48643  24406957.805                    24406966.625
 125697405.246 6  97946188.94743  23919446.984                    23919457.992
 110064876.017 7  85764866.05446  20944648.773                    20944654.918
 114635091.820 7  89326081.05245  21814334.711                    21814343.809
 112646283.605 8  87776362.768 7  21435874.164                    21435882.297
 121925434.265 7  95006881.35044  23201635.484                    23201645.043
 106279911.136 8  82815544.40046  20224395.891                    20224404.332
 112208270.156 8  87435036.84945  21352527.070                    21352534.754
 11  8 11 17 20  0.0000000  0 11G06G10G28G16G11G19G03G07G08G13G23
 124865706.481 6  97297988.56344  23761156.523                    23761166.859
 127563736.276 6  99400408.90643  24274591.313                    24274603.711
 125336527.952 7  97664918.01443  23850757.617                    23850767.344
 128347901.726 6 100011379.10243  24423797.289                    24423807.230
 125618213.040 6  97884480.77343  23904377.102                    23904388.289
 110071959.683 7  85770385.79546  20945997.078                    20946003.313
 114711319.875 7  89385479.49745  21828840.359                    21828849.691
 112595019.021 8  87736416.351 7  21426118.477                    21426126.770
 121854036.679 7  94951246.91344  23188048.609                    23188058.699
 106315179.557 7  82843026.26946  20231107.078                    20231115.648
 112293996.346 8  87501836.41045  21368840.461                    21368847.898
 11  8 11 17 20 30.0000000  0 11G06G10G28G16G11G19G03G07G08G13G23
 124954438.062 6  97367130.03144  23778042.375                    23778052.207
 127606362.414 6  99433623.98943  24282703.055                    24282714.699
 125276124.065 6  97617850.14344  23839262.156                    23839273.422
 128436324.838 6 100080280.14443  24440623.000                    24440633.641
 125539020.072 6  97822772.02143  23889306.680                    23889318.027
 110079664.555 8  85776389.59646  20947462.602                    20947469.539
 114787993.550 7  89445225.16845  21843430.531                    21843440.109
 112543862.377 8  87696554.034 7  21416383.539                    21416391.824
 121782600.478 7  94895582.38144  23174455.000                    23174464.641
 106351030.783 8  82870962.26046  20237929.648                    20237937.801
 112380123.201 8  87568948.16945  21385229.492                    21385237.379
 11  8 11 17 21  0.0000000  0 11G06G10G28G16G11G19G03G07G08G13G23
 125043452.656 6  97436492.01944  23794980.961                    23794990.754
 127649292.641 6  99467076.04243  24290872.820                    24290884.523
 125215940.647 6  97570954.07143  23827809.945                    23827820.297
 128524674.367 6 100149123.85843  24457435.719                    24457445.777
 125459829.497 6  97761065.16043  23874236.992                    23874248.250
 110087990.182 8  85782877.10046  20949046.836                    20949053.551
 114865110.386 7  89505316.15245  21858105.734                    21858114.875
 112492815.198 8  87656777.030 7  21406669.609                    21406678.477
 121711126.223 7  94839888.20244  23160854.031                    23160863.305
 106387463.760 8  82899351.56646  20244862.438                    20244870.547
 112466648.404 8  87636370.33945  21401694.875                    21401702.398
 11  8 11 17 21 30.0000000  0 11G06G10G28G16G11G19G03G07G08G13G23
 125132747.426 7  97506072.32544  23811973.438                    23811983.324
 127692524.072 6  99500762.76343  24299099.383                    24299110.793
 125155977.133 6  97524229.35443  23816399.031                    23816409.125
 128612949.216 6 100217909.39043  24474233.883                    24474244.273
 125380643.761 6  97699362.05443  23859168.867                    23859180.484
 110096936.063 7  85789847.90946  20950749.570                    20950756.184
 114942667.414 7  89565750.15045  21872864.398                    21872873.684
 112441878.416 8  87617086.044 7  21396976.500                    21396985.094
 121639614.626 7  94784164.93244  23147245.430                    23147254.969
 106424477.436 8  82928193.36046  20251905.883                    20251914.430
 112553569.201 8  87704100.74645  21418235.563                    21418242.766
 11  8 11 17 22  0.0000000  0 11G06G10G28G16G11G19G03G07G08G13G23
 125222320.345 6  97575869.36243  23829017.859                    23829028.672
 127736054.703 6  99534682.64043  24307383.352                    24307395.039
 125096233.935 6  97477676.28044  23805029.977                    23805040.836
 128701148.578 6 100286636.11343  24491017.586                    24491027.609
 125301466.203 6  97637665.32543  23844101.422                    23844113.113
 110106502.757 7  85797302.47746  20952570.148                    20952576.625
 115020662.218 7  89626525.26145  21887705.820                    21887715.789
 112391053.735 8  87577482.408 7  21387305.289                    21387313.723
 121568066.652 7  94728413.29544  23133629.930                    23133639.895
 106462071.551 8  82957487.44846  20259060.195                    20259068.293
 112640883.315 8  87772137.64745  21434851.273                    21434858.656
 11  8 11 17 22 30.0000000  0 11G06G10G28G16G11G19G03G07G08G13G23
 125312168.723 7  97645881.05543  23846115.508                    23846125.738
 127779881.897 6  99568833.62543  24315723.789                    24315734.637
 125036710.580 7  97431294.53243  23793703.703                    23793713.496
 128789271.620 6 100355303.33643  24507787.117                    24507797.133
 125222299.067 6  97575976.73044  23829036.641                    23829047.734
 110116689.350 7  85805240.08446  20954508.281                    20954514.949
 115099091.994 7  89687639.32745  21902630.945                    21902640.172
 112340342.441 8  87537967.125 7  21377655.180                    21377663.293
 121496482.886 7  94672633.78344  23120008.523                    23120018.453
 106500244.922 8  82987232.90446  20266324.344                    20266332.500
 112728588.163 8  87840479.01345  21451540.781                    21451547.672
 11  8 11 17 23  0.0000000  0 11G06G10G28G16G11G19G03G07G08G13G23
 125402290.197 6  97716105.56143  23863266.063                    23863275.293
 127824003.118 6  99603213.72943  24324118.984                    24324130.359
 124977407.376 6  97385084.32643  23782418.742                    23782428.539
 128877317.345 6 100423910.29843  24524541.727                    24524550.879
 125143145.571 6  97514298.77944  23813974.008                    23813985.207
 110127495.995 8  85813660.83446  20956564.805                    20956571.652
 115177954.261 7  89749090.41645  21917638.109                    21917647.441
 112289746.088 8  87498541.408 7  21368026.734                    21368035.012
 121424863.903 7  94616826.80744  23106380.117                    23106389.684
 106538997.066 8  83017429.35146  20273698.445                    20273706.867
 112816681.721 7  87909123.26045  21468304.602                    21468311.969
 11  8 11 17 23 30.0000000  0 11G06G10G28G16G11G19G03G07G08G13G23
 125492682.100 6  97786540.77843  23880466.414                    23880476.375
 127868415.632 6  99637820.82343  24332571.156                    24332581.934
 124918323.823 6  97339045.25743  23771175.086                    23771185.227
 128965284.757 6 100492456.26343  24541281.859                    24541291.215
 125064008.529 6  97452633.60444  23798914.961                    23798925.633
 110138922.155 8  85822564.33046  20958739.086                    20958745.961
 115257246.380 7  89810876.43644  21932726.836                    21932736.152
 112239265.815 8  87459206.150 7  21358421.086                    21358429.434
 121353210.311 7  94560992.87344  23092744.898                    23092754.383
 106578326.675 8  83048075.77846  20281182.680                    20281191.000
 112905160.975 8  87978068.05945  21485141.789                    21485149.109
 11  8 11 17 24  0.0000000  0 12G06G10G28G16G01G11G19G03G07G08G13G23
 125583341.645 6  97857184.54843  23897718.516                    23897728.625
 127913116.672 6  99672652.73143  24341076.938                    24341088.629
 124859459.747 6  97293177.22843  23759972.914                    23759983.516
 129053172.740 6 100560940.32742  24558006.383                    24558015.844
 131302900.64915                  24986125.211
 124984890.227 6  97390983.08144  23783858.734                    23783870.043
 110150967.331 7  85831950.17746  20961031.219                    20961038.129
 115336965.327 7  89872995.06845  21947896.867                    21947906.172
 112188903.177 8  87419962.513 7  21348837.313                    21348845.891
 121281523.326 7  94505132.91944  23079103.016                    23079112.254
 106618232.421 8  83079171.13346  20288776.430                    20288784.840
 112994023.178 8  88047311.25345  21502051.711                    21502059.305
 11  8 11 17 24 30.0000000  0 12G06G10G28G16G01G11G19G03G07G08G13G23
 125674266.383 6  97928034.96643  23915021.094                    23915030.926
 127958103.875 6  99707707.65243  24349637.531                    24349648.910
 124800814.954 6  97247480.03743  23748813.063                    23748823.910
 129140980.355 6 100629361.79043  24574715.359                    24574725.449
 131249657.403 5 102272579.48216  24975993.227                    24976008.191
 124905794.029 7  97329349.76143  23768807.594                    23768818.625
 110163631.367 7  85841818.24946  20963441.133                    20963448.129
 115417108.477 7  89935444.25444  21963146.953                    21963156.816
 112138659.431 8  87380811.561 7  21339276.094                    21339284.438
 121209803.248 7  94449247.17844  23065454.984                    23065464.520
 106658713.520 8  83110714.82346  20296479.797                    20296488.035
 113083266.206 8  88116851.19745  21519034.156                    21519041.570
 11  8 11 17 25  0.0000000  0 12G06G10G28G16G01G11G19G03G07G08G13G23
 125765453.823 6  97999090.06743  23932372.844                    23932383.941
 128003374.627 6  99742983.46043  24358251.977                    24358264.355
 124742389.115 6  97201953.45843  23737696.039                    23737705.914
 129228706.731 6 100697719.97243  24591409.648                    24591419.145
 131196581.348 6 102231221.542 6  24965892.930                    24965908.254
 124826722.588 6  97267735.70243  23753761.188                    23753771.988
 110176913.538 8  85852167.99246  20965968.695                    20965975.746
 115497673.348 7  89998222.05545  21978478.656                    21978487.973
 112088535.704 8  87341754.122 7  21329737.891                    21329746.102
 121138050.964 7  94393336.32944  23051801.242                    23051810.852
 106699768.917 8  83142706.01846  20304292.352                    20304300.766
 113172887.674 8  88186686.04245  21536088.344                    21536095.520
 11  8 11 17 25 30.0000000  0 12G06G10G28G16G01G11G19G03G07G08G13G23
 125856901.411 6  98070347.87143  23949775.313                    23949785.480
 128048926.471 6  99778478.33443  24366920.234                    24366932.711
 124684182.044 6  97156597.34543  23726618.680                    23726629.113
 129316350.959 6 100766014.15343  24608087.453                    24608096.656
 131143674.776 5 102189995.730 6  24955825.258                    24955840.051
 124747678.859 6  97206143.25843  23738718.961                    23738730.148
 110190813.471 8  85862999.09546  20968613.758                    20968620.137
 115578656.952 7  90061326.14444  21993889.148                    21993898.742
 112038533.836 8  87302791.642 7  21320222.633                    21320230.871
 121066267.314 7  94337401.05444  23038140.750                    23038150.750
 106741397.378 8  83175143.75746  20312213.891                    20312222.145
 113262884.619 8  88256813.44145  21553214.398                    21553221.809
 11  8 11 17 26  0.0000000  0 12G06G10G28G16G01G11G19G03G07G08G13G23
 125948606.630 6  98141806.41943  23967226.047                    23967237.129
 128094756.574 6  99814190.04243  24375642.477                    24375653.828
 124626193.607 6  97111411.56143  23715584.344                    23715594.477
 129403912.256 6 100834243.66742  24624750.023                    24624759.594
 131090940.348 5 102148903.983 6  24945789.867                    24945805.234
 124668665.568 6  97144574.53343  23723683.188                    23723694.652
 110205330.760 8  85874311.26746  20971376.141                    20971383.164
 115660056.560 7  90124754.40644  22009378.875                    22009388.070
 111988655.126 8  87263925.138 7  21310731.125                    21310739.277
 120994453.324 7  94281442.11444  23024475.219                    23024484.699
 106783598.194 8  83208027.47746  20320244.719                    20320252.969
 113353254.748 8  88327231.64945  21570411.727                    21570418.402
 11  8 11 17 26 30.0000000  0 12G06G10G28G16G01G11G19G03G07G08G13G23
 126040567.193 6  98213463.93643  23984725.766                    23984736.035
 128140862.432 6  99850116.63943  24384415.664                    24384427.902
 124568423.730 6  97066396.14243  23704591.719                    23704601.707
 129491390.180 6 100902408.22743  24641396.734                    24641405.750
 131038381.079 5 102107948.774 6  24935788.594                    24935803.910
 124589685.945 6  97083032.06043  23708653.523                    23708665.043
 110220465.130 8  85886104.26846  20974256.352                    20974263.031
 115741869.595 7  90188504.82644  22024947.594                    22024956.785
 111938901.261 8  87225155.909 7  21301263.328                    21301271.633
 120922609.590 7  94225460.03144  23010803.922                    23010813.406
 106826370.435 8  83241356.47546  20328383.914                    20328392.227
 113443995.434 8  88397938.59145  21587678.461                    21587686.336
 11  8 11 17 27  0.0000000  0 12G06G10G28G16G01G11G19G03G07G08G13G23
 126132780.068 6  98285318.07543  24002273.672                    24002284.082
 128187241.279 6  99886255.90543  24393241.133                    24393253.508
 124510871.958 6  97021550.63743  23693639.563                    23693649.590
 129578782.881 6 100970506.41042  24658027.172                    24658035.906
 130985999.555 5 102067132.035 6  24925820.594                    24925835.527
 124510742.574 6  97021517.79743  23693631.484                    23693642.250
 110236215.681 8  85898377.42546  20977253.500                    20977260.465
 115824092.941 7  90252574.97944  22040594.391                    22040603.461
 111889273.365 8  87186484.842 7  21291819.195                    21291827.680
 120850736.557 7  94169455.09344  22997127.086                    22997136.613
 106869712.393 8  83275129.40346  20336631.531                    20336639.871
 113535103.992 7  88468932.20145  21605016.148                    21605023.625
 11  8 11 17 27 30.0000000  0 12G06G10G28G16G01G11G19G03G07G08G13G23
 126225243.158 6  98357367.19643  24019868.719                    24019878.711
 128233890.754 7  99922606.07543  24402118.563                    24402130.777
 124453538.489 6  96976875.26643  23682728.930                    23682739.352
 129666090.586 6 101038538.31043  24674640.930                    24674649.539
 130933798.53815 102026455.92016  24915887.219                    24915901.527
 124431838.170 6  96960033.94743  23678616.305                    23678627.531
 110252581.990 8  85911130.38946  20980368.070                    20980374.965
 115906724.257 7  90316963.02344  22056317.977                    22056327.652
 111839773.081 8  87147913.202 7  21282399.891                    21282408.406
 120778835.131 7  94113428.03544  22983444.023                    22983454.262
 106913623.389 8  83309345.73546  20344987.805                    20344996.242
 113626578.014 8  88540210.58345  21622423.273                    21622430.902
 11  8 11 17 28  0.0000000  0 12G06G10G28G16G01G11G19G03G07G08G13G23
 126317953.464 6  98429608.92343  24037510.680                    24037520.770
 128280808.011 6  99959164.89143  24411046.391                    24411058.117
 124396422.598 6  96932369.40444  23671860.195                    23671870.371
 129753311.435 6 101106502.54643  24691238.344                    24691247.594
 130881780.405 6 101985922.367 6  24905988.516                    24906003.676
 124352975.589 6  96898582.63043  23663609.375                    23663620.570
 110269563.142 8  85924362.46746  20983599.188                    20983606.203
 115989760.567 7  90381666.65644  22072119.359                    22072128.965
 111790401.392 8  87109441.770 7  21273004.672                    21273013.180
 120706906.322 7  94057379.64044  22969756.898                    22969766.277
 106958101.880 8  83344004.27246  20353451.367                    20353460.195
 113718414.490 8  88611771.39245  21639899.180                    21639906.641
 11  8 11 17 28 30.0000000  0 12G06G10G28G16G01G11G19G03G07G08G13G23
 126410908.583 6  98502041.45143  24055199.664                    24055210.141
 128327990.451 6  99995930.37843  24420025.117                    24420036.121
 124339524.087 7  96888032.98644  23661033.289                    23661043.020
 129840444.909 6 101174398.67343  24707819.117                    24707829.047
 130829948.230 6 101945533.698 6  24896125.195                    24896140.008
 124274158.023 6  96837166.40143  23648610.648                    23648621.469
 110287158.926 7  85938073.46346  20986947.781                    20986954.352
 116073199.399 7  90446683.95044  22087997.375                    22088007.129
 111741160.198 8  87071072.017 7  21263634.336                    21263642.563
 120634951.118 7  94001310.69144  22956063.992                    22956074.016
 107003146.820 8  83379104.19746  20362023.523                    20362031.773
 113810610.865 8  88683612.64145  21657443.398                    21657451.129
 11  8 11 17 29  0.0000000  0 12G06G10G28G16G01G11G19G03G07G08G13G23
 126504106.105 7  98574662.83944  24072934.758                    24072944.426
 128375435.272 6 100032900.28043  24429054.594                    24429065.559
 124282842.713 6  96843865.73744  23650246.625                    23650257.293
 129927490.228 6 101242226.24243  24724383.773                    24724392.523
 130778304.454 6 101905291.821 6  24886297.211                    24886311.594
 124195388.210 6  96775787.42143  23633620.813                    23633632.066
 110305368.706 8  85952262.90546  20990413.016                    20990419.246
 116157037.633 7  90512012.44045  22103951.453                    22103960.879
 111692050.700 8  87032804.889 7  21254288.859                    21254297.297
 120562970.249 7  93945221.73244  22942366.156                    22942376.145
 107048757.005 8  83414644.57146  20370702.281                    20370711.309
 113903164.983 8  88755732.65545  21675056.219                    21675063.688
 11  8 11 17 29 30.0000000  0 12G06G10G28G16G01G11G19G03G07G08G13G23
 126597543.246 6  98647470.93343  24090715.367                    24090725.016
 128423139.647 7 100070072.43943  24438132.281                    24438143.469
 124226378.052 7  96799867.38844  23639501.813                    23639511.926
 130014446.611 6 101309984.41742  24740931.273                    24740941.168
 130726852.379 6 101865199.305 6  24876505.852                    24876521.590
 124116669.060 7  96714447.88543  23618640.547                    23618652.328
 110324191.603 7  85966930.09946  20993994.656                    20994001.660
 116241272.333 7  90577649.87444  22119980.711                    22119990.320
 111643074.480 8  86994641.605 7  21244969.367                    21244977.855
 120490964.419 7  93889113.34644  22928664.156                    22928674.059
 107094931.113 8  83450624.37146  20379489.086                    20379498.215
 113996073.945 8  88828129.16445  21692736.188                    21692744.125
 11  8 11 17 30  0.0000000  0 12G06G10G28G16G01G11G19G03G07G08G13G23
 126691217.605 6  98720463.86643  24108540.813                    24108550.797
 128471101.403 6 100107445.12543  24447258.914                    24447270.707
 124170129.769 7  96756037.61744  23628798.227                    23628808.211
 130101313.109 6 101377672.51842  24757461.125                    24757471.172
 130675594.182 5 101825257.838 6  24866752.188                    24866767.281
 124038003.691 6  96653150.29443  23603671.531                    23603682.598
 110343626.860 8  85982074.46146  20997693.078                    20997699.773
 116325900.606 7  90643593.99344  22136084.547                    22136094.496
 111594233.076 8  86956583.373 7  21235675.070                    21235683.516
 120418934.490 7  93832986.16344  22914957.633                    22914967.070
 107141667.772 8  83487042.51446  20388382.930                    20388391.805
 114089334.862 8  88900799.93545  21710483.258                    21710491.031
 11  8 11 17 30 30.0000000  0 12G06G10G28G16G01G11G19G03G07G08G13G23
 126785126.587 6  98793639.65843  24126411.469                    24126421.352
 128519317.591 6 100145016.15143  24456433.531                    24456445.656
 124114098.008 7  96712376.57744  23618135.938                    23618145.738
 130188089.406 6 101445290.35543  24773974.141                    24773983.438
 130624533.026 5 101785469.945 6  24857034.977                    24857050.938
 123959394.757 7  96591896.67143  23588713.055                    23588723.898
 110363673.660 8  85997695.34246  21001508.031                    21001515.012
 116410919.613 7  90709842.55044  22152263.453                    22152273.445
 111545528.038 8  86918631.407 7  21226406.961                    21226415.344
 120346881.621 7  93776841.09844  22901245.992                    22901255.809
 107188965.788 8  83523898.08346  20397383.352                    20397392.223
 114182945.303 8  88973743.06545  21728296.414                    21728304.652
 11  8 11 17 31  0.0000000  0 12G06G10G28G16G01G11G19G03G07G08G13G23
 126879267.449 6  98866996.10243  24144325.172                    24144335.652
 128567785.528 6 100182783.23743  24465657.477                    24465669.066
 124058281.769 7  96668883.48743  23607513.945                    23607524.129
 130274773.782 6 101512836.62543  24790469.883                    24790479.559
 130573672.16815 101745837.32716  24847356.906                    24847371.016
 123880845.089 7  96530689.19143  23573765.227                    23573776.121
 110384331.266 8  86013792.18646  21005439.063                    21005446.090
 116496326.630 7  90776393.45744  22168515.672                    22168525.125
 111496960.480 8  86880786.595 7  21217164.453                    21217172.875
 120274806.162 7  93720678.44244  22887530.727                    22887540.246
 107236823.731 8  83561189.96346  20406490.898                    20406499.371
 114276902.440 7  89046956.34145  21746176.234                    21746183.891
 11  8 11 17 31 30.0000000  0 12G06G10G28G16G01G11G19G03G07G08G13G23
 126973637.827 6  98940531.44743  24162283.453                    24162294.012
 128616502.666 6 100220744.55843  24474928.250                    24474939.656
 124002681.095 7  96625558.32944  23596933.406                    23596943.859
 130361366.012 6 101580311.06143  24806947.852                    24806957.469
 130523012.61416 101706362.37016  24837717.133                    24837731.570
 123802357.583 7  96469530.21343  23558830.258                    23558840.793
 110405599.119 8  86030364.53746  21009486.188                    21009493.180
 116582119.105 7  90843244.72644  22184841.891                    22184850.793
 111448532.257 8  86843050.320 7  21207948.773                    21207957.465
 120202708.885 7  93664498.78645  22873810.984                    22873820.430
 107285240.359 8  83598917.16846  20415704.313                    20415712.699
 114371203.492 8  89120437.60145  21764120.969                    21764128.676
 11  8 11 17 32  0.0000000  0 12G06G10G28G16G01G11G19G03G07G08G13G23
 127068235.017 6  99014243.48543  24180284.797                    24180295.543
 128665465.689 6 100258897.49543  24484244.883                    24484256.398
 123947295.696 7  96582400.95144  23586393.578                    23586404.129
 130447865.122 6 101647712.85443  24823407.969                    24823417.672
 130472557.937 5 101667047.055 6  24828115.102                    24828130.656
 123723935.063 7  96408421.82343  23543905.570                    23543917.262
 110427475.936 7  86047411.40746  21013649.258                    21013656.035
 116668293.885 7  90910393.86744  22201240.625                    22201249.484
 111400244.333 8  86805423.389 7  21198760.383                    21198768.961
 120130590.818 7  93608302.93044  22860087.516                    22860097.031
 107334213.983 8  83637078.40246  20425023.617                    20425032.055
 114465846.061 8  89194184.98345  21782131.172                    21782138.402
 11  8 11 17 32 30.0000000  0 12G06G10G28G16G01G11G19G03G07G08G13G23
 127163056.647 6  99088130.43443  24198329.063                    24198339.934
 128714672.112 5 100297240.06343  24493608.266                    24493620.836
 123892124.980 7  96539410.83444  23575894.945                    23575905.051
 130534270.688 6 101715041.85743  24839850.172                    24839860.270
 130422310.890 6 101627893.526 6  24818553.406                    24818568.625
 123645580.667 7  96347366.53143  23528996.031                    23529007.113
 110449961.180 8  86064932.37146  21017927.953                    21017934.750
 116754848.116 7  90977838.67844  22217710.711                    22217720.441
 111352098.931 8  86767907.502 7  21189598.313                    21189606.660
 120058453.257 7  93552091.87344  22846360.023                    22846369.418
 107383743.388 8  83675672.71846  20434448.789                    20434457.332
 114560827.395 8  89268196.32845  21800205.234                    21800213.184
 11  8 11 17 33  0.0000000  0 12G06G10G28G16G01G11G19G03G07G08G13G23
 127258100.187 6  99162190.30543  24216416.063                    24216425.969
 128764119.658 6 100335770.53343  24503017.953                    24503031.039
 123837169.018 7  96496588.05544  23565437.164                    23565447.434
 130620581.860 6 101782297.29743  24856274.578                    24856284.746
 130372274.561 6 101588904.233 6  24809032.492                    24809046.945
 123567297.511 7  96286366.78143  23514098.578                    23514109.609
 110473054.233 7  86082926.95046  21022322.211                    21022329.164
 116841779.267 7  91045577.17244  22234253.555                    22234262.941
 111304097.382 8  86730503.703 7  21180464.188                    21180472.203
 119986296.960 7  93495866.21144  22832628.875                    22832638.262
 107433827.665 7  83714699.40046  20443979.211                    20443987.953
 114656144.697 8  89342469.46945  21818343.898                    21818351.531
 11  8 11 17 33 30.0000000  0 12G06G10G28G16G01G11G19G03G07G08G13G23
 127353362.891 6  99236420.93343  24234542.914                    24234553.383
 128813805.532 6 100374486.67443  24512473.047                    24512486.512
 123782427.135 7  96453932.08444  23555019.797                    23555029.953
 130706797.661 5 101849478.35742  24872680.906                    24872690.852
 130322451.206 6 101550080.890 6  24799550.734                    24799565.793
 123489088.124 7  96225424.50343  23499216.242                    23499226.930
 110496753.767 7  86101394.11546  21026832.391                    21026839.250
 116929084.598 7  91113607.23844  22250867.141                    22250876.441
 111256241.073 8  86693213.069 7  21171357.297                    21171365.363
 119914123.040 7  93439626.82444  22818894.750                    22818904.098
 107484464.800 8  83754156.87046  20453615.492                    20453623.762
 114751795.222 8  89417002.25345  21836545.672                    21836553.355
 11  8 11 17 34  0.0000000  0 12G06G10G28G16G01G11G19G03G07G08G13G23
 127448842.335 6  99310820.44443  24252711.922                    24252722.902
 128863726.965 6 100413386.40743  24521972.438                    24521985.051
 123727898.914 7  96411442.62244  23544643.250                    23544653.770
 130792917.510 5 101916584.66042  24889069.523                    24889078.496
 130272843.414 5 101511425.535 6  24790110.570                    24790125.762
 123410955.879 7  96164542.31544  23484347.891                    23484358.996
 110521059.126 8  86120333.35946  21031457.164                    21031464.320
 117016760.994 7  91181926.43744  22267551.383                    22267560.949
 111208531.633 8  86656036.887 7  21162278.547                    21162286.680
 119841932.091 7  93383374.16144  22805157.227                    22805166.684
 107535653.541 8  83794044.16746  20463356.477                    20463364.883
 114847776.431 8  89491792.71645  21854810.539                    21854818.137
 11  8 11 17 34 30.0000000  0 11G06G10G28G01G11G19G03G07G08G13G23
 127544536.001 6  99385386.94643  24270922.438                    24270932.145
 128913881.172 6 100452467.51743  24531516.852                    24531529.375
 123673584.337 7  96369119.60344  23534307.992                    23534318.289
 130223454.097 6 101472940.426 6  24780712.148                    24780727.762
 123332903.331 7  96103722.21943  23469494.930                    23469505.984
 110545968.994 7  86139743.63746  21036197.875                    21036204.891
 117104805.499 7  91250532.47644  22284305.758                    22284314.766
 111160970.637 8  86618976.375 7  21153228.117                    21153236.770
 119769725.473 7  93327109.30544  22791417.438                    22791426.402
 107587392.410 8  83834360.13946  20473201.938                    20473210.430
 114944085.776 8  89566838.87145  21873137.227                    21873145.035
 11  8 11 17 35  0.0000000  0 11G06G10G28G01G11G19G03G07G08G13G23
 127640441.507 6  99460118.46043  24289171.789                    24289183.012
 128964265.395 6 100491727.86243  24541104.828                    24541117.527
 123619483.069 7  96326962.82143  23524012.500                    23524022.934
 130174286.243 6 101434627.916 6  24771355.914                    24771370.977
 123254933.693 7  96042966.74143  23454657.539                    23454668.539
 110571482.896 8  86159624.59346  21041052.695                    21041059.359
 117193215.332 7  91319423.18144  22301129.852                    22301139.043
 111113559.837 8  86582032.899 7  21144205.844                    21144214.383
 119697504.248 7  93270833.04544  22777673.820                    22777683.313
 107639679.702 8  83875103.44446  20483151.797                    20483160.328
 115040720.143 8  89642138.29145  21891526.258                    21891534.094
 11  8 11 17 35 30.0000000  0 11G06G10G28G01G11G19G03G07G08G13G23
 127736556.055 6  99535012.85943  24307462.391                    24307473.047
 129014876.922 5 100531165.29143  24550735.750                    24550748.570
 123565594.188 7  96284971.53143  23513757.430                    23513768.277
 130125342.54716 101396489.53516  24762042.023                    24762057.180
 123177049.942 7  95982278.21144  23439837.563                    23439847.406
 110597599.679 8  86179975.34546  21046022.438                    21046029.352
 117281987.926 7  91388596.53844  22318022.836                    22318032.203
 111066300.603 8  86545207.530 7  21135213.000                    21135220.953
 119625269.171 7  93214546.00344  22763927.586                    22763937.117
 107692513.795 8  83916272.83146  20493205.680                    20493214.168
 115137676.669 8  89717688.72845  21909976.813                    21909984.629
 11  8 11 17 36  0.0000000  0 11G06G10G28G01G11G19G03G07G08G13G23
 127832877.101 6  99610068.17743  24325791.445                    24325802.148
 129065712.794 6 100570777.55543  24560409.734                    24560422.809
 123511917.679 7  96243145.74143  23503543.031                    23503553.758
 130076624.601 6 101358528.129 6  24752771.625                    24752786.129
 123099255.016 7  95921658.89243  23425033.141                    23425044.375
 110624318.095 7  86200794.88946  21051106.445                    21051114.043
 117371120.103 7  91458050.11344  22334984.273                    22334993.391
 111019194.252 8  86508501.292 7  21126248.922                    21126257.137
 119553021.139 7  93158248.87444  22750179.398                    22750188.996
 107745893.149 8  83957867.09846  20503363.516                    20503371.859
 115234952.763 8  89793488.20145  21928487.680                    21928496.055
 11  8 11 17 36 30.0000000  0 11G06G10G28G01G11G19G03G07G08G13G23
 127929402.210 6  99685282.52343  24344160.367                    24344171.055
 129116770.540 6 100610562.72943  24570126.266                    24570138.289
 123458453.191 7  96201485.16943  23493369.508                    23493379.672
 130028136.471 6 101320745.285 6  24743545.000                    24743558.965
 123021551.809 7  95861111.06044  23410245.977                    23410257.035
 110651637.405 7  86222082.67246  21056305.461                    21056312.832
 117460609.277 7  91527781.88244  22352013.570                    22352023.070
 110972242.997 8  86471915.926 7  21117314.336                    21117322.695
 119480761.442 7  93101942.63444  22736428.586                    22736438.188
 107799816.623 8  83999885.34046  20513624.992                    20513633.406
 115332546.042 8  89869534.81245  21947059.727                    21947067.133
 11  8 11 17 37  0.0000000  0 11G06G10G28G01G11G19G03G07G08G13G23
 128026128.612 6  99760653.72243  24362566.250                    24362576.820
 129168047.434 6 100650518.64743  24579883.336                    24579896.086
 123405199.986 7  96159989.24844  23483235.336                    23483246.105
 129979879.756 6 101283142.790 6  24734361.648                    24734375.063
 122943943.213 7  95800636.93044  23395477.758                    23395488.922
 110679556.143 7  86243837.54446  21061618.414                    21061625.406
 117550452.513 7  91597789.56044  22369109.781                    22369119.609
 110925447.610 8  86435452.005 7  21108409.188                    21108417.563
 119408490.630 7  93045627.74545  22722676.117                    22722685.484
 107854282.483 8  84042326.23946  20523989.516                    20523998.578
 115430453.425 7  89945826.19345  21965690.273                    21965698.453
 11  8 11 17 37 30.0000000  0 11G06G10G28G01G11G19G03G07G08G13G23
 128123054.110 6  99836180.04443  24381010.398                    24381021.531
 129219540.570 6 100690643.06043  24589682.531                    24589695.258
 123352157.756 7  96118657.72544  23473142.086                    23473151.859
 129931858.181 6 101245723.504 6  24725223.313                    24725238.191
 122866432.292 7  95740238.90044  23380728.273                    23380739.074
 110708073.378 7  86266058.78246  21067044.797                    21067051.871
 117640646.795 7  91668070.77144  22386273.734                    22386282.668
 110878810.285 8  86399111.243 7  21099534.469                    21099542.773
 119336210.207 7  92989305.37145  22708921.781                    22708931.137
 107909289.022 8  84085188.43946  20534456.844                    20534465.449
 115528672.090 7  90022360.12445  21984380.906                    21984389.332
 11  8 11 17 38  0.0000000  0 11G06G10G28G01G11G19G03G07G08G13G23
 128220175.902 6  99911859.30943  24399492.164                    24399502.578
 129271247.424 6 100730934.01543  24599522.125                    24599534.875
 123299325.895 7  96077490.10144  23463088.711                    23463098.195
 129884073.528 6 101208488.855 6  24716130.008                    24716143.945
 122789021.927 7  95679919.23043  23365997.625                    23366008.059
 110737187.839 7  86288745.38346  21072585.102                    21072592.043
 117731189.057 7  91738623.15544  22403503.313                    22403513.082
 110832332.509 8  86362894.815 7  21090689.969                    21090698.277
 119263920.843 7  92932976.03444  22695165.156                    22695174.434
 107964834.017 8  84128470.22246  20545026.523                    20545035.246
 115627199.248 8  90099134.45045  22003130.250                    22003138.035
 11  8 11 17 38 30.0000000  0 11G06G10G28G01G11G19G03G07G08G13G23
 128317491.608 6  99987689.70743  24418011.633                    24418021.148
 129323165.096 6 100771389.20943  24609402.578                    24609414.879
 123246704.531 7  96036486.49844  23453074.820                    23453084.867
 129836528.796 6 101171441.127 6  24707081.508                    24707096.406
 122711715.207 7  95619680.31744  23351286.734                    23351296.953
 110766898.620 8  86311896.66046  21078239.078                    21078245.219
 117822076.719 7  91809444.70544  22420798.469                    22420807.918
 110786015.986 8  86326804.026 7  21081876.305                    21081884.551
 119191623.737 7  92876640.65245  22681407.914                    22681416.621
 108020916.279 8  84172170.64746  20555698.758                    20555707.340
 115726032.249 7  90176147.08645  22021937.313                    22021945.418
 11  8 11 17 39  0.0000000  0 11G06G10G28G01G11G19G03G07G08G13G23
 128414998.278 6 100063668.86643  24436565.203                    24436576.027
 129375290.558 6 100812006.36243  24619321.141                    24619333.488
 123194292.601 7  95995646.11244  23443101.969                    23443111.152
 129789226.190 6 101134582.122 6  24698081.523                    24698094.891
 122634514.921 7  95559524.33644  23336595.359                    23336606.441
 110797204.204 8  86335511.41946  21084005.781                    21084012.906
 117913306.562 7  91880532.88344  22438158.461                    22438168.824
 110739861.664 8  86290839.641 7  21073093.469                    21073101.398
 119119319.697 7  92820299.89044  22667648.555                    22667657.914
 108077533.896 8  84216288.22446  20566473.047                    20566481.605
 115825168.023 7  90253395.65545  22040802.500                    22040810.629
 11  8 11 17 39 30.0000000  0 11G06G10G28G01G11G19G03G07G08G13G23
 128512693.951 6 100139795.31543  24455157.133                    24455167.488
 129427621.372 6 100852783.54043  24629279.977                    24629292.496
 123142089.855 7  95954968.72944  23433167.164                    23433177.074
 129742168.981 6 101097914.319 6  24689126.023                    24689139.633
 122557424.457 6  95499453.91843  23321925.336                    23321936.004
 110828103.591 7  86359588.87046  21089885.672                    21089892.477
 118004876.357 7  91951885.96144  22455584.203                    22455593.785
 110693871.917 8  86255003.483 7  21064342.367                    21064350.160
 119047009.920 7  92763954.65645  22653888.195                    22653897.625
 108134685.618 8  84260821.99346  20577348.453                    20577357.016
 115924604.081 8  90330878.20645  22059724.672                    22059732.680
 11  8 11 17 40  0.0000000  0 11G06G10G28G01G11G19G03G07G08G13G23
 128610575.949 6 100216066.93143  24473783.469                    24473793.664
 129480154.713 6 100893718.50243  24639276.422                    24639289.051
 123090096.049 7  95914454.14044  23423272.734                    23423282.945
 129695359.31016 101061439.37216  24680218.086                    24680232.348
 122480446.411 6  95439471.09943  23307276.844                    23307287.590
 110859595.461 8  86384128.00646  21095879.094                    21095885.434
 118096782.798 7  92023501.34144  22473073.023                    22473082.711
 110648048.018 8  86219296.571 7  21055621.633                    21055630.098
 118974695.736 7  92707605.97745  22640127.156                    22640136.668
 108192369.603 8  84305770.50846  20588325.625                    20588333.863
 116024337.675 7  90408592.60745  22078703.305                    22078711.230
 11  8 11 17 40 30.0000000  0 11G06G10G28G01G11G19G03G07G08G13G23
 128708641.843 6 100292481.86443  24492445.000                    24492455.137
 129532887.697 6 100934809.05743  24649311.016                    24649323.855
 123038310.962 7  95874102.20344  23413419.203                    23413428.945
 129648800.532 6 101025159.897 6  24671358.359                    24671372.754
 122403584.202 7  95379578.53143  23292650.430                    23292660.898
 110891678.799 8  86409128.02246  21101983.766                    21101990.719
 118189023.213 7  92095376.99044  22490626.391                    22490635.531
 110602392.178 8  86183720.610 7  21046933.719                    21046941.703
 118902378.723 7  92651255.08544  22626365.883                    22626375.180
 108250584.325 8  84351132.59446  20599403.336                    20599411.844
 116124366.046 7  90486536.69745  22097738.117                    22097746.453
 11  8 11 17 41  0.0000000  0 11G06G10G28G01G11G19G03G07G08G13G23
 128806888.951 6 100369038.00243  24511140.781                    24511150.934
 129585817.619 6 100976053.08843  24659383.891                    24659396.414
 122986733.558 7  95833912.08444  23403603.234                    23403613.445
 129602494.695 6 100989077.531 6  24662546.203                    24662560.684
 122326840.520 7  95319778.31543  23278046.641                    23278057.297
 110924352.281 7  86434587.88746  21108201.336                    21108208.090
 118281594.727 7  92167510.63644  22508241.570                    22508251.281
 110556905.617 8  86148276.542 7  21038278.375                    21038286.105
 118830059.387 7  92594902.39244  22612603.891                    22612613.582
 108309327.308 8  84396906.30546  20610581.844                    20610590.359
 116224686.297 7  90564708.22445  22116828.445                    22116836.953
 11  8 11 17 41 30.0000000  0 11G06G10G28G01G11G19G03G07G08G13G23
 128905314.705 6 100445733.30843  24529870.430                    24529880.512
 129638941.731 6 101017448.38443  24669492.617                    24669505.184
 122935363.644 7  95793883.66744  23393828.414                    23393837.902
 129556444.389 6 100953194.252 6  24653783.477                    24653797.797
 122250218.328 7  95260072.73944  23263465.758                    23263476.527
 110957614.212 7  86460506.28046  21114530.992                    21114537.840
 118374493.899 7  92239899.58944  22525919.813                    22525929.141
 110511589.890 8  86112965.578 7  21029654.922                    21029663.039
 118757738.901 7  92538548.80845  22598841.969                    22598851.113
 108368597.091 8  84443090.51446  20621860.266                    20621868.941
 116325295.293 7  90643104.74645  22135974.219                    22135982.453
 11  8 11 17 42  0.0000000  0 11G06G10G28G01G11G19G03G07G08G13G23
 129003916.651 6 100522565.92943  24548634.102                    24548643.824
 129692257.225 6 101058992.83143  24679638.695                    24679650.934
 122884200.416 7  95754016.27244  23384092.516                    23384102.391
 129510652.46416 100917512.28716  24645068.875                    24645083.465
 122173720.762 7  95200464.27144  23248908.914                    23248919.754
 110991463.500 8  86486882.34346  21120972.727                    21120979.098
 118467718.039 7  92312541.78244  22543660.266                    22543669.160
 110466446.586 8  86077788.959 7  21021064.531                    21021071.906
 118685418.347 7  92482195.16044  22585079.656                    22585088.945
 108428391.811 8  84489683.76146  20633238.867                    20633247.945
 116426190.390 7  90721724.19845  22155173.344                    22155181.852
 11  8 11 17 42 30.0000000  0 11G06G10G28G01G11G19G03G07G08G13G23
 129102692.513 5 100599534.08243  24567429.766                    24567440.707
 129745761.314 6 101100684.21743  24689819.602                    24689832.656
 122833243.758 7  95714309.84844  23374395.906                    23374405.250
 129465121.15816 100882033.37116  24636405.414                    24636419.520
 122097350.848 7  95140955.28444  23234376.398                    23234386.539
 111025898.913 8  86513715.13646  21127525.039                    21127532.098
 118561264.360 7  92385434.99144  22561460.703                    22561470.371
 110421477.380 8  86042748.018 7  21012506.734                    21012514.883
 118613098.999 7  92425842.45745  22571317.484                    22571327.102
 108488709.661 8  84536684.63846  20644717.227                    20644726.332
 116527368.874 7  90800564.46145  22174427.391                    22174435.531
 11  8 11 17 43  0.0000000  0 11G06G10G28G01G11G19G03G07G08G13G23
 129201639.404 5 100676635.46543  24586258.086                    24586269.793
 129799450.985 6 101142520.25243  24700036.227                    24700049.480
 122782492.688 7  95674763.62144  23364737.750                    23364748.094
 129419853.360 6 100846759.782 6  24627790.867                    24627804.875
 122021111.464 7  95081547.98544  23219868.516                    23219878.609
 111060918.730 8  86541003.28246  21134188.898                    21134195.852
 118655130.031 6  92458577.03744  22579323.742                    22579332.613
 110376684.318 8  86007844.328 7  21003982.953                    21003991.547
 118540781.856 7  92369491.46445  22557555.719                    22557565.039
 108549548.607 8  84584091.56746  20656294.852                    20656303.270
 116628827.613 7  90879623.11945  22193734.789                    22193742.660
 11  8 11 17 43 30.0000000  0 11G06G10G28G01G11G19G03G07G08G13G23
 129300755.051 5 100753868.40543  24605119.266                    24605131.742
 129853323.995 6 101184499.12143  24710288.672                    24710301.086
 122731947.026 7  95635377.45944  23355119.234                    23355129.090
 129374851.776 6 100811693.617 6  24619227.773                    24619242.559
 121945005.831 7  95022244.91044  23205385.750                    23205396.059
 111096521.953 8  86568746.04246  21140964.328                    21140971.016
 118749312.275 7  92531965.78444  22597245.938                    22597254.844
 110332068.933 8  85973079.094 7  20995492.906                    20995501.164
 118468468.256 7  92313143.25245  22543795.250                    22543804.828
 108610906.934 8  84631903.21446  20667970.641                    20667979.512
 116730564.243 7  90958898.30045  22213094.367                    22213102.559
 11  8 11 17 44  0.0000000  0 11G06G10G28G01G11G19G03G07G08G13G23
 129400036.833 5 100831230.71742  24624011.930                    24624023.863
 129907377.333 6 101226618.49442  24720574.891                    24720586.707
 122681606.235 7  95596150.91744  23345540.109                    23345549.684
 129330118.486 6 100776836.500 6  24610715.234                    24610729.766
 121869036.774 7  94963048.26644  23190929.313                    23190939.703
 111132706.873 8  86596942.06546  21147850.047                    21147857.027
 118843807.880 7  92605598.68844  22615226.852                    22615236.828
 110287632.744 8  85938453.491 7  20987037.063                    20987045.398
 118396158.801 7  92256798.25245  22530035.266                    22530044.883
 108672782.610 8  84680117.98146  20679745.453                    20679754.047
 116832575.533 7  91038387.49545  22232506.750                    22232514.824
 11  8 11 17 44 30.0000000  0 11G06G10G28G01G11G19G03G07G08G13G23
 129499481.981 6 100908720.39543  24642936.648                    24642947.586
 129961608.069 6 101268876.08543  24730894.742                    24730907.063
 122631469.528 7  95557083.39844  23335998.852                    23336009.148
 129285656.147 6 100742190.505 6  24602254.531                    24602268.590
 121793207.377 7  94903960.43144  23176499.703                    23176510.109
 111169471.987 8  86625590.17846  21154846.320                    21154852.926
 118938614.073 7  92679473.58444  22633268.781                    22633277.844
 110243377.278 8  85903968.731 7  20978615.297                    20978623.746
 118323855.119 7  92200457.75845  22516276.023                    22516285.520
 108735173.844 8  84728734.48746  20691617.875                    20691627.137
 116934858.708 7  91118088.56745  22251969.961                    22251978.641
 11  8 11 17 45  0.0000000  0 11G06G10G28G01G11G19G03G07G08G13G23
 129599088.344 6 100986335.66843  24661891.234                    24661902.074
 130016012.878 6 101311269.33842  24741248.047                    24741260.348
 122581536.764 7  95518174.79644  23326496.688                    23326506.754
 129241467.644 6 100707757.908 6  24593844.320                    24593859.699
 121717520.635 7  94844983.75944  23162097.188                    23162107.438
 111206815.799 8  86654689.22346  21161952.594                    21161958.992
 119033727.817 7  92753588.14744  22651368.570                    22651378.078
 110199304.246 8  85869626.136 7  20970228.734                    20970236.660
 118251558.551 7  92144122.81545  22502518.766                    22502528.063
 108798078.674 8  84777751.19346  20703588.359                    20703597.160
 117037410.969 7  91197999.29045  22271485.641                    22271493.930
 11  8 11 17 45 30.0000000  0 11G06G10G28G01G11G19G03G07G08G13G23
 129698853.353 6 101064074.62943  24680875.984                    24680886.730
 130070589.454 6 101353796.42042  24751632.938                    24751646.129
 122531807.218 7  95479424.54544  23317033.898                    23317043.469
 129197555.470 6 100673540.595 6  24585489.594                    24585503.871
 121641979.793 7  94786120.79844  23147721.781                    23147732.355
 111244736.901 8  86684238.10946  21169168.758                    21169175.488
 119129146.192 6  92827940.04444  22669526.008                    22669535.395
 110155415.805 8  85835427.371 7  20961876.742                    20961885.371
 118179270.373 7  92087794.37945  22488762.391                    22488771.285
 108861495.018 8  84827166.48646  20715656.188                    20715664.797
 117140229.323 7  91278117.38045  22291051.328                    22291060.027
 11  8 11 17 46  0.0000000  0 11G06G10G28G01G11G19G03G07G08G13G23
 129798774.707 6 101141935.38543  24699890.195                    24699901.199
 130125335.092 6 101396455.25842  24762050.844                    24762064.238
 122482280.193 7  95440832.10244  23307609.102                    23307618.922
 129153922.380 6 100639540.767 6  24577186.617                    24577200.934
 121566587.466 7  94727373.54144  23133375.625                    23133385.301
 111283233.389 8  86714235.33946  21176494.422                    21176500.898
 119224866.531 6  92902527.24344  22687741.078                    22687750.277
 110111713.490 8  85801373.641 7  20953560.672                    20953569.063
 118106991.381 7  92031473.12345  22475008.625                    22475017.926
 108925420.849 8  84876978.77746  20727820.977                    20727829.492
 117243310.997 7  91358440.63645  22310667.516                    22310675.367
 11  8 11 17 46 30.0000000  0 11G06G10G28G01G11G19G03G07G08G13G23
 129898849.805 6 101219915.94043  24718935.266                    24718945.008
 130180246.892 5 101439243.55542  24772499.672                    24772513.918
 122432955.466 7  95402397.27544  23298222.922                    23298233.008
 129110570.554 6 100605760.138 6  24568935.906                    24568951.359
 121491346.878 7  94668744.53144  23119057.563                    23119068.184
 111322304.357 8  86744680.22746  21183929.789                    21183935.938
 119320886.117 7  92977347.61544  22706012.188                    22706022.395
 110068198.723 8  85767466.049 7  20945280.352                    20945288.441
 118034722.982 7  91975160.11345  22461256.438                    22461265.547
 108989854.430 8  84927186.71746  20740082.461                    20740090.910
 117346653.110 7  91438966.85045  22330332.633                    22330340.984
 11  8 11 17 47  0.0000000  0 11G06G10G28G01G11G19G03G07G08G13G23
 129999075.794 6 101298014.08043  24738006.711                    24738017.367
 130235322.003 6 101482159.07742  24782980.359                    24782994.410
 122383832.272 7  95364119.49044  23288875.180                    23288885.004
 129067502.379 6 100572200.502 6  24560741.563                    24560755.801
 121416261.133 7  94610236.20044  23104769.102                    23104779.605
 111361947.932 8  86775571.29746  21191473.047                    21191480.203
 119417201.629 6  93052398.58044  22724341.125                    22724350.777
 110024873.193 8  85733705.902 7  20937035.469                    20937043.375
 117962466.476 7  91918856.36445  22447506.445                    22447515.238
 109054793.452 8  84977788.51646  20752439.695                    20752448.430
 117450252.653 7  91519693.65344  22350046.969                    22350055.207
 11  8 11 17 47 30.0000000  0 11G06G10G28G01G11G19G03G07G08G13G23
 130099450.726 6 101376228.25743  24757106.820                    24757118.238
 130290557.526 6 101525199.59442  24793492.094                    24793505.578
 122334909.876 7  95325998.19244  23279565.281                    23279575.469
 129024720.775 6 100538864.169 6  24552599.680                    24552614.730
 121341333.258 7  94551850.90443  23090510.797                    23090521.199
 111402162.511 8  86806907.31746  21199125.813                    21199132.387
 119513809.962 7  93127677.71744  22742725.242                    22742735.230
 109981739.003 8  85700094.850 7  20928827.078                    20928835.406
 117890223.539 7  91862563.21345  22433758.969                    22433768.027
 109120236.199 8  85028782.81746  20764892.813                    20764901.820
 117554107.179 7  91600619.13345  22369810.422                    22369818.012
 11  8 11 17 48  0.0000000  0 11G06G10G28G01G11G19G03G07G08G13G23
 130199971.792 6 101454556.32143  24776236.094                    24776246.945
 130345950.661 6 101568362.95843  24804033.984                    24804046.754
 122286187.935 7  95288033.09444  23270294.000                    23270303.844
 128982228.288 6 100505753.130 6  24544514.180                    24544528.410
 121266566.330 7  94493591.00744  23076283.148                    23076293.445
 111442946.787 8  86838687.26646  21206886.813                    21206893.250
 119610708.862 7  93203183.26444  22761164.039                    22761174.340
 109938797.696 8  85666634.099 7  20920655.578                    20920663.664
 117817995.077 7  91806281.32845  22420013.945                    22420023.211
 109186180.409 8  85080167.86646  20777441.984                    20777450.797
 117658213.545 7  91681740.87044  22389620.680                    22389629.086
 11  8 11 17 48 30.0000000  0 11G06G10G28G01G11G19G03G07G08G13G23
 130300636.639 6 101532996.41142  24795391.547                    24795402.699
 130401498.913 6 101611647.14642  24814604.289                    24814616.273
 122237665.734 7  95250223.61244  23261060.664                    23261070.230
 128940027.483 6 100472869.430 6  24536483.211                    24536496.969
 121191963.424 6  94435458.96244  23062086.781                    23062097.191
 111484298.816 8  86870909.61746  21214755.805                    21214763.063
 119707895.148 7  93278912.73344  22779658.734                    22779668.004
 109896051.412 8  85633325.315 7  20912521.633                    20912529.824
 117745782.358 7  91750011.70145  22406272.516                    22406281.652
 109252623.983 8  85131942.03846  20790085.750                    20790094.441
 117762568.801 7  91763056.53144  22409478.969                    22409487.762
 11  8 11 17 49  0.0000000  0 11G06G10G28G01G11G19G03G07G08G13G23
 130401442.944 6 101611546.76143  24814574.680                    24814585.223
 130457199.129 6 101655049.82443  24825203.211                    24825215.902
 122189342.762 7  95212569.38244  23251864.867                    23251874.535
 128898120.839 6 100440214.942 6  24528508.859                    24528522.723
 121117527.539 6  94377457.07244  23047921.680                    23047932.777
 111526216.803 8  86903572.98846  21222732.680                    21222739.422
 119805365.967 7  93354863.96244  22798206.453                    22798216.238
 109853501.218 8  85600169.331 7  20904424.492                    20904432.504
 117673586.573 7  91693755.27245  22392534.484                    22392543.320
 109319564.858 8  85184103.71146  20802824.031                    20802832.988
 117867169.969 7  91844563.80845  22429384.406                    22429392.684
 11  8 11 17 49 30.0000000  0 11G06G10G28G01G11G19G03G07G08G13G23
 130502387.950 6 101690205.13143  24833783.758                    24833794.453
 130513048.437 6 101698568.61742  24835831.469                    24835844.098
 122141218.348 7  95175069.89944  23242707.266                    23242717.051
 128856510.737 6 100407791.579 6  24520590.898                    24520604.715
 121043261.578 6  94319587.61644  23033789.664                    23033800.055
 111568699.305 8  86936676.25246  21230816.891                    21230823.457
 119903118.428 7  93431034.65544  22816808.070                    22816817.895
 109811149.186 8  85567167.763 7  20896365.328                    20896373.496
 117601408.925 7  91637512.96345  22378799.203                    22378808.031
 109387000.918 8  85236651.23946  20815656.914                    20815665.633
 117972014.453 7  91926260.69245  22449335.344                    22449344.148
 11  8 11 17 50  0.0000000  0 11G06G10G28G01G11G19G03G07G08G13G23
 130603469.429 6 101768969.86343  24853019.500                    24853029.477
 130569044.459 6 101742201.75443  24846487.414                    24846499.246
 122093292.116 7  95137724.83944  23233587.008                    23233596.637
 128815199.520 6 100375601.128 6  24512728.859                    24512743.086
 120969168.757 6  94261853.10544  23019689.844                    23019700.480
 111611744.528 8  86970218.00446  21239007.844                    21239014.773
 120001149.279 7  93507422.30244  22835462.750                    22835472.598
 109768997.200 8  85534322.078 7  20888344.023                    20888352.051
 117529251.067 7  91581286.09745  22365068.156                    22365077.516
 109454929.927 8  85289582.88146  20828583.266                    20828592.086
 118077098.837 7  92008144.50845  22469332.695                    22469340.980
 11  8 11 17 50 30.0000000  0 11G06G10G28G01G11G19G03G07G08G13G23
 130704684.907 5 101847839.00342  24872279.977                    24872291.285
 130625184.190 6 101785946.84343  24857169.820                    24857183.012
 122045563.311 7  95100533.60044  23224504.336                    23224514.133
 128774189.883 6 100343645.692 6  24504924.883                    24504939.320
 120895252.010 6  94204255.80644  23005623.508                    23005634.379
 111655350.849 7  87004196.97046  21247306.281                    21247312.758
 120099456.088 7  93584024.95944  22854170.344                    22854179.738
 109727046.797 8  85501633.472 7  20880361.258                    20880368.922
 117457114.147 7  91525075.53145  22351340.859                    22351349.734
 109523349.856 8  85342897.06946  20841603.508                    20841612.578
 118182421.191 7  92090213.73245  22489374.727                    22489383.801
 11  8 11 17 51  0.0000000  0 10G10G28G01G11G19G03G07G08G13G23
 130681464.514 6 101829801.51843  24867880.156                    24867892.742
 121998031.011 7  95063495.48244  23215459.336                    23215468.648
 128733483.814 6 100311926.821 6  24497178.688                    24497193.422
 120821514.017 7  94146797.81044  22991591.938                    22991602.426
 111699516.099 7  87038611.47446  21255710.297                    21255717.047
 120198035.531 7  93660840.08944  22872929.047                    22872938.578
 109685299.409 8  85469103.049 7  20872416.609                    20872425.066
 117384999.321 7  91468882.19245  22337617.852                    22337626.578
 109592258.111 8  85396591.76046  20854716.156                    20854724.641
 118287977.762 7  92172465.48345  22509461.609                    22509470.477
 11  8 11 17 51 30.0000000  0 10G10G28G01G11G19G03G07G08G13G23
 130737882.953 6 101873763.79243  24878616.477                    24878629.902
 121950695.286 7  95026610.54244  23206451.492                    23206461.344
 128693084.339 6 100280446.862 6  24489490.281                    24489504.793
 120747958.531 7  94089482.03244  22977594.148                    22977604.586
 111744239.020 7  87073460.52746  21264221.266                    21264227.152
 120296885.166 7  93737865.75144  22891739.547                    22891749.184
 109643757.569 8  85436732.797 7  20864511.477                    20864519.609
 117312908.584 7  91412707.64045  22323899.578                    22323908.469
 109661653.290 8  85450665.88246  20867921.695                    20867930.730
 118393766.303 7  92254897.97145  22529592.977                    22529601.344
 11  8 11 17 52  0.0000000  0 10G10G28G01G11G19G03G07G08G13G23
 130794436.666 6 101917831.45443  24889379.281                    24889391.355
 121903555.046 7  94989877.92344  23197481.203                    23197491.109
 128652993.819 5 100249207.648 6  24481861.664                    24481876.344
 120674588.307 7  94032310.61044  22963632.516                    22963643.469
 111789517.737 7  87108742.66346  21272836.859                    21272843.969
 120396001.938 7  93815099.57944  22910600.547                    22910611.090
 109602422.850 8  85404523.941 7  20856645.859                    20856654.094
 117240843.051 7  91356552.72445  22310185.414                    22310194.867
 109731532.634 8  85505117.26746  20881219.219                    20881228.273
 118499783.259 7  92337508.47145  22549766.992                    22549775.840
 11  8 11 17 52 30.0000000  0 10G10G28G01G11G19G03G07G08G13G23
 130851122.929 6 101962002.41843  24900166.016                    24900178.387
 121856609.796 7  94953297.25344  23188547.797                    23188557.293
 128613214.728 5 100218211.086 6  24474292.211                    24474306.027
 120601406.506 7  93975285.99844  22949706.188                    22949716.723
 111835350.592 7  87144456.58746  21281558.906                    21281565.770
 120495383.004 7  93892539.36543  22929512.930                    22929522.449
 109561296.908 7  85372477.760 7  20848819.547                    20848828.168
 117168804.224 7  91300418.60445  22296476.945                    22296486.230
 109801894.256 8  85559944.45646  20894608.703                    20894617.711
 118606026.012 7  92420294.90245  22569984.867                    22569993.254
 11  8 11 17 53  0.0000000  0 10G10G28G01G11G19G03G07G08G13G23
 130907938.804 6 102006274.39743  24910977.500                    24910990.250
 121809858.890 7  94916868.00144  23179651.742                    23179660.863
 128573749.529 6 100187459.139 6  24466782.070                    24466796.090
 120528415.987 7  93918410.47044  22935816.758                    22935826.832
 111881735.468 7  87180600.65546  21290385.320                    21290392.043
 120595025.607 6  93970182.95944  22948473.664                    22948483.875
 109520381.452 8  85340595.603 7  20841033.742                    20841041.926
 117096793.285 7  91244306.21445  22282774.016                    22282782.867
 109872735.896 8  85615145.69346  20908089.039                    20908098.313
 118712491.828 7  92503255.15044  22590244.273                    22590253.059
 11  8 11 17 53 30.0000000  0 10G10G28G01G11G19G03G07G08G13G23
 130964882.010 6 102050645.58443  24921813.266                    24921826.617
 121763302.304 7  94880590.18344  23170792.133                    23170801.625
 128534600.755 5 100156953.752 6  24459331.656                    24459346.609
 120455620.175 7  93861686.60644  22921964.172                    22921974.207
 111928670.898 7  87217173.72446  21299317.078                    21299323.547
 120694927.041 7  94048028.18444  22967484.109                    22967494.652
 109479678.654 7  85308879.143 7  20833288.633                    20833296.406
 117024811.972 7  91188216.91145  22269076.320                    22269085.203
 109944055.805 8  85670719.59046  20921660.977                    20921670.168
 118819178.178 7  92586387.24244  22610546.039                    22610554.828
 11  8 11 17 54  0.0000000  0  9G28G01G11G19G03G07G08G13G23
 121716938.909 7  94844462.90044  23161969.070                    23161978.996
 128495770.883 6 100126696.901 6  24451942.195                    24451956.527
 120383022.262 7  93805116.95044  22908148.852                    22908158.949
 111976155.163 7  87254174.45546  21308352.906                    21308359.945
 120795084.646 6  94126073.03644  22986543.211                    22986553.758
 109439190.562 8  85277329.982 7  20825583.852                    20825591.777
 116952862.038 7  91132152.06145  22255384.609                    22255393.934
 110015851.198 8  85726663.99746  20935323.383                    20935332.125
 118926081.873 7  92669688.68244  22630889.188                    22630897.688
 11  8 11 17 54 30.0000000  0  9G28G01G11G19G03G07G08G13G23
 121670768.038 7  94808485.65544  23153183.078                    23153193.051
 128457262.214 6 100096690.266 6  24444614.211                    24444629.316
 120310624.831 7  93748703.49444  22894372.047                    22894381.988
 112024185.727 8  87291600.85646  21317492.578                    21317499.156
 120895494.832 6  94204314.69443  23005651.555                    23005661.199
 109398918.444 8  85245949.126 7  20817920.063                    20817928.047
 116880944.081 7  91076112.12245  22241698.953                    22241708.098
 110088119.624 8  85782977.01846  20949075.859                    20949084.621
 119033199.752 7  92753157.03544  22651273.750                    22651281.602
 11  8 11 17 55  0.0000000  0  9G28G01G11G19G03G07G08G13G23
 121624788.781 7  94772657.67944  23144433.367                    23144442.832
 128419076.555 6 100066935.341 6  24437347.563                    24437361.582
 120238430.970 7  93692448.68444  22880633.570                    22880643.801
 112072760.773 7  87329451.53746  21326736.516                    21326742.715
 120996154.723 6  94282750.93044  23024806.000                    23024816.219
 109358863.897 7  85214737.804 7  20810297.828                    20810305.898
 116809059.099 7  91020097.87745  22228019.867                    22228029.520
 110160858.617 8  85839656.70846  20962917.320                    20962926.395
 119140528.715 7  92836789.86144  22671697.500                    22671706.109
 11  8 11 17 55 30.0000000  0  9G28G01G11G19G03G07G08G13G23
 121579000.172 7  94736978.29544  23135719.906                    23135729.523
 128381216.426 6 100037434.079 6  24430142.703                    24430157.559
 120166443.216 7  93636354.43644  22866934.984                    22866944.973
 112121878.118 7  87367724.77746  21336083.148                    21336089.590
 121097061.050 6  94361379.17744  23044008.063                    23044018.406
 109319028.498 8  85183697.238 7  20802717.891                    20802725.391
 116737208.764 7  90964110.64045  22214346.906                    22214356.422
 110234065.601 8  85896701.05446  20976848.328                    20976857.117
 119248065.873 7  92920584.91544  22692161.305                    22692169.949
 11  8 11 17 56  0.0000000  0 10G24G28G01G11G19G03G07G08G13G23
 128079831.66315  99802559.62153  24372790.961                    24372806.063
 121533401.755 7  94701447.10244  23127043.461                    23127052.980
 128343684.277 5 100008188.342 6  24423000.563                    24423015.215
 120094664.917 7  93580423.38244  22853275.695                    22853285.652
 112171535.685 7  87406418.97146  21345532.992                    21345539.406
 121198211.375 6  94440197.52244  23063256.719                    23063266.563
 109279414.277 8  85152829.021 7  20795179.102                    20795187.148
 116665394.892 7  90908151.81245  22200681.516                    22200690.598
 110307738.409 8  85954108.38846  20990867.727                    20990876.770
 119355808.049 7  93004539.72544  22712664.414                    22712673.074
 11  8 11 17 56 30.0000000  0 10G24G28G01G11G19G03G07G08G13G23
 128006194.332 5  99745179.96742  24358778.273                    24358793.902
 121487992.391 7  94666063.23344  23118401.227                    23118411.500
 128306481.970 6  99979199.608 7  24415921.555                    24415936.008
 120023098.733 7  93524657.62844  22839657.172                    22839666.441
 112221731.815 7  87445532.82346  21355084.664                    21355091.500
 121299602.684 6  94519203.68344  23082550.688                    23082560.973
 109240022.697 8  85122134.293 7  20787683.281                    20787691.078
 116593618.435 7  90852222.14245  22187022.547                    22187031.902
 110381874.580 8  86011876.79246  21004975.578                    21004984.609
 119463752.424 7  93088652.09344  22733205.195                    22733214.309
 11  8 11 17 57  0.0000000  0 10G24G28G01G11G19G03G07G08G13G23
 127932491.595 5  99687749.33742  24344751.852                    24344768.355
 121442771.736 7  94630826.38544  23109796.859                    23109806.199
 128269612.142 6  99950469.940 7  24408906.273                    24408919.602
 119951748.013 7  93469059.75544  22826079.859                    22826089.293
 112272464.479 8  87485064.74946  21364738.711                    21364745.500
 121401231.809 7  94598395.12143  23101890.281                    23101900.156
 109200855.795 8  85091614.617 7  20780230.492                    20780238.215
 116521881.274 7  90796323.08845  22173371.602                    22173380.559
 110456471.774 8  86070004.42146  21019170.938                    21019180.391
 119571896.140 7  93172919.77944  22753784.789                    22753792.938
 11  8 11 17 57 30.0000000  0 10G24G28G01G11G19G03G07G08G13G23
 127858726.114 6  99630269.77642  24330714.750                    24330731.570
 121397739.421 7  94595736.32144  23101227.695                    23101236.457
 128233077.338 6  99922001.318 7  24401952.797                    24401967.578
 119880616.012 7  93413632.27944  22812543.461                    22812553.105
 112323731.534 7  87525013.07246  21374494.563                    21374501.367
 121503096.227 7  94677769.90844  23121274.320                    23121284.566
 109161915.374 8  85061271.430 7  20772819.906                    20772827.996
 116450185.023 7  90740455.91545  22159728.008                    22159737.535
 110531527.751 8  86128489.54746  21033453.320                    21033462.570
 119680236.379 7  93257340.60444  22774401.117                    22774409.742
 11  8 11 17 58  0.0000000  0 10G24G28G01G11G19G03G07G08G13G23
 127784901.104 6  99572743.82442  24316667.484                    24316683.051
 121352894.618 7  94560792.37244  23092693.195                    23092702.391
 128196879.970 6  99893795.621 7  24395065.539                    24395079.508
 119809705.755 7  93358377.62044  22799049.703                    22799059.410
 112375531.321 8  87565376.50646  21384351.828                    21384358.656
 121605193.372 7  94757326.05543  23140703.109                    23140712.961
 109123203.648 8  85031106.446 7  20765453.273                    20765461.316
 116378531.131 7  90684621.74645  22146092.867                    22146102.367
 110607040.565 8  86187330.65746  21047823.570                    21047832.359
 119788770.201 7  93341912.26744  22795054.258                    22795063.695
 11  8 11 17 58 30.0000000  0 10G24G28G01G11G19G03G07G08G13G23
 127711018.984 6  99515173.42243  24302608.938                    24302624.172
 121308236.742 7  94525994.08144  23084195.906                    23084204.766
 128161021.935 6  99865854.326 6  24388241.664                    24388255.500
 119739019.972 7  93303297.82744  22785598.547                    22785608.242
 112427861.579 8  87606153.28446  21394310.203                    21394317.262
 121707520.089 6  94837061.07543  23160175.031                    23160184.910
 109084722.054 8  85001120.792 7  20758130.766                    20758138.336
 116306920.710 7  90628821.45045  22132465.828                    22132474.801
 110683006.969 8  86246525.21446  21062279.047                    21062288.328
 119897494.691 7  93426632.49444  22815744.430                    22815753.438
 11  8 11 17 59  0.0000000  0 10G24G28G01G11G19G03G07G08G13G23
 127637082.962 6  99457560.93843  24288538.641                    24288554.012
 121263765.215 7  94491340.98944  23075732.734                    23075742.508
 128125506.343 6  99838179.859 7  24381483.516                    24381497.449
 119668562.430 7  93248395.91344  22772190.500                    22772200.984
 112480720.477 7  87647341.97846  21404369.055                    21404375.520
 121810073.912 7  94916973.05943  23179690.648                    23179700.570
 109046473.112 8  84971316.431 7  20750852.094                    20750860.219
 116235356.054 7  90573056.80545  22118847.289                    22118856.723
 110759425.191 8  86306071.83146  21076821.156                    21076830.391
 120006407.137 7  93511499.17644  22836469.531                    22836478.574
 11  8 11 17 59 30.0000000  0 10G24G28G01G11G19G03G07G08G13G23
 127563095.261 6  99399908.26343  24274459.383                    24274474.523
 121219478.793 7  94456832.13144  23067305.313                    23067314.453
 128090334.706 6  99810773.393 6  24374790.289                    24374804.488
 119598335.240 7  93193673.46444  22758827.203                    22758837.449
 112534105.477 7  87688940.63346  21414527.789                    21414534.813
 121912851.682 6  94997059.54743  23199248.203                    23199258.262
 109008457.843 8  84941694.132 7  20743618.016                    20743626.234
 116163838.004 7  90517328.48845  22105238.016                    22105247.125
 110836292.356 8  86365968.26746  21091448.336                    21091457.652
 120115504.194 7  93596509.72044  22857230.242                    22857239.637
 11  8 11 18  0  0.0000000  0 10G24G28G01G11G19G03G07G08G13G23
 127489058.991 6  99342217.73843  24260370.789                    24260385.734
 121175376.926 7  94422467.10544  23058913.289                    23058922.590
 128055509.915 6  99783637.180 6  24368163.867                    24368177.559
 119528342.078 7  93139133.37344  22745507.508                    22745518.012
 112588015.106 7  87730948.08046  21424786.031                    21424793.461
 122015850.713 6  95077318.45943  23218848.703                    23218858.207
 108970678.346 8  84912255.558 7  20736428.625                    20736436.598
 116092368.718 7  90461638.16045  22091637.750                    22091646.914
 110913606.401 8  86426212.93046  21106160.852                    21106170.172
 120224783.291 7  93681662.08744  22878025.727                    22878034.988
 11  8 11 18  0 30.0000000  0 10G24G28G01G11G19G03G07G08G13G23
 127414976.946 6  99284491.55343  24246272.641                    24246287.926
 121131458.902 7  94388245.31144  23050555.227                    23050565.148
 128021033.672 6  99756772.540 6  24361602.492                    24361617.023
 119458585.665 7  93084777.75544  22732233.742                    22732243.320
 112642446.848 7  87773362.38746  21435144.320                    21435151.367
 122119068.124 6  95157747.54343  23238490.047                    23238499.844
 108933136.380 8  84883002.084 7  20729284.766                    20729292.879
 116020949.225 7  90405986.63445  22078047.297                    22078055.816
 110991364.635 8  86486803.71345  21120957.977                    21120966.859
 120334241.530 7  93766954.07244  22898854.914                    22898863.766
 11  8 11 18  1  0.0000000  0 10G24G28G01G11G19G03G07G08G13G23
 127340851.901 6  99226731.85643  24232167.586                    24232182.309
 121087724.126 7  94354166.29144  23042233.070                    23042242.297
 127986908.498 6  99730181.472 6  24355109.375                    24355123.031
 119389068.982 6  93030608.94244  22719005.313                    22719014.438
 112697398.729 7  87816181.99846  21445601.086                    21445608.770
 122222500.691 6  95238344.27943  23258172.945                    23258182.043
 108895834.051 8  84853935.329 7  20722186.273                    20722194.512
 115949581.386 7  90350375.35245  22064466.359                    22064475.391
 111069564.379 8  86547738.52845  21135838.734                    21135848.379
 120443875.844 7  93852383.24144  22919717.164                    22919727.012
 11  8 11 18  1 30.0000000  0 10G24G28G01G11G19G03G07G08G13G23
 127266686.766 6  99168940.97543  24218054.102                    24218069.816
 121044171.918 7  94320229.55144  23033944.977                    23033954.543
 127953136.670 6  99703865.765 6  24348682.422                    24348696.488
 119319795.360 6  92976629.52844  22705822.570                    22705832.445
 112752868.471 7  87859405.13746  21456156.664                    21456163.773
 122326145.999 6  95319106.79243  23277896.063                    23277905.961
 108858773.245 8  84825056.760 7  20715133.898                    20715142.129
 115878266.819 7  90294805.58645  22050895.461                    22050904.633
 111148203.682 8  86609015.85846  21150803.445                    21150812.777
 120553683.307 7  93937947.34144  22940613.414                    22940622.219
 11  8 11 18  2  0.0000000  0 10G24G28G01G11G19G03G07G08G13G23
 127192484.166 6  99111120.85143  24203934.055                    24203949.250
 121000801.606 7  94286434.53544  23025692.078                    23025701.754
 127919720.324 6  99677827.037 6  24342324.039                    24342336.852
 119250767.879 7  92922841.90644  22692686.758                    22692696.586
 112808854.295 8  87903030.45546  21466810.664                    21466817.582
 122430001.072 6  95400032.78843  23297658.672                    23297668.969
 108821955.880 8  84796367.909 7  20708128.078                    20708136.063
 115807007.054 7  90239278.51645  22037335.164                    22037344.094
 111227279.484 8  86670633.33345  21165851.125                    21165860.113
 120663660.856 7  94023643.97144  22961541.109                    22961550.953
 11  8 11 18  2 30.0000000  0 10G24G28G01G11G19G03G07G08G13G23
 127118246.792 6  99053273.70243  24189807.125                    24189822.242
 120957611.988 7  94252780.33944  23017473.734                    23017482.676
 127886661.486 6  99652066.944 6  24336031.844                    24336046.117
 119181989.259 7  92869248.20344  22679599.102                    22679608.629
 112865353.291 8  87947055.63946  21477562.438                    21477569.059
 122534063.095 7  95481120.03743  23317461.156                    23317470.738
 108785382.895 8  84767869.481 7  20701168.250                    20701176.383
 115735803.501 7  90183795.26045  22023785.641                    22023795.133
 111306789.171 8  86732588.88546  21180981.273                    21180990.520
 120773805.455 7  94109470.76444  22982501.258                    22982510.590
 11  8 11 18  3  0.0000000  0 10G24G28G01G11G19G03G07G08G13G23
 127043978.001 6  98995402.04943  24175673.938                    24175689.379
 120914603.021 7  94219266.90144  23009289.031                    23009298.238
 127853963.108 6  99626587.682 6  24329810.695                    24329823.957
 119113462.854 7  92815851.05944  22666559.063                    22666568.332
 112922363.904 8  87991479.49746  21488410.789                    21488417.516
 122638329.481 6  95562366.52843  23337302.672                    23337312.547
 108749057.263 8  84739563.795 7  20694255.734                    20694263.863
 115664658.287 7  90128357.44345  22010246.688                    22010256.152
 111386730.804 7  86794881.00546  21196193.578                    21196203.625
 120884114.787 7  94195425.91244  23003493.063                    23003502.156
 11  8 11 18  3 30.0000000  0 10G24G28G01G11G19G03G07G08G13G23
 126969680.467 6  98937508.02643  24161535.109                    24161550.180
 120871773.584 7  94185893.35044  23001139.078                    23001148.199
 127821627.083 6  99601390.830 6  24323657.047                    24323670.434
 119045191.739 7  92762652.81244  22653566.750                    22653576.367
 112979883.706 8  88036300.14246  21499356.531                    21499363.133
 122742797.265 7  95643769.95743  23357182.484                    23357191.895
 108712980.379 8  84711451.943 7  20687390.219                    20687398.789
 115593572.705 7  90072966.10545  21996720.078                    21996728.750
 111467101.615 7  86857507.56546  21211488.109                    21211496.930
 120994585.551 7  94281506.87244  23024514.461                    23024523.902
 11  8 11 18  4  0.0000000  0 10G24G28G01G11G19G03G07G08G13G23
 126895357.033 6  98879593.80143  24147391.258                    24147406.719
 120829123.137 7  94152659.28044  22993022.742                    22993031.914
 127789655.560 6  99576478.025 6  24317573.398                    24317586.105
 118977178.996 7  92709655.91844  22640624.703                    22640634.703
 113037910.963 8  88081516.20546  21510398.813                    21510405.258
 122847463.955 7  95725328.38643  23377099.820                    23377109.754
 108677154.742 8  84683535.872 7  20680573.273                    20680581.203
 115522548.767 7  90017622.78645  21983204.719                    21983213.875
 111547899.103 7  86920466.57845  21226863.172                    21226872.828
 121105215.194 7  94367711.63044  23045566.797                    23045576.617
 11  8 11 18  4 30.0000000  0 10G24G28G01G11G19G03G07G08G13G23
 126821010.345 6  98821661.46943  24133244.289                    24133258.246
 120786650.868 7  94119564.04344  22984940.586                    22984949.836
 127758050.491 7  99551850.791 6  24311559.273                    24311572.461
 118909427.294 7  92656862.44944  22627732.070                    22627741.926
 113096442.772 7  88127125.42446  21521536.750                    21521543.707
 122952326.392 7  95807039.31343  23397054.203                    23397064.109
 108641581.537 8  84655816.501 7  20673803.633                    20673811.465
 115451587.653 7  89962328.42545  21969700.977                    21969710.430
 111629120.327 8  86983755.77645  21242319.211                    21242328.512
 121216000.292 7  94454037.50444  23066648.656                    23066658.234
 11  8 11 18  5  0.0000000  0 10G24G28G01G11G19G03G07G08G13G23
 126746643.217 6  98763713.23643  24119092.172                    24119107.707
 120744355.716 7  94086606.81444  22976892.258                    22976901.547
 127726813.894 6  99527510.668 6  24305614.875                    24305628.180
 118841939.905 7  92604274.93044  22614889.820                    22614899.383
 113155477.161 8  88173126.27446  21532770.711                    21532777.531
 123057381.894 7  95888900.70443  23417045.766                    23417055.656
 108606262.631 8  84628295.257 7  20667082.477                    20667090.891
 115380691.190 7  89907084.45945  21956210.070                    21956219.199
 111710763.157 7  87047373.51245  21257854.984                    21257864.258
 121326938.299 7  94540482.50344  23087759.695                    23087769.609
 11  8 11 18  5 30.0000000  0 10G24G28G01G11G19G03G07G08G13G23
 126672258.493 7  98705751.26943  24104937.625                    24104952.480
 120702237.205 7  94053787.23744  22968877.133                    22968886.836
 127695948.365 6  99503459.713 6  24299741.414                    24299754.734
 118774719.721 7  92551895.65244  22602098.094                    22602107.469
 113215011.546 8  88219516.72946  21544099.695                    21544106.918
 123162627.566 6  95970910.25543  23437073.305                    23437083.211
 108571199.844 8  84600973.599 7  20660410.680                    20660418.586
 115309861.033 7  89851892.14945  21942731.359                    21942741.000
 111792824.132 8  87111317.07045  21273471.047                    21273480.609
 121438025.867 7  94627044.09444  23108898.625                    23108908.563
 11  8 11 18  6  0.0000000  0 10G24G28G01G11G19G03G07G08G13G23
 126597859.028 6  98647777.83443  24090779.258                    24090794.297
 120660294.305 7  94021104.50544  22960895.945                    22960904.773
 127665455.692 6  99479699.306 6  24293938.664                    24293952.047
 118707769.355 7  92499726.61744  22589357.742                    22589367.492
 113275043.650 7  88266295.01446  21555523.016                    21555530.598
 123268060.348 6  96053065.60143  23457136.367                    23457146.934
 108536395.205 8  84573853.107 8  20653787.109                    20653795.336
 115239098.788 7  89796752.76745  21929265.656                    21929274.879
 111875301.108 7  87175584.78745  21289165.789                    21289175.109
 121549260.372 7  94713720.14944  23130066.117                    23130075.848
 11  8 11 18  6 30.0000000  0 10G24G28G01G11G19G03G07G08G13G23
 126523447.878 6  98589795.31443  24076619.773                    24076634.188
 120618526.281 7  93988558.03744  22952946.938                    22952956.270
 127635338.067 6  99456231.177 6  24288207.188                    24288220.910
 118641092.131 7  92447770.44244  22576669.438                    22576679.008
 113335571.261 7  88313459.39846  21567041.578                    21567048.168
 123373677.545 6  96135364.65643  23477234.305                    23477244.539
 108501850.393 8  84546935.076 7  20647213.867                    20647221.594
 115168406.078 8  89741667.56545  21915813.305                    21915822.566
 111958191.685 7  87240174.79845  21304939.500                    21304948.957
 121660638.700 6  94800508.28644  23151261.633                    23151271.160
 11  8 11 18  7  0.0000000  0 10G24G28G01G11G19G03G07G08G13G23
 126449027.720 6  98531805.76842  24062457.641                    24062471.918
 120576932.263 7  93956147.17044  22945032.406                    22945041.184
 127605597.183 6  99433056.608 6  24282547.164                    24282560.633
 118574691.063 7  92396029.42344  22564033.445                    22564043.395
 113396591.986 8  88361008.02746  21578653.250                    21578660.305
 123479476.382 6  96217805.24143  23497367.945                    23497378.629
 108467567.169 8  84520220.868 7  20640689.867                    20640697.879
 115097784.791 8  89686638.00345  21902374.875                    21902383.500
 112041493.085 7  87305084.91545  21320791.156                    21320800.293
 121772157.817 6  94887406.09244  23172482.688                    23172493.031
 11  8 11 18  7 30.0000000  0 10G24G28G01G11G19G03G07G08G13G23
 126374601.492 6  98473811.53843  24048294.734                    24048309.027
 120535511.700 7  93923871.46844  22937149.719                    22937159.512
 127576235.719 6  99410177.687 6  24276960.273                    24276973.313
 118508569.129 7  92344505.93344  22551450.391                    22551460.508
 113458103.654 7  88408939.20845  21590358.234                    21590364.977
 123585454.625 6  96300385.58843  23517535.383                    23517545.828
 108433547.763 8  84493712.245 8  20634216.344                    20634224.391
 115027236.999 8  89631665.72545  21888949.680                    21888958.891
 112125202.564 8  87370313.02645  21336720.750                    21336730.156
 121883815.102 6  94974411.59044  23193730.703                    23193740.316
 11  8 11 18  8  0.0000000  0 10G24G28G01G11G19G03G07G08G13G23
 126300172.266 6  98415814.93143  24034130.711                    24034146.090
 120494263.814 7  93891730.30344  22929300.648                    22929310.398
 127547255.674 6  99387595.953 6  24271445.031                    24271458.617
 118442729.351 7  92293202.30244  22538921.813                    22538931.277
 113520104.078 7  88457251.22246  21602156.750                    21602163.523
 123691609.228 6  96383103.36943  23537735.523                    23537745.738
 108399794.464 8  84467410.972 7  20627793.258                    20627801.355
 114956764.181 8  89576751.85445  21875539.242                    21875548.113
 112209317.313 7  87435856.93245  21352727.219                    21352736.344
 121995607.878 6  95061522.65344  23215004.422                    23215014.086
 11  8 11 18  8 30.0000000  0 10G24G28G01G11G19G03G07G08G13G23
 126225742.664 6  98357818.00543  24019967.219                    24019982.711
 120453187.776 7  93859723.05544  22921484.414                    22921493.133
 127518659.220 6  99365313.098 6  24266003.766                    24266017.336
 118377174.890 7  92242120.99144  22526447.602                    22526457.137
 113582590.714 8  88505942.10046  21614047.859                    21614054.395
 123797937.315 6  96465956.39543  23557969.000                    23557979.270
 108366308.518 8  84441318.042 7  20621420.781                    20621429.109
 114886367.827 8  89521897.59045  21862143.320                    21862152.277
 112293834.956 7  87501714.76445  21368810.367                    21368819.793
 122107533.006 7  95148736.84744  23236302.688                    23236313.047
 11  8 11 18  9  0.0000000  0 10G24G28G01G11G19G03G07G08G13G23
 126151315.443 6  98299823.01343  24005803.680                    24005818.508
 120412282.513 7  93827848.86744  22913700.359                    22913709.410
 127490447.686 6  99343330.175 6  24260634.805                    24260648.410
 118311908.019 7  92191263.77144  22514027.281                    22514036.613
 113645560.883 8  88555009.74746  21626030.438                    21626037.641
 123904435.918 6  96548942.25643  23578234.883                    23578245.223
 108333091.590 8  84415434.722 7  20615100.000                    20615108.453
 114816049.308 8  89467103.94745  21848761.977                    21848771.055
 112378752.102 8  87567883.91645  21384969.609                    21384978.969
 122219586.740 7  95236051.24644  23257625.859                    23257635.980
 11  8 11 18  9 30.0000000  0 10G24G28G01G11G19G03G07G08G13G23
 126076893.679 6  98241832.22943  23991642.039                    23991656.496
 120371547.446 7  93796107.30444  22905948.563                    22905957.645
 127462623.254 6  99321648.862 6  24255340.109                    24255353.281
 118246932.042 7  92140633.21644  22501662.703                    22501672.195
 113709012.313 7  88604452.39946  21638104.891                    21638112.176
 124011102.709 6  96632059.12143  23598533.063                    23598543.051
 108300145.788 8  84389762.699 8  20608830.547                    20608838.523
 114745810.882 8  89412372.72945  21835396.328                    21835404.629
 112464066.295 7  87634362.44445  21401204.281                    21401214.141
 122331766.756 6  95323464.06244  23278973.469                    23278983.676
 11  8 11 18 10  0.0000000  0 10G24G28G01G11G19G03G07G08G13G23
 126002480.094 6  98183847.83043  23977481.297                    23977495.250
 120330981.353 7  93764497.42144  22898228.766                    22898237.848
 127435187.947 6  99300270.743 6  24250119.031                    24250132.824
 118182249.970 7  92090231.66544  22489354.023                    22489363.438
 113772942.494 8  88654268.09845  21650270.438                    21650277.133
 124117934.785 6  96715304.85243  23618862.742                    23618872.961
 108267472.702 8  84364303.156 7  20602613.352                    20602621.270
 114675654.192 8  89357705.19745  21822045.445                    21822054.688
 112549775.130 8  87701148.47445  21417514.359                    21417523.906
 122444070.185 7  95410973.03744  23300344.633                    23300354.184
 11  8 11 18 10 30.0000000  0 10G24G28G01G11G19G03G07G08G13G23
 125928078.081 6  98125872.43543  23963323.563                    23963337.301
 120290584.118 7  93733019.09544  22890541.922                    22890550.902
 127408144.019 6  99279197.597 6  24244972.383                    24244986.199
 118117864.922 7  92040061.57244  22477102.039                    22477111.500
 113837349.365 8  88704455.23646  21662526.680                    21662533.938
 124224929.219 6  96798677.12043  23639223.789                    23639233.984
 108235074.716 7  84339057.963 7  20596447.914                    20596455.969
 114605581.149 8  89303102.85145  21808711.172                    21808719.820
 112635875.988 8  87768239.98445  21433898.891                    21433908.254
 122556494.282 7  95498576.03444  23321738.727                    23321748.215
 11  8 11 18 11  0.0000000  0 10G24G28G01G11G19G03G07G08G13G23
 125853690.576 6  98067908.35443  23949166.734                    23949181.590
 120250354.580 7  93701671.43644  22882886.211                    22882895.715
 127381493.568 6  99258431.035 6  24239901.070                    24239913.949
 118053779.996 7  91990125.32444  22464906.867                    22464916.270
 113902230.542 8  88755011.96446  21674873.305                    21674880.359
 124332083.478 6  96882173.87343  23659614.203                    23659624.820
 108202953.793 7  84314028.680 8  20590335.625                    20590343.871
 114535594.088 8  89248567.50845  21795393.086                    21795401.863
 112722366.022 8  87835634.74945  21450357.133                    21450366.938
 122669036.292 7  95586270.90844  23343154.063                    23343164.352
 11  8 11 18 11 30.0000000  0 10G24G28G01G11G19G03G07G08G13G23
 125779320.04816  98009957.55653  23935013.922                    23935029.336
 120210291.941 7  93670453.84244  22875262.336                    22875271.766
 127355238.42616  99237972.48816  24234905.656                    24234918.434
 117989997.812 7  91940424.98044  22452769.711                    22452779.008
 113967583.084 8  88805935.99045  21687309.586                    21687316.508
 124439395.010 6  96965793.17043  23680035.016                    23680045.477
 108171111.402 8  84289216.431 8  20584275.813                    20584284.566
 114465693.855 7  89194099.81145  21782091.414                    21782100.344
 112809242.204 8  87903330.40845  21466889.289                    21466898.766
 122781692.806 7  95674055.02844  23364592.172                    23364602.289
 11  8 11 18 12  0.0000000  0 10G24G28G01G11G19G03G07G08G13G23
 125704969.699 6  97952022.35843  23920865.961                    23920881.016
 120170395.410 7  93639365.68145  22867670.469                    22867679.813
 127329380.422 6  99217823.385 6  24229984.594                    24229997.289
 117926521.416 7  91890962.89244  22440690.109                    22440699.738
 114033404.928 8  88857225.70046  21699835.438                    21699842.184
 124546860.969 6  97049532.84543  23700485.000                    23700495.563
 108139549.462 8  84264622.715 7  20578269.852                    20578278.438
 114395882.491 8  89139701.36145  21768806.602                    21768815.656
 112896501.751 7  87971324.79545  21483494.836                    21483504.137
 122894461.181 7  95761926.28243  23386051.297                    23386061.504
 11  8 11 18 12 30.0000000  0 10G24G28G01G11G19G03G07G08G13G23
 125630642.292 6  97894105.08243  23906722.016                    23906736.801
 120130663.992 7  93608406.17344  22860109.594                    22860118.809
 127303921.308 6  99197985.102 6  24225139.703                    24225153.531
 117863353.594 7  91841741.25244  22428669.461                    22428678.926
 114099693.363 8  88908878.98346  21712449.492                    21712455.922
 124654478.381 6  97133390.52043  23720964.359                    23720974.570
 108108269.827 8  84240249.008 7  20572317.719                    20572326.160
 114326161.785 8  89085373.55245  21755539.406                    21755548.203
 112984141.756 7  88039615.64845  21500171.984                    21500181.469
 123007338.514 6  95849882.46543  23407531.695                    23407541.824
 11  8 11 18 13  0.0000000  0 10G24G28G01G11G19G03G07G08G13G23
 125556341.426 6  97836208.46343  23892582.398                    23892597.480
 120091097.538 7  93577575.21144  22852580.773                    22852589.574
 127278863.544 6  99178459.568 6  24220371.359                    24220385.082
 117800497.666 7  91792762.63944  22416708.500                    22416718.348
 114166446.538 8  88960894.39646  21725151.852                    21725158.465
 124762245.066 6  97217364.48643  23741470.977                    23741481.773
 108077274.988 8  84216097.193 8  20566419.594                    20566427.852
 114256534.220 8  89031118.31645  21742289.680                    21742298.309
 113072160.317 7  88108201.47045  21516921.469                    21516930.656
 123120322.063 6  95937921.36044  23429031.875                    23429042.395
 11  8 11 18 13 30.0000000  0 10G24G28G01G11G19G03G07G08G13G23
 125482069.680 6  97778334.51343  23878449.289                    23878463.352
 120051694.624 7  93546871.69844  22845082.586                    22845091.625
 127254209.077 6  99159248.250 6  24215679.711                    24215693.605
 117737956.330 7  91744029.15944  22404807.234                    22404816.977
 114233661.328 8  89013269.50946  21737942.297                    21737949.402
 124870158.049 6  97301452.48043  23762006.492                    23762016.820
 108046566.349 8  84192168.398 8  20560575.875                    20560583.918
 114187001.192 8  88976936.75345  21729058.047                    21729067.133
 113160554.196 7  88177079.74845  21533742.289                    21533751.828
 123233408.845 6  96026040.72044  23450551.484                    23450562.000
 11  8 11 18 14  0.0000000  0 10G24G28G01G11G19G03G07G08G13G23
 125407829.927 7  97720485.52743  23864322.539                    23864336.469
 120012454.142 7  93516294.74845  22837615.172                    22837624.211
 127229959.429 6  99140352.407 6  24211064.609                    24211078.309
 117675732.640 7  91695543.17544  22392966.758                    22392976.266
 114301335.192 8  89066002.34446  21750820.656                    21750827.465
 124978214.555 6  97385652.29443  23782569.305                    23782578.824
 108016145.615 8  84168463.931 8  20554786.922                    20554795.336
 114117564.432 8  88922830.19945  21715844.742                    21715853.672
 113249320.459 7  88246248.20445  21550633.984                    21550643.297
 123346595.681 6  96114238.03043  23472090.594                    23472100.449
 11  8 11 18 14 30.0000000  0 10G24G28G01G11G19G03G07G08G13G23
 125333625.099 7  97662663.71643  23850201.500                    23850215.859
 119973375.767 7  93485844.11344  22830178.617                    22830187.895
 127206116.234 6  99121773.239 6  24206528.344                    24206541.758
 117613829.182 7  91647306.73244  22381186.492                    22381196.473
 114369465.892 8  89119091.17745  21763785.383                    21763792.145
 125086411.756 6  97469961.73243  23803157.789                    23803168.531
 107986014.735 8  84144985.320 7  20549053.578                    20549061.535
 114048226.138 8  88868800.37445  21702650.172                    21702658.828
 113338455.965 7  88315704.36845  21567596.078                    21567604.938
 123459879.588 6  96202510.98443  23493647.742                    23493658.191
 11  8 11 18 15  0.0000000  0 10G24G28G01G11G19G03G07G08G13G23
 125259457.947 7  97604871.25643  23836088.063                    23836101.840
 119934458.907 7  93455519.33344  22822773.102                    22822782.090
 127182681.269 6  99103512.167 6  24202068.734                    24202081.660
 117552248.772 7  91599322.01544  22369468.516                    22369478.254
 114438050.569 8  89172533.75446  21776836.219                    21776843.855
 125194747.083 6  97554378.80943  23823773.914                    23823784.363
 107956175.224 8  84121733.759 8  20543375.164                    20543383.563
 113978987.639 8  88814848.29945  21689474.320                    21689483.441
 113427957.918 7  88385446.07645  21584627.336                    21584637.078
 123573257.831 6  96290857.43944  23515223.641                    23515234.063
 11  8 11 18 15 30.0000000  0 10G24G28G01G11G19G03G07G08G13G23
 125185331.611 7  97547110.64043  23821981.570                    23821995.918
 119895701.638 7  93425318.91345  22815398.070                    22815407.039
 127159656.673 6  99085570.895 6  24197687.406                    24197700.289
 117490994.559 7  91551591.46945  22357812.008                    22357822.035
 114507086.926 8  89226328.29945  21789973.945                    21789980.531
 125303217.796 6  97638901.31543  23844414.672                    23844425.773
 107926629.293 8  84098710.950 8  20537752.867                    20537760.996
 113909850.952 8  88760975.57245  21676318.055                    21676327.664
 113517823.647 8  88455471.24145  21601728.438                    21601738.066
 123686727.359 7  96379275.01844  23536815.938                    23536826.840
 11  8 11 18 16  0.0000000  0 10G24G28G01G11G19G03G07G08G13G23
 125111249.306 7  97489384.28343  23807884.609                    23807898.754
 119857103.562 7  93395242.52744  22808052.609                    22808062.234
 127137044.492 6  99067950.981 6  24193384.242                    24193398.344
 117430069.332 7  91504117.27045  22346218.789                    22346228.242
 114576572.411 8  89280472.81645  21803196.781                    21803203.344
 125411821.618 6  97723527.58943  23865082.109                    23865091.941
 107897379.200 8  84075918.670 8  20532186.430                    20532194.922
 113840818.408 8  88707183.97645  21663181.711                    21663190.703
 113608050.059 8  88525777.47545  21618898.094                    21618907.750
 123800285.624 7  96467761.74944  23558425.617                    23558436.363
 11  8 11 18 16 30.0000000  0 10G24G28G01G11G19G03G07G08G13G23
 125037213.609 7  97431694.29943  23793794.797                    23793809.484
 119818663.935 7  93365289.62545  22800737.844                    22800746.719
 127114846.161 6  99050653.585 6  24189160.297                    24189173.723
 117369475.875 7  91456901.58745  22334688.117                    22334697.660
 114646504.090 7  89334965.01245  21816504.406                    21816510.938
 125520555.413 6  97808255.15343  23885773.344                    23885783.590
 107868426.296 8  84053357.974 8  20526676.688                    20526685.234
 113771891.257 8  88653474.51645  21650065.125                    21650073.906
 113698634.699 7  88596362.83145  21636135.953                    21636145.270
 123913929.367 7  96556315.08644  23580050.961                    23580062.313
 11  8 11 18 17  0.0000000  0 10G24G28G01G11G19G03G07G08G13G23
 124963227.839 7  97374043.16443  23779716.000                    23779730.582
 119780382.232 7  93335459.78845  22793452.953                    22793462.027
 127093063.502 6  99033680.135 6  24185014.523                    24185028.691
 117309217.315 7  91409946.87645  22323221.539                    22323230.789
 114716879.339 8  89389802.86545  21829895.953                    21829902.781
 125629416.441 6  97893081.86543  23906489.461                    23906499.590
 107839772.289 8  84031030.172 8  20521224.375                    20521232.855
 113703072.010 8  88599849.13545  21636969.070                    21636978.379
 113789574.485 7  88667224.93445  21653441.055                    21653450.645
 124027655.726 7  96644932.79644  23601693.266                    23601704.176
 11  8 11 18 17 30.0000000  0 10G24G28G01G11G19G03G07G08G13G23
 124889294.978 7  97316433.31843  23765647.531                    23765661.379
 119742257.180 7  93305752.01245  22786197.563                    22786207.102
 127071698.645 6  99017032.207 6  24180949.898                    24180962.656
 117249296.535 7  91363255.37445  22311818.539                    22311827.969
 114787696.086 8  89444984.73245  21843371.727                    21843378.207
 125738402.408 6  97978005.92743  23927228.195                    23927238.613
 107811419.739 7  84008937.280 8  20515829.117                    20515837.109
 113634362.271 8  88546309.09245  21623894.727                    21623902.574
 113880866.877 7  88738361.79145  21670813.594                    21670823.203
 124141462.194 6  96733612.91943  23623349.719                    23623360.430
 11  8 11 18 18  0.0000000  0 10G24G28G01G11G19G03G07G08G13G23
 124815418.250 6  97258867.21743  23751588.797                    23751603.586
 119704288.459 7  93276166.05944  22778972.344                    22778981.730
 127050753.289 6  99000711.240 6  24176963.133                    24176976.266
 117189716.373 7  91316829.27045  22300480.766                    22300490.277
 114858951.966 7  89500508.78345  21856931.594                    21856938.563
 125847510.835 6  98063025.39843  23947990.500                    23948001.082
 107783370.417 8  83987080.658 8  20510491.328                    20510499.297
 113565764.139 8  88492856.02145  21610840.281                    21610849.551
 113972508.835 7  88809771.02245  21688252.672                    21688261.980
 124255346.076 6  96822353.35643  23645021.219                    23645032.234
 11  8 11 18 18 30.0000000  0 10G24G28G01G11G19G03G07G08G13G23
 124741600.086 7  97201346.74343  23737541.500                    23737556.156
 119666474.504 7  93246700.70044  22771777.328                    22771786.004
 127030228.639 6  98984718.095 6  24173057.477                    24173070.777
 117130479.323 7  91270670.56545  22289208.063                    22289217.824
 114930643.711 7  89556372.48445  21870574.195                    21870580.652
 125956738.623 6  98148137.93443  23968776.914                    23968786.707
 107755625.451 8  83965461.218 8  20505211.719                    20505219.922
 113497279.633 8  88439491.49545  21597808.555                    21597817.375
 114064497.060 7  88881450.08245  21705757.352                    21705767.238
 124369303.678 6  96911151.28543  23666706.305                    23666718.000
 11  8 11 18 19  0.0000000  0 10G24G28G01G11G19G03G07G08G13G23
 124667844.109 7  97143874.72243  23723506.586                    23723519.859
 119628815.058 7  93217355.73145  22764610.758                    22764619.582
 127010127.129 6  98969054.709 6  24169232.992                    24169245.785
 117071588.986 7  91224782.00945  22278001.563                    22278011.285
 115002769.043 8  89612574.03545  21884299.000                    21884306.352
 126066083.579 6  98233341.72843  23989584.016                    23989594.586
 107728187.625 8  83944081.101 8  20499990.320                    20499998.750
 113428910.539 7  88386216.90045  21584797.844                    21584807.254
 114156829.184 7  88953397.09745  21723327.500                    21723337.176
 124483332.672 6  97000004.81543  23688405.969                    23688416.457
 11  8 11 18 19 30.0000000  0 10G24G28G01G11G19G03G07G08G13G23
 124594153.253 7  97086453.48943  23709483.336                    23709497.309
 119591309.054 7  93188130.32545  22757473.555                    22757482.578
 126990450.509 6  98953722.412 6  24165487.648                    24165501.648
 117013047.912 7  91179165.60545  22266862.000                    22266871.258
 115075325.351 7  89669111.41845  21898106.172                    21898112.949
 126175543.001 6  98318634.73543  24010414.438                    24010423.898
 107701058.703 8  83922941.687 7  20494828.188                    20494836.438
 113360659.093 8  88333033.96545  21571810.164                    21571818.961
 114249502.421 7  89025609.93145  21740962.570                    21740973.004
 124597430.263 6  97088911.74943  23710118.344                    23710129.211
 11  8 11 18 20  0.0000000  0 10G24G28G01G11G19G03G07G08G13G23
 124520530.040 6  97029084.94743  23695472.813                    23695486.887
 119553955.216 7  93159023.48944  22750365.156                    22750373.996
 126971199.447 6  98938721.743 6  24161824.758                    24161838.078
 116954858.411 7  91133823.18245  22255788.922                    22255798.711
 115148309.564 7  89725982.21645  21911994.453                    21912001.273
 126285114.313 6  98404014.93543  24031264.797                    24031274.180
 107674239.836 8  83902043.866 8  20489724.555                    20489732.609
 113292526.846 8  88279943.92845  21558845.352                    21558854.156
 114342513.431 8  89098085.94945  21758662.180                    21758671.992
 124711593.449 6  97177869.83943  23731843.289                    23731853.863
 11  8 11 18 20 30.0000000  0 10G24G28G01G11G19G03G07G08G13G23
 124446977.853 6  96971771.75143  23681475.938                    23681490.285
 119516752.923 7  93130034.73244  22743285.484                    22743294.695
 126952376.331 6  98924054.481 6  24158242.578                    24158255.426
 116897023.665 7  91088757.18045  22244783.250                    22244792.660
 115221719.428 7  89783184.70045  21925963.219                    21925971.102
 126394794.714 6  98489480.14643  24052135.281                    24052146.379
 107647732.871 8  83881389.088 8  20484680.477                    20484688.813
 113224515.862 8  88226948.37845  21545902.953                    21545911.656
 114435859.190 7  89170822.81445  21776425.484                    21776435.336
 124825819.491 6  97266876.91343  23753579.398                    23753590.797
 11  8 11 18 21  0.0000000  0 10G24G28G01G11G19G03G07G08G13G23
 124373499.892 6  96914516.36543  23667494.063                    23667507.859
 119479701.767 7  93101163.74645  22736235.086                    22736244.410
 126933983.183 6  98909722.283 6  24154742.328                    24154755.449
 116839546.650 7  91043969.94745  22233845.211                    22233854.930
 115295552.639 8  89840717.05545  21940014.047                    21940020.559
 126504582.009 6  98575028.65742  24073027.695                    24073037.695
 107621540.545 8  83860979.473 8  20479696.211                    20479704.539
 113156628.596 8  88174049.21845  21532984.328                    21532992.930
 114529537.150 7  89243818.54745  21794251.859                    21794261.234
 124940105.650 6  97355930.79643  23775327.883                    23775338.809
 11  8 11 18 21 30.0000000  0 10G24G28G01G11G19G03G07G08G13G23
 124300099.160 6  96857321.17043  23653526.008                    23653539.254
 119442800.784 7  93072409.76945  22729213.266                    22729222.219
 126916020.849 6  98895725.785 6  24151323.938                    24151337.250
 116782429.977 7  90999463.51645  22222976.984                    22222986.344
 115369806.194 8  89898576.94645  21954143.969                    21954151.078
 126614473.527 6  98660658.35443  24093939.539                    24093949.203
 107595664.223 8  83840816.109 8  20474771.891                    20474780.348
 113088866.728 8  88121247.77845  21520089.500                    21520098.723
 114623544.483 7  89317070.92745  21812140.883                    21812150.586
 125054448.700 7  97445029.01843  23797087.031                    23797098.566
 11  8 11 18 22  0.0000000  0 10G24G28G01G11G19G03G07G08G13G23
 124226778.455 6  96800188.35343  23639573.227                    23639587.141
 119406048.837 7  93043771.91545  22722219.320                    22722228.434
 126898491.170 6  98882066.380 6  24147988.313                    24148001.449
 116725676.643 7  90955240.21745  22212176.719                    22212186.441
 115444477.343 8  89956762.22945  21968353.711                    21968360.035
 126724466.568 6  98746367.21243  24114871.563                    24114879.695
 107570105.749 8  83820900.411 8  20469908.188                    20469916.895
 113021232.414 8  88068545.73245  21507219.102                    21507228.438
 114717877.748 7  89390577.27545  21830091.938                    21830101.652
 125168845.739 6  97534169.29644  23818856.383                    23818867.766
 11  8 11 18 22 30.0000000  0 10G24G28G01G11G19G03G07G08G13G23
 124153540.601 6  96743120.07943  23625636.516                    23625650.340
 119369444.641 7  93015249.19744  22715253.828                    22715262.910
 126881395.625 6  98868745.250 6  24144735.016                    24144747.965
 116669289.003 7  90911301.87045  22201446.500                    22201455.801
 115519563.209 8  90015270.67545  21982641.727                    21982648.676
 126834558.396 6  98832152.98343  24135821.086                    24135830.215
 107544866.835 8  83801233.722 8  20465105.977                    20465114.152
 112953727.220 8  88015944.29245  21494373.602                    21494382.652
 114812534.169 7  89464335.43745  21848104.523                    21848114.234
 125283294.179 7  97623349.62044  23840634.844                    23840646.637
 11  8 11 18 23  0.0000000  0 10G24G28G01G11G19G03G07G08G13G23
 124080389.296 6  96686119.20143  23611715.516                    23611729.293
 119332988.091 7  92986841.53345  22708316.375                    22708325.215
 126864736.200 6  98855763.942 6  24141564.484                    24141578.152
 116613270.349 7  90867651.05945  22190786.023                    22190795.520
 115595061.681 8  90074100.62745  21997008.500                    21997015.898
 126944746.873 6  98918014.10143  24156788.734                    24156798.602
 107519949.643 8  83781817.732 8  20460363.945                    20460372.340
 112886353.551 8  87963445.35146  21481552.711                    21481561.938
 114907511.419 7  89538343.59645  21866178.375                    21866187.953
 125397791.398 7  97712567.96244  23862423.227                    23862434.758
 11  8 11 18 23 30.0000000  0 10G24G28G01G11G19G03G07G08G13G23
 124007327.664 6  96629188.24043  23597812.766                    23597826.051
 119296678.694 7  92958548.53945  22701406.750                    22701415.516
 126848515.049 6  98843124.111 6  24138478.164                    24138490.945
 116557623.805 7  90824290.21345  22180197.641                    22180206.395
 115670970.300 7  90133250.15645  22011453.680                    22011460.852
 127055029.807 6  99003948.79543  24177774.555                    24177785.523
 107495356.769 8  83762654.444 8  20455684.383                    20455692.184
 112819114.134 8  87911051.01746  21468757.492                    21468766.676
 115002806.603 7  89612599.49345  21884312.461                    21884322.117
 125512335.090 7  97801822.51044  23884220.875                    23884232.438
 11  8 11 18 24  0.0000000  0  9G24G28G01G11G19G07G08G13G23
 123934358.396 6  96572329.21143  23583927.383                    23583940.484
 119260515.002 7  92930369.07045  22694525.234                    22694533.945
 126832732.919 6  98830826.335 6  24135474.453                    24135487.520
 116502352.054 7  90781221.42445  22169678.695                    22169688.566
 115747286.059 8  90192716.95245  22025976.219                    22025983.234
 107471089.250 8  83743744.684 8  20451066.375                    20451074.219
 112752010.672 8  87858762.62846  21455988.406                    21455997.113
 115098416.343 7  89687100.49045  21902506.273                    21902516.270
 125626921.717 7  97891110.49744  23906025.758                    23906037.672
 11  8 11 18 24 30.0000000  0  9G24G28G01G11G19G07G08G13G23
 123861484.721 6  96515544.66243  23570059.430                    23570072.758
 119224496.250 7  92902302.54145  22687671.141                    22687679.488
 126817391.305 6  98818871.842 6  24132554.641                    24132568.316
 116447457.203 7  90738446.30345  22159232.875                    22159242.246
 115824006.064 8  90252498.72745  22040575.297                    22040582.547
 107447149.123 8  83725090.032 8  20446510.680                    20446518.820
 112685045.055 8  87806581.64546  21443244.906                    21443254.184
 115194337.487 7  89761844.14845  21920759.516                    21920769.219
 125741548.595 6  97980429.84543  23927839.227                    23927850.836
 11  8 11 18 25  0.0000000  0  9G24G28G01G11G19G07G08G13G23
 123788709.422 6  96458836.76143  23556211.289                    23556223.953
 119188621.096 7  92874347.92345  22680843.977                    22680853.070
 126802491.771 6  98807261.815 6  24129720.688                    24129733.316
 116392941.714 7  90695966.80345  22148858.844                    22148868.426
 115901127.213 8  90312593.09945  22055250.938                    22055257.930
 107423537.564 8  83706691.414 8  20442017.625                    20442025.980
 112618219.110 8  87754509.48546  21430528.102                    21430537.113
 115290566.999 7  89836828.08745  21939071.703                    21939081.168
 125856212.365 6  98069777.95343  23949658.977                    23949670.605
 11  8 11 18 25 30.0000000  0  9G24G28G01G11G19G07G08G13G23
 123716035.702 7  96402208.01343  23542381.523                    23542394.676
 119152888.712 7  92846504.55645  22674044.352                    22674053.430
 126788035.648 6  98795997.241 6  24126968.523                    24126981.980
 116338808.763 7  90653785.38245  22138557.891                    22138567.074
 115978647.227 7  90372998.26345  22070002.852                    22070009.680
 107400256.779 8  83688550.541 8  20437587.438                    20437595.508
 112551534.790 8  87702547.69046  21417839.070                    21417847.727
 115387101.926 7  89912050.01645  21957441.508                    21957451.395
 125970910.577 6  98159152.86943  23971486.094                    23971497.094
 11  8 11 18 26  0.0000000  0  9G24G28G01G11G19G07G08G13G23
 123643466.381 7  96345660.60443  23528572.742                    23528585.465
 119117298.293 7  92818771.81945  22667271.297                    22667280.523
 126774024.364 6  98785079.324 6  24124302.594                    24124315.594
 116285060.749 7  90611903.91345  22128329.742                    22128338.445
 116056563.503 8  90433712.21645  22084829.664                    22084836.930
 107377308.510 8  83670668.771 8  20433220.320                    20433228.371
 112484994.183 8  87650697.88046  21405176.734                    21405185.281
 115483939.315 7  89987507.62245  21975869.094                    21975879.469
 126085640.277 6  98248552.30343  23993318.320                    23993329.965
 11  8 11 18 26 30.0000000  0  9G24G28G01G11G19G07G08G13G23
 123571004.607 7  96289197.02243  23514782.594                    23514795.953
 119081849.027 7  92791149.07845  22660525.922                    22660534.363
 126760459.751 6  98774509.455 6  24121721.836                    24121735.293
 116231700.588 7  90570324.66645  22118175.477                    22118183.980
 116134872.950 7  90494732.53245  22099731.453                    22099738.625
 107354694.465 8  83653047.434 8  20428916.875                    20428924.949
 112418599.497 8  87598961.77446  21392542.117                    21392550.988
 115581076.262 8  90063198.65645  21994353.945                    21994363.789
 126200398.711 6  98337974.17242  24015155.188                    24015167.980
 11  8 11 18 27  0.0000000  0  9G24G28G01G11G19G07G08G13G23
 123498653.667 7  96232819.79143  23501014.891                    23501027.813
 119046540.106 7  92763635.69645  22653807.102                    22653815.711
 126747342.675 6  98764288.297 6  24119226.008                    24119239.043
 116178730.824 7  90529049.62544  22108096.039                    22108104.609
 116213572.775 7  90556057.04345  22114707.852                    22114714.547
 107332417.057 8  83635688.416 7  20424677.750                    20424686.070
 112352353.191 8  87547341.28746  21379935.820                    21379944.559
 115678509.667 7  90139120.69645  22012894.703                    22012905.051
 126315183.290 6  98427416.41943  24036998.211                    24037010.645
 11  8 11 18 27 30.0000000  0  9G24G28G01G11G19G07G08G13G23
 123426416.534 7  96176531.26844  23487268.289                    23487281.215
 119011370.396 7  92736230.77845  22647113.922                    22647122.828
 126734674.928 6  98754417.270 6  24116815.375                    24116828.344
 116126154.237 7  90488080.93545  22098090.875                    22098099.480
 116292660.384 7  90617683.72445  22129757.617                    22129764.418
 107310477.382 8  83618592.570 7  20420502.789                    20420510.910
 112286257.220 8  87495837.93546  21367357.977                    21367367.059
 115776236.591 7  90215271.45945  22031491.539                    22031501.609
 126429991.046 6  98516876.73042  24058846.766                    24058858.316
 11  8 11 18 28  0.0000000  0  9G24G28G01G11G19G07G08G13G23
 123354296.151 7  96120333.68944  23473544.805                    23473557.805
 118976338.990 7  92708933.62845  22640448.133                    22640456.559
 126722457.917 6  98744897.443 6  24114490.594                    24114503.941
 116073973.165 7  90447420.42845  22088161.125                    22088169.875
 116372132.778 7  90679610.24445  22144881.070                    22144887.824
 107288877.367 8  83601761.392 7  20416392.523                    20416401.102
 112220313.260 8  87444453.04846  21354809.586                    21354818.359
 115874253.776 7  90291648.37845  22050144.078                    22050154.285
 126544818.909 6  98606352.69443  24080697.875                    24080709.684
 11  8 11 18 28 30.0000000  0  9G24G28G01G11G19G07G08G13G23
 123282295.889 7  96064229.72644  23459843.031                    23459855.766
 118941445.396 7  92681743.87845  22633808.156                    22633816.809
 126710692.974 6  98735729.932 6  24112251.953                    24112264.887
 116022191.041 7  90407070.78945  22078306.578                    22078315.996
 116451987.740 7  90741834.85845  22160076.750                    22160083.770
 107267619.104 8  83585196.500 8  20412347.008                    20412355.250
 112154523.936 8  87393188.65346  21342290.484                    21342298.906
 115972558.381 7  90368249.28345  22068850.422                    22068860.980
 126659664.489 7  98695842.47143  24102551.844                    24102563.961
 11  8 11 18 29  0.0000000  0  9G24G28G01G11G19G07G08G13G23
 123210418.897 7  96008221.80844  23446164.945                    23446178.195
 118906688.851 7  92654660.90944  22627194.000                    22627202.551
 126699381.557 6  98726915.818 6  24110098.711                    24110112.496
 115970810.685 7  90367034.20845  22068529.813                    22068538.578
 116532222.650 7  90804355.53245  22175344.641                    22175351.852
 107246704.648 8  83568899.519 8  20408367.359                    20408375.637
 112088891.401 8  87342046.43346  21329800.828                    21329809.520
 116071147.661 7  90445071.98545  22087611.750                    22087621.277
 126774524.916 6  98785343.78743  24124409.211                    24124422.199
 11  8 11 18 29 30.0000000  0 10G24G28G01G17G11G19G07G08G13G23
 123138668.005 7  95952312.17843  23432511.172                    23432524.379
 118872068.119 7  92627683.76745  22620605.828                    22620614.207
 126688525.215 6  98718456.352 6  24108032.805                    24108046.422
 129495834.49116 100905892.68716  24642245.234                    24642259.945
 115919833.767 7  90327311.98045  22058829.117                    22058838.188
 116612834.403 7  90867169.85045  22190685.172                    22190691.676
 107226135.762 8  83552871.814 8  20404453.383                    20404461.098
 112023417.788 8  87291028.04646  21317341.531                    21317350.402
 116170018.404 7  90522114.01445  22106426.289                    22106436.613
 126889397.771 7  98874854.76143  24146270.219                    24146282.313
 11  8 11 18 30  0.0000000  0 10G24G28G01G17G11G19G07G08G13G23
 123067046.320 7  95896503.21944  23418881.695                    23418895.297
 118837582.221 7  92600811.68945  22614043.148                    22614051.633
 126678124.919 6  98710352.263 6  24106054.336                    24106067.285
 129391059.783 6 100824250.336 6  24622305.766                    24622322.043
 115869262.840 7  90287906.10545  22049205.625                    22049214.719
 116693819.940 7  90930275.43445  22206095.648                    22206102.758
 107205913.780 8  83537114.443 8  20400605.094                    20400613.215
 111958104.783 8  87240134.80646  21304913.117                    21304921.348
 116269167.475 7  90599372.92744  22125293.977                    22125304.063
 127004279.665 6  98964372.76443  24168130.648                    24168143.816
 11  8 11 18 30 30.0000000  0 10G24G28G01G17G11G19G07G08G13G23
 122995557.146 7  95840797.52144  23405278.578                    23405291.012
 118803230.395 7  92574044.07445  22607506.227                    22607514.836
 126668182.409 6  98702604.891 6  24104162.414                    24104175.574
 129286386.099 6 100742686.646 6  24602387.414                    24602403.207
 115819101.120 7  90248819.08945  22039660.195                    22039669.102
 116775176.763 7  90993670.33345  22221577.523                    22221584.477
 107186040.772 8  83521628.956 8  20396823.375                    20396831.531
 111892954.845 8  87189368.63446  21292515.211                    21292524.000
 116368591.939 7  90676846.42745  22144213.289                    22144223.695
 127119167.941 7  99053895.74843  24189993.703                    24190006.066
 11  8 11 18 31  0.0000000  0 10G24G28G01G17G11G19G07G08G13G23
 122924203.824 7  95785197.69144  23391700.242                    23391712.641
 118769012.172 7  92547380.57145  22600995.266                    22601003.457
 126658698.784 6  98695215.161 6  24102358.320                    24102371.152
 129181815.494 6 100661203.354 6  24582488.000                    24582504.160
 115769351.137 7  90210052.88845  22030193.281                    22030202.348
 116856902.564 7  91057352.74045  22237129.461                    22237136.695
 107166518.529 8  83506416.818 8  20393108.445                    20393116.449
 111827970.598 8  87138731.57346  21280149.000                    21280157.758
 116468288.909 7  90754532.27345  22163185.438                    22163195.777
 127234060.494 6  99143422.06743  24211856.875                    24211869.684
 11  8 11 18 31 30.0000000  0 10G24G28G01G17G11G19G07G08G13G23
 122852989.964 7  95729706.52343  23378148.258                    23378160.828
 118734927.142 7  92520820.82945  22594508.781                    22594517.305
 126649675.993 6  98688184.530 6  24100639.820                    24100653.395
 129077350.854 6 100579802.606 5  24562608.031                    24562625.113
 115720016.386 8  90171610.26145  22020804.906                    22020813.809
 116938994.501 7  91121320.44145  22252750.977                    22252758.320
 107147349.647 8  83491480.033 8  20389460.563                    20389469.125
 111763154.894 8  87088225.83846  21267815.172                    21267824.184
 116568256.168 7  90832428.71745  22182208.391                    22182219.270
 127348955.091 6  99232949.94943  24233721.945                    24233734.355
 11  8 11 18 32  0.0000000  0 10G24G28G01G17G11G19G07G08G13G23
 122781917.380 7  95674325.43143  23364623.344                    23364635.922
 118700973.323 7  92494363.34845  22588047.125                    22588055.988
 126641114.374 6  98681513.273 6  24099010.781                    24099023.816
 128972993.231 6 100498485.274 6  24542750.094                    24542765.992
 115671098.344 7  90133492.32845  22011496.102                    22011504.785
 117021449.521 7  91185571.06545  22268441.945                    22268449.246
 107128534.953 8  83476819.238 8  20385880.508                    20385888.816
 111698508.848 8  87037852.30246  21255512.984                    21255522.035
 116668489.373 7  90910532.40045  22201282.414                    22201292.871
 127463847.688 6  99322476.25843  24255584.133                    24255597.809
 11  8 11 18 32 30.0000000  0 10G24G28G01G17G11G19G07G08G13G23
 122710989.227 7  95619056.87044  23351126.523                    23351138.766
 118667149.700 7  92468007.31145  22581610.836                    22581619.371
 126633014.689 6  98675201.950 6  24097469.930                    24097483.078
 128868744.525 6 100417252.786 6  24522912.203                    24522928.176
 115622599.332 7  90095700.91345  22002266.922                    22002276.148
 117104264.614 7  91250102.26645  22284200.953                    22284208.238
 107110076.098 8  83462435.721 8  20382368.094                    20382375.879
 111634034.535 8  86987612.59746  21243244.164                    21243252.715
 116768985.699 7  90988841.11245  22220406.094                    22220417.301
 127578735.687 6  99411998.94443  24277447.906                    24277460.551
 11  8 11 18 33  0.0000000  0 10G24G28G01G17G11G19G07G08G13G23
 122640208.839 7  95563903.48343  23337657.016                    23337669.336
 118633455.717 7  92441752.29745  22575199.211                    22575207.574
 126625378.661 6  98669251.894 6  24096016.438                    24096029.559
 128764606.861 6 100336106.812 6  24503094.688                    24503110.965
 115574522.315 7  90058238.32145  21993118.617                    21993127.590
 117187436.827 7  91314911.74145  22300028.203                    22300035.441
 107091974.902 8  83448330.889 8  20378923.094                    20378931.684
 111569734.359 8  86937508.57246  21231008.219                    21231016.625
 116869742.133 7  91067352.49944  22239579.734                    22239590.438
 127693616.276 6  99501515.96842  24299309.484                    24299321.645
 11  8 11 18 33 30.0000000  0 10G24G28G01G17G11G19G07G08G13G23
 122569579.188 7  95508867.49744  23324216.719                    23324228.863
 118599890.181 7  92415597.35945  22568811.688                    22568820.355
 126618207.163 6  98663663.811 6  24094651.828                    24094664.617
 128660582.342 6 100255048.998 6  24483299.813                    24483315.602
 115526869.388 7  90021106.19145  21984049.953                    21984059.512
 117270963.212 7  91379997.19945  22315922.602                    22315929.711
 107074232.876 8  83434505.940 8  20375547.109                    20375555.285
 111505610.335 8  86887541.82046  21218805.586                    21218814.617
 116970755.328 7  91146063.96245  22258801.953                    22258812.934
 127808486.748 6  99591025.08243  24321168.172                    24321181.684
 11  8 11 18 34  0.0000000  0 10G24G28G01G17G11G19G07G08G13G23
 122499103.230 7  95453951.30943  23310805.133                    23310817.734
 118566452.125 7  92389541.77045  22562448.836                    22562456.930
 126611501.328 6  98658438.571 6  24093374.969                    24093388.605
 128556672.767 6 100174080.741 6  24463527.016                    24463541.766
 115479642.867 7  89984306.31745  21975062.891                    21975072.379
 117354841.003 7  91445356.47845  22331884.352                    22331891.254
 107056851.797 8  83420962.240 8  20372239.555                    20372247.512
 111441664.583 8  86837713.97546  21206637.258                    21206646.281
 117072022.166 7  91224973.06245  22278072.539                    22278083.059
 127923344.182 6  99680523.99543  24343025.391                    24343038.223
 11  8 11 18 34 30.0000000  0 10G24G28G01G17G11G19G07G08G13G23
 122428784.364 6  95399157.51243  23297423.234                    23297436.734
 118533140.887 7  92363585.00145  22556109.492                    22556118.379
 126605262.593 6  98653577.296 7  24092187.922                    24092201.652
 128452880.526 6 100093203.887 6  24443775.453                    24443790.691
 115432845.657 7  89947840.97845  21966157.922                    21966166.906
 117439067.842 7  91510987.74045  22347912.023                    22347919.199
 107039833.764 8  83407701.450 8  20369001.086                    20369009.324
 111377899.364 8  86788026.80746  21194503.438                    21194512.305
 117173540.046 7  91304077.78444  22297390.594                    22297401.691
 128038186.218 6  99770010.95542  24364879.516                    24364891.992
 11  8 11 18 35  0.0000000  0 10G24G28G01G17G11G19G07G08G13G23
 122358625.919 7  95344488.68643  23284072.719                    23284085.551
 118499955.969 7  92337726.66345  22549794.719                    22549803.527
 126599491.956 6  98649080.734 6  24091089.867                    24091103.113
 128349207.903 6 100012420.243 6  24424046.813                    24424062.320
 115386480.623 7  89911712.39145  21957334.953                    21957344.094
 117523640.723 7  91576888.65545  22364005.938                    22364012.824
 107023180.570 8  83394724.938 8  20365831.891                    20365840.324
 111314317.269 8  86738482.31546  21182404.078                    21182412.949
 117275306.085 7  91383375.88544  22316756.586                    22316766.828
 128153010.416 6  99859484.01742  24386730.438                    24386743.188
 11  8 11 18 35 30.0000000  0 10G24G28G01G17G11G19G07G08G13G23
 122288630.720 7  95289947.05343  23270753.281                    23270766.121
 118466896.259 7  92311965.88645  22543503.789                    22543512.262
 126594190.582 6  98644949.805 7  24090080.922                    24090094.770
 128245657.035 6  99931731.435 6  24404341.695                    24404356.688
 115340549.908 7  89875922.24645  21948594.586                    21948604.016
 117608557.066 7  91643057.20845  22380164.758                    22380171.277
 107006893.968 8  83382034.078 8  20362732.813                    20362741.082
 111250920.466 8  86689082.22246  21170339.781                    21170348.914
 117377317.484 7  91462865.16744  22336168.531                    22336179.031
 128267813.805 6  99948940.84242  24408576.375                    24408588.773
 11  8 11 18 36  0.0000000  0 10G24G28G01G17G11G19G07G08G13G23
 122218801.731 7  95235534.94443  23257465.523                    23257477.137
 118433960.960 7  92286302.05145  22537236.367                    22537245.082
 126589359.653 6  98641185.436 6  24089161.289                    24089175.281
 128142229.783 6  99851138.960 6  24384660.273                    24384675.215
 115295055.879 7  89840472.37745  21939937.422                    21939946.254
 117693813.711 7  91709490.92845  22396388.656                    22396395.406
 106990975.613 8  83369630.165 8  20359703.617                    20359711.820
 111187711.112 8  86639828.19846  21158311.539                    21158320.508
 117479570.563 7  91542542.78344  22355626.992                    22355637.117
 128382593.801 6 100038379.49442  24430418.969                    24430431.328
 11  8 11 18 36 30.0000000  0 10G24G28G01G17G11G19G07G08G13G23
 122149142.932 7  95181255.44943  23244209.484                    23244221.449
 118401149.419 7  92260734.65745  22530992.805                    22531001.121
 126585000.489 6  98637788.670 6  24088332.406                    24088345.414
 128038928.624 6  99770644.733 6  24365002.203                    24365017.789
 115250001.597 7  89805365.17445  21931363.203                    21931373.270
 117779408.347 7  91776188.00245  22412677.008                    22412683.871
 106975427.622 8  83357514.848 8  20356744.813                    20356753.199
 111124692.002 8  86590722.40746  21146319.523                    21146328.215
 117582062.929 7  91622406.86244  22375130.359                    22375140.668
 128497348.042 6 100127798.01542  24452255.602                    24452268.387
 11  8 11 18 37  0.0000000  0  9G24G28G01G17G11G19G07G08G13
 122079657.366 7  95127110.95743  23230986.398                    23230999.000
 118368460.986 7  92235263.17145  22524772.211                    22524780.629
 126581114.380 6  98634760.495 6  24087592.891                    24087606.195
 127935755.509 6  99690250.287 6  24345369.086                    24345383.957
 115205389.502 7  89770602.52945  21922874.438                    21922883.527
 117865338.285 7  91843146.36745  22429028.891                    22429035.656
 106960251.559 8  83345689.335 8  20353856.820                    20353865.344
 111061865.527 8  86541766.73246  21134363.867                    21134372.758
 117684791.457 7  91702454.95544  22394679.063                    22394689.504
 11  8 11 18 37 30.0000000  0  9G24G28G01G17G11G19G07G08G13
 122010348.087 7  95073103.79043  23217797.633                    23217809.793
 118335894.826 7  92209886.98245  22518575.078                    22518583.445
 126577702.258 6  98632101.655 7  24086943.461                    24086956.617
 127832712.840 6  99609957.454 6  24325760.031                    24325775.414
 115161222.228 7  89736186.50545  21914469.633                    21914479.109
 117951600.716 7  91910363.80745  22445444.148                    22445451.199
 106945449.701 8  83334155.416 8  20351040.609                    20351048.844
 110999234.236 8  86492963.13746  21122445.813                    21122454.043
 117787753.012 7  91782684.61644  22414272.422                    22414282.520
 11  8 11 18 38  0.0000000  0  9G24G28G01G17G11G19G07G08G13
 121941217.254 7  95019235.67943  23204642.719                    23204655.039
 118303448.869 7  92184604.44745  22512401.125                    22512409.211
 126574764.397 6  98629812.356 6  24086385.281                    24086397.938
 127729801.560 6  99529767.031 6  24306177.141                    24306191.895
 115117501.003 7  89702118.04645  21906149.570                    21906158.594
 118038192.385 7  91977837.79945  22461922.164                    22461929.148
 106931022.573 8  83322913.490 8  20348295.102                    20348303.188
 110936799.228 8  86444312.49446  21110564.703                    21110573.418
 117890943.897 7  91863092.99644  22433909.195                    22433919.613
 11  8 11 18 38 30.0000000  0  9G24G28G01G17G11G19G07G08G13
 121872268.439 7  94965509.39244  23191521.641                    23191534.723
 118271122.808 7  92159415.32845  22506249.297                    22506257.570
 126572301.958 6  98627893.530 7  24085915.820                    24085929.688
 127627024.221 6  99449680.982 6  24286618.711                    24286633.883
 115074228.616 7  89668399.33845  21897915.102                    21897924.469
 118125110.365 7  92045566.07045  22478462.094                    22478468.953
 106916971.920 8  83311964.922 8  20345621.258                    20345629.426
 110874563.151 8  86395816.86246  21098721.031                    21098730.484
 117994361.098 7  91943677.70544  22453588.234                    22453598.977
 11  8 11 18 39  0.0000000  0  9G24G28G01G17G11G19G07G08G13
 121803504.364 7  94911927.05544  23178436.359                    23178448.758
 118238915.614 7  92134318.82945  22500120.141                    22500128.875
 126570315.929 6  98626345.903 6  24085538.422                    24085551.629
 127524382.706 6  99369700.779 6  24267086.719                    24267101.305
 115031407.243 7  89635032.06945  21889766.898                    21889775.711
 118212351.595 7  92113546.22845  22495062.813                    22495070.102
 106903299.413 8  83301311.015 8  20343019.516                    20343027.590
 110812527.892 8  86347477.71046  21086916.469                    21086925.445
 118098001.363 7  92024436.23044  22473310.703                    22473321.156
 11  8 11 18 39 30.0000000  0  9G24G28G01G17G11G19G07G08G13
 121734928.386 7  94858491.26843  23165386.430                    23165399.492
 118206826.445 7  92109314.31145  22494014.109                    22494022.734
 126568807.605 6  98625170.520 6  24085251.398                    24085264.438
 127421879.296 6  99289828.216 6  24247580.797                    24247595.680
 114989039.501 7  89602018.29845  21881704.234                    21881713.320
 118299913.561 7  92181776.28845  22511726.227                    22511733.105
 106890007.095 8  83290953.346 8  20340490.172                    20340498.125
 110750696.075 8  86299297.09046  21075150.609                    21075159.309
 118201862.287 7  92105366.69244  22493075.000                    22493085.637
 11  8 11 18 40  0.0000000  0 10G24G28G01G17G26G11G19G07G08G13
 121666543.751 7  94805204.57044  23152373.836                    23152386.863
 118174854.549 7  92084401.17645  22487929.891                    22487938.184
 126567777.372 6  98624367.705 7  24085055.383                    24085068.871
 127319515.874 7  99210064.739 6  24228101.922                    24228116.184
 127386315.62516  99262120.52353  24240813.664                    24240824.559
 114947127.314 7  89569359.49545  21873728.938                    21873738.207
 118387793.430 7  92250254.09545  22528448.391                    22528455.402
 106877096.644 8  83280893.240 8  20338033.242                    20338041.520
 110689070.087 8  86251276.85046  21063423.266                    21063432.328
 118305940.653 7  92186466.59244  22512880.875                    22512891.043
 11  8 11 18 40 30.0000000  0 10G24G28G01G17G26G11G19G07G08G13
 121598352.711 7  94752068.71944  23139397.422                    23139409.527
 118142998.135 7  92059578.01445  22481868.031                    22481876.266
 126567225.307 6  98623937.492 6  24084950.250                    24084963.734
 127217293.986 6  99130411.576 6  24208649.023                    24208663.883
 127297684.827 6  99193057.63943  24223947.273                    24223958.461
 114905672.750 7  89537057.28845  21865840.250                    21865849.340
 118475987.613 7  92318976.82145  22545231.438                    22545238.844
 106864568.874 8  83271131.334 8  20335649.172                    20335657.602
 110627651.616 8  86203418.31246  21051735.758                    21051744.691
 118410232.173 7  92267732.58844  22532726.805                    22532737.422
 11  8 11 18 41  0.0000000  0 10G24G28G01G17G26G11G19G07G08G13
 121530358.919 7  94699086.56344  23126458.453                    23126470.477
 118111256.858 7  92034844.60745  22475827.336                    22475836.309
 126567153.471 6  98623881.470 7  24084937.250                    24084950.090
 127115215.720 6  99050870.347 6  24189224.281                    24189237.945
 127209431.667 6  99124289.01243  24207152.953                    24207164.402
 114864678.602 8  89505113.85345  21858039.391                    21858048.043
 118564493.820 7  92387942.67345  22562073.969                    22562080.910
 106852425.998 8  83261669.338 8  20333338.258                    20333346.672
 110566443.439 8  86155723.64946  21040088.055                    21040096.887
 118514734.568 7  92349162.89744  22552612.891                    22552623.250
 11  8 11 18 41 30.0000000  0 10G24G28G01G17G26G11G19G07G08G13
 121462565.768 7  94646260.76544  23113557.688                    23113570.484
 118079630.448 7  92010200.68945  22469809.258                    22469817.477
 126567562.495 6  98624200.204 7  24085014.367                    24085028.508
 127013283.373 7  98971442.848 6  24169826.555                    24169840.859
 127121559.279 6  99055817.06243  24190432.352                    24190442.867
 114824147.428 7  89473531.18445  21850326.383                    21850334.828
 118653309.084 7  92457149.35145  22578974.742                    22578981.902
 106840669.707 8  83252508.586 8  20331101.680                    20331109.590
 110505448.150 8  86108194.86146  21028481.359                    21028489.883
 118619445.086 7  92430755.36344  22572538.664                    22572549.461
 11  8 11 18 42  0.0000000  0 10G24G28G01G17G26G11G19G07G08G13
 121394976.260 7  94593593.64144  23100695.883                    23100708.754
 118048117.759 7  91985645.38545  22463812.656                    22463821.133
 126568453.291 6  98624894.347 7  24085184.219                    24085197.164
 126911499.294 6  98892130.889 6  24150457.281                    24150472.023
 127034070.203 6  98987643.86042  24173782.539                    24173794.254
 114784081.062 7  89442310.69445  21842701.969                    21842711.234
 118742431.006 7  92526594.97645  22595934.094                    22595941.211
 106829301.618 8  83243650.320 8  20328938.156                    20328946.441
 110444668.016 8  86060833.73246  21016915.211                    21016924.176
 118724360.388 7  92512507.42744  22592503.063                    22592514.332
 11  8 11 18 42 30.0000000  0 10G24G28G01G17G26G11G19G07G08G13
 121327593.559 7  94541087.66044  23087873.664                    23087886.094
 118016717.829 7  91961177.93845  22457837.414                    22457845.340
 126569826.735 6  98625964.582 7  24085445.539                    24085458.660
 126809865.163 6  98812935.783 6  24131117.070                    24131131.016
 126946967.754 6  98919771.86643  24157207.805                    24157218.719
 114744482.011 7  89411454.35045  21835166.203                    21835175.039
 118831856.926 7  92596277.49045  22612951.484                    22612958.051
 106818323.660 8  83235096.056 8  20326849.180                    20326857.652
 110384105.728 8  86013642.35446  21005390.398                    21005399.270
 118829477.384 7  92594416.64744  22612506.594                    22612517.848
 11  8 11 18 43  0.0000000  0 10G24G28G01G17G26G11G19G07G08G13
 121260420.710 6  94488745.23644  23075090.766                    23075103.699
 117985429.698 7  91936797.62445  22451883.688                    22451891.664
 126571683.477 6  98627411.424 7  24085798.484                    24085812.578
 126708383.617 6  98733859.570 6  24111805.859                    24111819.117
 126860254.437 6  98852203.07142  24140707.258                    24140717.445
 114705352.784 7  89380964.10445  21827720.406                    21827729.453
 118921583.804 7  92666194.51745  22630025.086                    22630032.820
 106807737.538 8  83226847.120 8  20324834.625                    20324842.914
 110323763.450 8  85966622.41746  20993907.633                    20993916.414
 118934793.594 7  92676481.09844  22632547.977                    22632558.922
 11  8 11 18 43 30.0000000  0 10G24G28G01G17G26G11G19G07G08G13
 121193460.977 7  94436568.89744  23062348.344                    23062361.246
 117954252.772 7  91912503.95645  22445950.406                    22445958.852
 126574024.455 6  98629235.612 7  24086243.664                    24086257.793
 126607055.976 6  98654903.303 6  24092523.125                    24092537.598
 126773932.699 6  98784939.42443  24124280.844                    24124291.270
 114666695.263 7  89350841.40545  21820363.844                    21820373.320
 119011608.457 7  92736343.57845  22647156.828                    22647164.488
 106797544.642 8  83218904.594 8  20322894.961                    20322903.320
 110263643.003 8  85919775.32346  20982467.023                    20982476.180
 119040305.196 7  92758697.79844  22652626.242                    22652636.938
 11  8 11 18 44  0.0000000  0 10G24G28G01G17G26G11G19G07G08G13
 121126717.150 7  94384560.80344  23049647.578                    23049660.141
 117923185.852 7  91888295.99345  22440038.750                    22440047.156
 126576850.240 6  98631437.584 7  24086782.281                    24086794.996
 126505884.353 6  98576068.602 6  24073270.477                    24073285.039
 126688005.549 6  98717983.27242  24107928.977                    24107939.711
 114628511.657 7  89321087.99145  21813097.922                    21813106.738
 119101928.379 7  92806722.70045  22664343.875                    22664351.949
 106787746.466 8  83211269.649 8  20321030.492                    20321038.730
 110203746.975 8  85873103.10446  20971069.383                    20971078.414
 119146009.664 7  92841064.78944  22672741.211                    22672752.117
 11  8 11 18 44 30.0000000  0 10G24G28G01G17G26G11G19G07G08G13
 121060192.483 7  94332723.50144  23036988.141                    23037001.141
 117892228.729 7  91864173.58445  22434147.539                    22434156.063
 126580161.848 6  98634018.117 7  24087411.875                    24087425.063
 126404870.526 6  98497356.885 6  24054048.477                    24054062.246
 126602475.857 5  98651336.80642  24091652.273                    24091663.598
 114590804.190 7  89291705.58645  21805921.977                    21805931.211
 119192540.323 7  92877329.36345  22681587.133                    22681594.688
 106778344.652 8  83203943.548 8  20319241.469                    20319249.719
 110144077.988 8  85826607.78546  20959714.750                    20959723.289
 119251903.546 7  92923579.37844  22692891.664                    22692903.027
 11  8 11 18 45  0.0000000  0 10G24G28G01G17G26G11G19G07G08G13
 120993890.333 6  94281059.62244  23024371.188                    23024383.633
 117861379.764 7  91840135.46445  22428277.359                    22428285.473
 126583959.778 6  98636977.589 6  24088134.875                    24088147.730
 126304016.910 6  98418769.957 6  24034856.594                    24034870.051
 126517346.327 6  98585002.18043  24075452.992                    24075464.156
 114553575.009 7  89262695.87145  21798837.844                    21798846.441
 119283442.269 7  92948161.99545  22698885.250                    22698893.051
 106769341.025 8  83196927.740 8  20317527.641                    20317536.117
 110084638.825 8  85780291.56346  20948403.719                    20948412.637
 119357983.791 7  93006239.17744  22713078.445                    22713089.676
 11  8 11 18 45 30.0000000  0 10G24G28G01G17G26G11G19G07G08G13
 120927813.478 7  94229571.28844  23011797.375                    23011810.086
 117830638.281 7  91816181.09345  22422427.656                    22422435.637
 126588244.401 6  98640316.303 6  24088949.875                    24088963.387
 126203325.260 6  98340309.249 6  24015694.336                    24015709.063
 126432619.498 6  98518981.31743  24059330.813                    24059341.125
 114516825.939 8  89234060.28245  21791844.508                    21791853.238
 119374630.485 7  93019217.70445  22716238.195                    22716245.184
 106760736.454 8  83190222.869 8  20315890.781                    20315898.930
 110025431.067 8  85734155.65446  20937136.977                    20937145.355
 119464247.380 7  93089041.84244  22733299.813                    22733310.707
 11  8 11 18 46  0.0000000  0 10G24G28G01G17G26G11G19G07G08G13
 120861965.057 7  94178260.96244  22999267.055                    22999279.480
 117800003.523 7  91792309.88045  22416598.164                    22416606.016
 126593016.824 6  98644035.119 6  24089857.797                    24089870.887
 126102797.661 6  98261976.353 6  23996564.477                    23996578.809
 126348298.132 6  98453276.37743  24043284.609                    24043295.438
 114480559.577 7  89205800.82045  21784943.297                    21784952.270
 119466102.637 7  93090494.67445  22733644.859                    22733652.012
 106752533.238 8  83183830.745 8  20314329.750                    20314337.734
 109966457.387 8  85688202.14146  20925914.359                    20925923.094
 119570691.308 7  93171985.01244  22753555.523                    22753566.984
 11  8 11 18 46 30.0000000  0 10G24G28G01G17G26G11G19G07G08G13
 120796348.093 7  94127131.01544  22986780.258                    22986792.625
 117769474.871 7  91768521.33945  22410788.688                    22410796.668
 126598277.433 6  98648134.333 6  24090858.688                    24090872.094
 126002436.046 6  98183772.795 6  23977466.688                    23977480.406
 126264385.087 6  98387889.65243  24027316.117                    24027327.324
 114444777.881 7  89177919.01545  21778134.281                    21778142.938
 119557856.032 7  93161990.76045  22751104.797                    22751112.434
 106744732.835 8  83177752.499 8  20312845.531                    20312853.602
 109907719.916 8  85642432.68346  20914737.617                    20914745.727
 119677312.279 7  93255066.15044  22773845.430                    22773856.648
 11  8 11 18 47  0.0000000  0 10G24G28G01G17G26G11G19G07G08G13
 120730965.611 7  94076183.79644  22974338.039                    22974350.879
 117739050.938 7  91744814.41145  22404999.023                    22405007.563
 126604026.583 6  98652614.229 6  24091952.578                    24091965.984
 125902242.043 6  98105699.790 6  23958400.305                    23958413.773
 126180882.858 6  98322823.01843  24011426.531                    24011437.133
 114409482.614 7  89150416.23145  21771418.078                    21771426.629
 119649887.198 7  93233703.30845  22768617.414                    22768624.676
 106737336.219 8  83171988.902 8  20311437.828                    20311445.871
 109849220.763 8  85596848.93046  20903605.195                    20903613.703
 119784107.259 7  93338282.88344  22794167.648                    22794179.016
 11  8 11 18 47 30.0000000  0 10G24G28G01G17G26G11G19G07G08G13
 120665820.851 6  94025421.79344  22961941.703                    22961953.953
 117708731.149 7  91721188.63145  22399228.820                    22399237.508
 126610265.541 6  98657475.773 6  24093140.688                    24093153.031
 125802218.228 6  98027759.433 6  23939365.703                    23939379.590
 126097794.404 7  98258078.81143  23995616.148                    23995625.695
 114374676.543 7  89123294.64445  21764794.445                    21764802.824
 119742193.885 7  93305630.54945  22786183.008                    22786190.836
 106730345.657 8  83166541.714 8  20310107.648                    20310116.016
 109790963.269 8  85551453.48046  20892518.914                    20892527.711
 119891073.518 7  93421633.06844  22814522.984                    22814534.125
 11  8 11 18 48  0.0000000  0 10G24G28G01G17G26G11G19G07G08G13
 120600916.498 7  93974847.14644  22949590.391                    22949602.648
 117678514.616 7  91697643.31145  22393479.219                    22393487.539
 126616994.449 6  98662719.063 6  24094421.234                    24094433.277
 125702365.976 7  97949952.713 6  23920364.078                    23920377.918
 126015122.216 7  98193658.98143  23979883.406                    23979894.078
 114340361.044 7  89096555.31745  21758264.539                    21758273.266
 119834773.052 7  93377770.10345  22803799.891                    22803807.875
 106723761.947 8  83161411.559 8  20308854.820                    20308863.223
 109732949.467 8  85506247.92946  20881479.570                    20881488.281
 119998207.418 7  93505113.89644  22834909.930                    22834921.066
 11  8 11 18 48 30.0000000  0 10G24G28G01G17G26G11G19G07G08G13
 120536256.138 6  93924462.64043  22937285.695                    22937298.059
 117648400.962 7  91674178.15745  22387748.836                    22387757.262
 126624213.989 7  98668344.683 7  24095794.414                    24095807.824
 125602687.963 7  97872281.788 6  23901396.336                    23901409.746
 125932869.372 6  98129565.90943  23964230.859                    23964241.512
 114306538.643 7  89070200.22645  21751828.422                    21751837.063
 119927621.884 7  93450119.80245  22821468.930                    22821476.195
 106717587.637 8  83156600.412 8  20307679.875                    20307687.871
 109675181.921 8  85461234.27046  20870486.539                    20870495.367
 120105506.468 7  93588723.39244  22855328.047                    22855339.504
 11  8 11 18 49  0.0000000  0 10G24G28G01G17G26G11G19G07G08G13
 120471842.352 7  93874270.24644  22925027.867                    22925040.613
 117618388.437 7  91650791.80145  22382037.852                    22382045.945
 126631924.608 6  98674352.932 6  24097262.008                    24097275.105
 125503185.429 7  97794747.550 6  23882461.219                    23882474.676
 125851037.996 6  98065801.27043  23948658.680                    23948669.816
 114273211.025 7  89044230.68745  21745486.023                    21745494.879
 120020737.389 7  93522677.30345  22839188.836                    22839195.883
 106711823.320 8  83152108.748 8  20306582.719                    20306591.121
 109617662.498 8  85416413.95246  20859540.961                    20859550.316
 120212967.213 7  93672458.89244  22875777.398                    22875788.848
 11  8 11 18 49 30.0000000  0 10G24G28G01G17G26G11G19G07G08G13
 120407678.515 7  93824272.61944  22912817.586                    22912829.938
 117588477.025 7  91627484.22745  22376345.234                    22376353.496
 126640127.225 7  98680744.570 6  24098822.891                    24098835.949
 125403861.194 7  97717352.253 6  23863560.398                    23863573.492
 125769631.328 6  98002367.56043  23933168.086                    23933178.773
 114240380.606 7  89018648.56545  21739238.773                    21739247.633
 120114117.405 7  93595440.92345  22856957.406                    22856964.906
 106706471.050 8  83147938.153 8  20305564.313                    20305572.457
 109560394.145 8  85371789.27246  20848643.094                    20848651.836
 120320586.859 7  93756318.19744  22896256.828                    22896268.496
 11  8 11 18 50  0.0000000  0 10G24G28G01G17G26G11G19G07G08G13
 120343767.470 7  93774471.99144  22900655.805                    22900667.957
 117558665.362 7  91604254.37445  22370672.563                    22370680.691
 126648821.561 6  98687519.362 6  24100477.156                    24100490.176
 125304715.994 7  97640096.466 6  23844693.031                    23844706.719
 125688651.640 6  97939266.59243  23917757.398                    23917768.605
 114208048.842 7  88993455.00745  21733086.063                    21733095.246
 120207758.521 7  93668407.99345  22874777.711                    22874784.574
 106701531.783 8  83144089.383 8  20304624.664                    20304632.496
 109503378.921 8  85327361.83446  20837793.914                    20837802.840
 120428361.721 7  93840298.45844  22916766.172                    22916777.074
 11  8 11 18 50 30.0000000  0 10G24G28G01G17G26G11G19G07G08G13
 120280112.425 6  93724870.79844  22888542.672                    22888554.813
 117528952.843 7  91581101.78745  22365018.367                    22365026.781
 126658008.775 6  98694678.223 6  24102224.984                    24102238.242
 125205752.454 6  97562982.215 6  23825861.055                    23825874.145
 125608101.674 6  97876500.46343  23902429.000                    23902440.398
 114176217.862 7  88968651.67445  21727029.375                    21727037.469
 120301658.265 7  93741576.60845  22892645.711                    22892652.828
 106697007.317 8  83140563.835 8  20303763.391                    20303771.465
 109446619.623 8  85283133.81746  20826992.469                    20827001.176
 120536289.391 7  93924397.78244  22937304.195                    22937315.617
 11  8 11 18 51  0.0000000  0 10G24G28G01G17G26G11G19G07G08G13
 120216716.848 7  93675471.78444  22876478.875                    22876490.809
 117499338.742 7  91558025.88045  22359383.117                    22359391.594
 126667689.297 6  98702221.465 6  24104067.773                    24104081.051
 125106972.779 6  97486011.240 6  23807063.188                    23807077.059
 125527984.383 6  97814071.48643  23887183.641                    23887194.309
 114144890.065 7  88944240.42845  21721067.039                    21721076.160
 120395813.933 7  93814944.63145  22910562.867                    22910569.789
 106692899.490 8  83137362.934 8  20302981.922                    20302989.773
 109390118.808 8  85239107.21646  20816240.883                    20816249.648
 120644367.040 7  94008613.97244  22957870.953                    22957882.266
 11  8 11 18 51 30.0000000  0 10G24G28G01G17G26G11G19G07G08G13
 120153583.331 7  93626276.93944  22864464.586                    22864476.770
 117469822.269 7  91535026.04545  22353766.281                    22353774.473
 126677863.265 7  98710149.216 7  24106003.617                    24106016.867
 125008378.840 6  97409185.012 6  23788301.992                    23788315.168
 125448301.953 6  97751981.35343  23872019.766                    23872031.906
 114114067.147 7  88920222.58645  21715201.750                    21715210.563
 120490222.356 7  93888509.61844  22928528.016                    22928535.379
 106689209.206 8  83134487.391 8  20302279.570                    20302287.961
 109333878.440 8  85195283.56846  20805538.617                    20805547.379
 120752591.040 7  94092944.20544  22978464.930                    22978476.848
 11  8 11 18 52  0.0000000  0 10G24G28G01G17G26G11G19G07G08G13
 120090714.965 7  93577288.73044  22852501.313                    22852513.152
 117440402.555 7  91512101.61645  22348167.930                    22348175.988
 126688531.327 7  98718461.966 6  24108034.016                    24108047.465
 124909972.336 7  97332504.829 6  23769575.813                    23769589.047
 125369057.319 7  97690232.33343  23856940.781                    23856951.246
 114083751.020 7  88896599.66245  21709432.766                    21709441.387
 120584880.595 7  93962269.26244  22946541.195                    22946548.719
 106685938.143 8  83131938.530 8  20301657.266                    20301665.375
 109277901.174 8  85151664.92746  20794886.898                    20794895.156
 120860958.657 7  94177386.34044  22999086.781                    22999098.656
 11  8 11 18 52 30.0000000  0 10G24G28G01G17G26G11G19G07G08G13
 120028114.375 7  93528509.12544  22840588.914                    22840600.227
 117411078.410 7  91489251.66645  22342587.875                    22342595.762
 126699693.335 7  98727159.604 6  24110158.625                    24110170.711
 124811754.623 7  97255971.758 6  23750885.172                    23750898.531
 125290252.280 7  97628825.81543  23841944.586                    23841954.992
 114053943.189 7  88873372.80345  21703761.039                    21703769.594
 120679785.816 7  94036221.35644  22964601.016                    22964608.570
 106683087.168 8  83129716.988 8  20301114.461                    20301122.688
 109222189.195 8  85108253.01146  20784285.000                    20784293.477
 120969466.181 7  94261937.50644  23019734.984                    23019746.719
 11  8 11 18 53  0.0000000  0 10G24G28G01G17G26G11G19G07G08G13
 119965785.131 7  93479940.95944  22828727.992                    22828740.371
 117381849.122 7  91466475.62545  22337025.633                    22337033.914
 126711350.267 7  98736242.921 7  24112375.867                    24112388.563
 124713728.292 7  97179587.832 6  23732231.008                    23732244.695
 125211890.149 7  97567764.45443  23827032.883                    23827043.621
 114024645.435 7  88850543.43445  21698185.305                    21698194.516
 120774935.234 7  94110363.73544  22982706.930                    22982715.137
 106680658.257 7  83127824.329 8  20300652.508                    20300660.684
 109166745.213 8  85065049.92046  20773734.469                    20773743.258
 121078111.212 7  94346595.80844  23040409.602                    23040421.559
 11  8 11 18 53 30.0000000  0 10G24G28G01G17G26G11G19G07G08G13
 119903730.237 7  93431586.56444  22816919.258                    22816931.621
 117352714.007 7  91443772.97845  22331481.438                    22331489.770
 126723502.086 7  98745711.871 6  24114688.828                    24114701.344
 124615895.446 7  97103354.640 6  23713613.844                    23713627.203
 125133973.209 7  97507049.92643  23812206.164                    23812216.195
 113995859.810 7  88828113.11245  21692707.617                    21692716.609
 120870326.486 7  94184694.54644  23000859.391                    23000867.273
 106678652.822 7  83126261.648 8  20300270.883                    20300278.859
 109111571.595 8  85022057.50946  20763235.227                    20763243.930
 121186890.652 7  94431358.84143  23061109.883                    23061121.797
 11  8 11 18 54  0.0000000  0 10G24G28G01G17G26G11G19G07G08G13
 119841952.566 7  93383448.17644  22805163.711                    22805174.805
 117323672.353 7  91421143.15445  22325954.625                    22325962.961
 126736149.256 6  98755566.828 6  24117095.555                    24117108.230
 124518257.076 7  97027273.020 6  23695034.383                    23695046.957
 125056504.222 7  97446684.54243  23797463.602                    23797474.438
 113967588.456 7  88806083.53845  21687327.922                    21687337.027
 120965956.693 7  94259211.55245  23019057.688                    23019065.301
 106677072.270 8  83125030.039 8  20299970.125                    20299978.344
 109056670.899 8  84979277.75646  20752787.813                    20752796.566
 121295801.050 7  94516223.90344  23081835.078                    23081847.027
 11  8 11 18 54 30.0000000  0 10G24G28G01G17G26G11G19G07G08G13
 119780454.962 7  93335527.99744  22793460.422                    22793472.039
 117294723.050 7  91398585.29545  22320445.734                    22320454.109
 126749292.239 7  98765808.151 6  24119596.352                    24119609.000
 124420815.676 7  96951344.878 6  23676491.586                    23676503.957
 124979485.476 7  97386669.94543  23782807.438                    23782818.137
 113939832.785 7  88784455.77645  21682045.867                    21682054.891
 121061822.855 7  94333912.41345  23037300.344                    23037308.008
 106675917.644 8  83124130.322 8  20299750.430                    20299758.676
 109002045.387 8  84936712.43846  20742392.695                    20742401.609
 121404839.420 7  94601188.71544  23102584.789                    23102596.254
 11  8 11 18 55  0.0000000  0 10G24G28G01G17G26G11G19G07G08G13
 119719240.346 7  93287828.33944  22781811.906                    22781823.895
 117265865.164 7  91376098.67445  22314954.211                    22314962.879
 126762930.670 6  98776435.531 6  24122191.758                    24122205.078
 124323573.043 7  96875571.630 6  23657986.836                    23657999.652
 124902919.541 6  97327008.20043  23768238.125                    23768248.832
 113912594.470 7  88763231.16545  21676862.352                    21676871.449
 121157921.819 7  94408794.69145  23055587.875                    23055595.156
 106675190.248 8  83123563.508 8  20299611.734                    20299619.945
 108947697.323 8  84894363.29446  20732051.016                    20732059.707
 121514002.683 7  94686250.81944  23123357.375                    23123369.074
 11  8 11 18 55 30.0000000  0 10G24G28G01G17G26G11G19G07G08G13
 119658311.983 7  93240351.73344  22770217.453                    22770229.574
 117237097.984 7  91353682.73245  22309480.391                    22309488.535
 126777065.342 6  98787449.587 6  24124880.984                    24124893.875
 124226531.126 7  96799954.798 6  23639520.141                    23639533.641
 124826808.983 7  97267701.32743  23753754.250                    23753764.719
 113885875.414 7  88742411.16145  21671777.938                    21671786.645
 121254251.108 7  94483856.45045  23073918.742                    23073925.992
 106674891.627 8  83123330.802 8  20299555.000                    20299563.145
 108893629.496 8  84852232.52346  20721762.234                    20721770.863
 121623288.041 7  94771408.07543  23144154.039                    23144165.816
 11  8 11 18 56  0.0000000  0 10G24G28G01G17G26G11G19G07G08G13
 119597672.779 7  93193100.45144  22758678.188                    22758689.813
 117208420.868 7  91331336.96845  22304022.836                    22304031.219
 126791696.363 6  98798850.439 6  24127665.531                    24127678.398
 124129691.698 7  96724495.702 6  23621091.766                    23621104.840
 124751156.204 6  97208751.17143  23739357.688                    23739369.430
 113859677.214 7  88721997.02545  21666793.133                    21666801.602
 121350808.141 7  94559095.63745  23092292.758                    23092300.316
 106675023.139 8  83123433.271 8  20299579.898                    20299588.262
 108839844.529 8  84810322.16546  20711527.336                    20711535.742
 121732692.141 7  94856657.83844  23164973.422                    23164985.141
 11  8 11 18 56 30.0000000  0 10G24G28G01G17G26G11G19G07G08G13
 119537326.217 7  93146077.18144  22747194.625                    22747206.070
 117179833.327 7  91309060.99545  22298582.852                    22298591.539
 126806824.497 6  98810638.652 6  24130543.547                    24130556.602
 124033056.783 7  96649195.982 6  23602702.938                    23602714.934
 124675964.252 6  97150160.12143  23725048.781                    23725060.461
 113834002.116 7  88701990.49145  21661907.195                    21661916.043
 121447590.248 7  94634510.22144  23110709.688                    23110717.305
 106675586.526 8  83123872.260 8  20299687.008                    20299695.539
 108786344.786 8  84768634.06346  20701346.469                    20701355.469
 121842212.603 7  94941998.26844  23185814.602                    23185826.227
 11  8 11 18 57  0.0000000  0 10G24G28G01G17G26G11G19G07G08G13
 119477275.176 7  93099284.19744  22735766.859                    22735778.742
 117151334.167 7  91286853.88545  22293159.727                    22293167.914
 126822449.353 6  98822813.908 6  24133516.883                    24133530.121
 123936628.181 7  96574057.023 6  23584352.539                    23584365.465
 124601235.309 6  97091929.84643  23710828.867                    23710839.297
 113808851.470 7  88682392.62145  21657121.047                    21657130.070
 121544594.233 7  94710097.70244  23129168.719                    23129176.383
 106676582.805 8  83124648.564 8  20299876.922                    20299885.023
 108733132.552 8  84727169.99246  20691220.844                    20691229.180
 121951845.877 7  95027426.60844  23206677.742                    23206689.258
 11  8 11 18 57 30.0000000  0 10G24G28G01G17G26G11G19G07G08G13
 119417522.109 7  93052723.40144  22724396.445                    22724408.484
 117122922.666 8  91264715.08845  22287752.633                    22287761.191
 126838570.605 6  98835375.980 6  24136585.117                    24136598.211
 123840407.417 7  96499080.000 6  23566042.078                    23566055.098
 124526971.393 6  97034061.91043  23696696.539                    23696708.074
 113784226.890 7  88663204.66845  21652435.203                    21652443.191
 121641817.422 7  94785855.98144  23147669.688                    23147677.246
 106678012.957 8  83125762.956 8  20300149.266                    20300157.535
 108680209.986 8  84685931.64046  20681149.734                    20681158.273
 122061588.786 7  95112940.37443  23227560.703                    23227572.324
 11  8 11 18 58  0.0000000  0 10G24G28G01G17G26G11G19G07G08G13
 119358070.105 7  93006397.20744  22713083.047                    22713094.930
 117094597.880 7  91242643.84745  22282362.898                    22282370.824
 126855189.169 6  98848325.554 6  24139747.453                    24139760.824
 123744396.723 7  96424266.654 6  23547771.797                    23547784.113
 124453175.117 6  96976558.38943  23682653.992                    23682664.613
 113760130.054 7  88644427.94845  21647849.422                    21647858.367
 121739257.024 7  94861782.89244  23166212.344                    23166219.348
 106679878.580 7  83127216.678 8  20300504.227                    20300512.598
 108627579.840 8  84644921.14246  20671134.445                    20671143.102
 122171438.552 7  95198537.39344  23248464.578                    23248476.660
 11  8 11 18 58 30.0000000  0 10G24G28G01G17G26G11G19G07G08G13
 119298922.383 7  92960308.14244  22701827.086                    22701839.094
 117066359.379 7  91220639.84645  22276989.641                    22276997.613
 126872304.837 7  98861662.478 6  24143004.141                    24143017.301
 123648598.173 7  96349618.621 6  23529541.883                    23529554.379
 124379849.154 6  96919421.33343  23668700.398                    23668710.863
 113736562.523 7  88626063.65645  21643364.773                    21643373.785
 121836910.602 7  94937876.55344  23184794.578                    23184802.656
 106682181.212 8  83129010.923 8  20300942.352                    20300950.563
 108575244.879 8  84604140.65846  20661175.836                    20661183.977
 122281392.207 7  95284215.37144  23269388.102                    23269400.180
 11  8 11 18 59  0.0000000  0 10G24G28G01G17G26G11G19G07G08G13
 119240081.646 6  92914458.26244  22690630.820                    22690642.676
 117038206.026 7  91198702.18845  22271632.516                    22271640.191
 126889917.939 6  98875387.006 6  24146356.000                    24146368.820
 123553012.535 7  96275136.485 6  23511351.953                    23511365.145
 124306995.738 7  96862652.46343  23654836.328                    23654847.051
 113713525.619 7  88608112.84745  21638981.328                    21638989.969
 121934774.691 7  95014134.22744  23203417.820                    23203425.410
 106684921.414 7  83131146.112 8  20301463.609                    20301472.086
 108523207.115 8  84563591.75446  20651273.242                    20651281.934
 122391446.261 7  95369971.57743  23290330.945                    23290343.156
 11  8 11 18 59 30.0000000  0 10G24G28G01G17G26G11G19G07G08G13
 119181550.634 6  92868849.75644  22679492.141                    22679504.180
 117010136.825 7  91176830.10745  22266290.273                    22266298.938
 126908027.541 6  98889498.432 6  24149802.273                    24149815.270
 123457641.937 7  96200821.902 6  23493202.984                    23493216.176
 124234616.812 7  96806253.35644  23641062.828                    23641074.078
 113691020.827 8  88590576.66145  21634698.656                    21634707.148
 122032846.734 7  95090553.95744  23222080.234                    23222087.781
 106688100.259 8  83133623.118 8  20302068.664                    20302077.090
 108471468.764 8  84523276.15746  20641427.547                    20641436.004
 122501597.641 7  95455803.62443  23311292.602                    23311304.117
 11  8 11 19  0  0.0000000  0 10G24G28G01G17G26G11G19G07G08G13
 119123332.569 7  92823485.10344  22668413.641                    22668425.973
 116982151.402 7  91155023.30145  22260964.922                    22260973.770
 126926634.485 6  98903997.329 6  24153343.977                    24153355.766
 123362488.791 7  96126676.775 6  23475096.773                    23475109.156
 124162715.214 7  96750226.16044  23627380.664                    23627391.398
 113669050.221 8  88573456.72045  21630517.875                    21630526.039
 122131124.484 7  95167133.97444  23240782.430                    23240789.293
 106691720.021 8  83136443.701 8  20302757.445                    20302765.832
 108420032.706 8  84483196.11146  20631639.313                    20631648.191
 122611843.524 7  95541709.25343  23332270.813                    23332283.598
 11  8 11 19  0 30.0000000  0 10G24G28G01G17G26G11G19G07G08G13
 119065430.007 7  92778366.30944  22657395.328                    22657407.035
 116954248.458 7  91133280.76345  22255655.258                    22255663.891
 126945738.375 6  98918883.445 6  24156978.016                    24156991.531
 123267554.208 7  96052701.950 6  23457031.414                    23457043.031
 124091293.132 7  96694572.60043  23613789.859                    23613799.512
 113647615.228 7  88556754.15945  21626438.539                    21626447.043
 122229604.598 7  95243871.68144  23259522.805                    23259529.668
 106695780.855 8  83139607.970 8  20303530.570                    20303538.867
 108368901.205 8  84443353.38746  20621909.875                    20621917.930
 122722180.386 7  95627685.84343  23353267.945                    23353280.477
 11  8 11 19  1  0.0000000  0 10G24G28G01G17G26G11G19G07G08G13
 119007846.394 7  92733496.05344  22646437.750                    22646449.063
 116926427.661 8  91111602.23845  22250361.313                    22250369.926
 126965339.808 6  98934157.275 6  24160708.227                    24160721.332
 123172840.397 7  95978899.129 6  23439008.203                    23439020.090
 124020353.193 7  96639294.76143  23600290.359                    23600300.383
 113626717.081 8  88540469.89945  21622461.664                    21622470.223
 122328284.346 7  95320764.93844  23278300.594                    23278307.398
 106700284.526 8  83143117.306 8  20304387.180                    20304395.613
 108318076.940 8  84403750.06746  20612238.141                    20612246.711
 122832606.285 7  95713731.79843  23374281.336                    23374293.367
 11  8 11 19  1 30.0000000  0 10G24G28G01G17G26G11G19G07G08G13
 118950584.512 7  92688876.49844  22635541.188                    22635552.918
 116898688.291 7  91089987.17245  22245082.539                    22245090.898
 126985438.696 6  98949818.706 6  24164532.984                    24164546.203
 123078349.106 7  95905269.729 6  23421026.375                    23421038.941
 123949897.687 7  96584394.38243  23586883.844                    23586893.563
 113606357.335 8  88524605.18245  21618587.469                    21618596.402
 122427161.370 7  95397811.94444  23297116.180                    23297123.461
 106705232.155 8  83146972.591 8  20305328.625                    20305336.754
 108267562.471 8  84364388.14246  20602625.469                    20602633.988
 122943117.954 7  95799844.56143  23395311.398                    23395323.453
 11  8 11 19  2  0.0000000  0 10G24G28G01G17G26G11G19G07G08G13
 118893647.239 7  92644509.88844  22624706.039                    22624717.625
 116871029.312 7  91068434.73145  22239819.305                    22239827.520
 127006034.853 6  98965867.615 7  24168452.156                    24168465.297
 122984081.949 7  95831814.959 6  23403088.148                    23403100.449
 123879928.852 7  96529873.25943  23573568.758                    23573578.945
 113586537.509 8  88509161.17445  21614815.625                    21614824.570
 122526232.983 7  95475010.55944  23315969.211                    23315976.492
 106710625.040 8  83151174.823 8  20306355.031                    20306363.156
 108217360.346 8  84325269.60946  20593072.125                    20593081.184
 123053712.040 7  95886021.56843  23416356.281                    23416368.852
 11  8 11 19  2 30.0000000  0 10G24G28G01G17G26G11G19G07G08G13
 118837037.282 7  92600398.33344  22613933.422                    22613944.652
 116843450.057 8  91046944.42045  22234571.297                    22234579.371
 127027127.916 6  98982303.739 6  24172466.227                    24172479.469
 122890040.911 7  95758536.358 6  23385192.203                    23385204.680
 123810448.957 7  96475733.12843  23560346.281                    23560357.125
 113567259.090 8  88494139.05745  21611147.219                    21611155.809
 122625495.959 7  95552358.29644  23334857.969                    23334865.148
 106716464.191 8  83155724.791 8  20307465.922                    20307473.973
 108167472.659 8  84286396.09246  20583578.828                    20583587.578
 123164385.481 7  95972260.39643  23437417.570                    23437429.621
 11  8 11 19  3  0.0000000  0 10G24G28G01G17G26G11G19G07G08G13
 118780757.952 7  92556544.43244  22603223.250                    22603235.652
 116815950.072 7  91025515.86945  22229337.680                    22229346.418
 127048718.647 6  98999127.636 6  24176574.797                    24176588.016
 122796228.073 7  95685435.600 6  23367340.008                    23367352.359
 123741460.410 7  96421975.82943  23547217.875                    23547228.234
 113548523.806 8  88479540.16245  21607581.672                    21607590.926
 122724948.083 7  95629853.40444  23353783.273                    23353790.625
 106722750.938 8  83160623.544 8  20308662.781                    20308670.824
 108117902.430 8  84247769.93546  20574146.141                    20574154.828
 123275135.354 7  96058558.80043  23458492.898                    23458504.492
 11  8 11 19  3 30.0000000  0 10G24G28G01G17G26G11G19G07G08G13
 118724811.587 7  92512949.96044  22592576.797                    22592588.723
 116788528.281 8  91004148.24945  22224119.953                    22224127.973
 127070806.070 6  99016338.586 6  24180778.266                    24180791.617
 122702644.503 7  95612513.463 6  23349531.828                    23349544.023
 123672965.302 7  96368603.05143  23534184.094                    23534194.645
 113530332.378 8  88465365.04445  21604120.180                    21604128.953
 122824586.040 6  95707493.34544  23372743.430                    23372751.426
 106729485.902 8  83165871.550 8  20309944.070                    20309952.539
 108068651.604 8  84209392.67246  20564774.047                    20564782.695
 123385958.574 7  96144914.34643  23479581.852                    23479593.523
 11  8 11 19  4  0.0000000  0 10G24G28G01G17G26G11G19G07G08G13
 118669201.729 7  92469617.70544  22581995.336                    22582006.262
 116761184.236 7  90982841.21445  22218916.633                    22218924.578
 127093390.540 6  99033936.822 6  24185075.281                    24185088.809
 122609292.475 7  95539771.780 6  23331767.305                    23331779.617
 123604966.109 7  96315616.72243  23521244.352                    23521255.102
 113512686.703 7  88451615.19845  21600762.813                    21600771.117
 122924407.474 6  95785276.22344  23391738.172                    23391746.910
 106736671.056 8  83171470.353 8  20311311.344                    20311320.078
 108019723.051 8  84171266.52546  20555463.367                    20555471.688
 123496852.657 7  96231325.09843  23500684.477                    23500696.441
 11  8 11 19  4 30.0000000  0 10G24G28G01G17G26G11G19G07G08G13
 118613930.542 7  92426549.33144  22571477.227                    22571488.668
 116733916.722 8  90961593.82545  22213727.469                    22213735.555
 127116471.718 6  99051922.137 6  24189467.727                    24189481.328
 122516173.526 6  95467211.695 6  23314047.102                    23314059.477
 123537464.905 6  96263018.46043  23508399.547                    23508410.262
 113495587.752 7  88438291.36145  21597508.703                    21597517.141
 123024409.856 6  95863200.11744  23410768.391                    23410777.078
 106744306.900 8  83177420.347 8  20312764.297                    20312772.539
 107971118.900 8  84133393.15646  20546214.195                    20546222.918
 123607814.247 7  96317788.45143  23521800.344                    23521812.566
 11  8 11 19  5  0.0000000  0 10G24G28G01G17G26G11G19G07G08G13
 118559001.315 7  92383747.42344  22561024.578                    22561035.879
 116706725.533 8  90940405.89545  22208553.320                    22208561.555
 127140049.607 6  99070294.507 6  24193954.469                    24193967.328
 122423289.536 7  95394834.700 6  23296371.930                    23296383.750
 123470463.902 6  96210809.93443  23495648.891                    23495660.402
 113479037.145 7  88425394.82245  21594358.961                    21594367.852
 123124590.228 6  95941262.67244  23429832.852                    23429840.883
 106752394.726 8  83183722.535 8  20314303.578                    20314311.617
 107922841.831 8  84095774.66946  20537027.008                    20537035.887
 123718840.474 7  96404302.17743  23542926.922                    23542940.133
 11  8 11 19  5 30.0000000  0 10G24G28G01G17G26G11G19G07G08G13
 118504416.594 7  92341213.93844  22550637.289                    22550648.164
 116679609.677 7  90919276.67945  22203393.688                    22203401.773
 127164123.764 7  99089053.562 6  24198535.852                    24198548.508
 122330641.917 7  95322641.886 6  23278740.938                    23278753.574
 123403965.459 6  96158993.03243  23482994.406                    23483006.129
 113463035.983 8  88412926.42445  21591314.516                    21591322.613
 123224946.035 6  96019461.96344  23448929.672                    23448937.563
 106760935.572 8  83190377.727 8  20315928.977                    20315937.027
 107874893.939 8  84058412.67846  20527902.875                    20527912.016
 123829928.171 7  96490863.75643  23564066.922                    23564079.457
 11  8 11 19  6  0.0000000  0 10G24G28G01G17G26G11G19G07G08G13
 118450179.320 7  92298951.18744  22540316.398                    22540327.203
 116652568.161 8  90898205.38345  22198247.383                    22198255.629
 127188694.021 6  99108199.195 6  24203211.070                    24203225.121
 122238232.592 7  95250634.763 6  23261156.578                    23261168.164
 123337971.437 6  96107569.16543  23470436.641                    23470447.359
 113447585.311 7  88400886.97445  21588373.891                    21588382.656
 123325474.103 6  96097795.48144  23468059.727                    23468067.590
 106769930.212 8  83197386.522 8  20317640.453                    20317648.766
 107827277.496 8  84021308.96946  20518841.742                    20518850.895
 123941074.298 6  96577470.89843  23585216.930                    23585230.246
 11  8 11 19  6 30.0000000  0 10G24G28G01G17G26G11G19G07G08G13
 118396292.752 7  92256961.71144  22530061.766                    22530073.121
 116625600.852 8  90877191.91845  22193115.813                    22193123.887
 127213760.457 6  99127731.471 6  24207981.781                    24207994.223
 122146063.750 7  95178815.005 6  23243616.961                    23243629.059
 123272484.390 6  96056540.31643  23457974.695                    23457985.156
 113432687.089 7  88389278.00845  21585538.867                    21585547.469
 123426172.462 6  96176261.67944  23487222.211                    23487229.668
 106779380.268 8  83204750.194 8  20319438.703                    20319446.895
 107779996.031 8  83984466.27546  20509844.516                    20509853.152
 124052276.229 6  96664121.49143  23606378.664                    23606391.660
 11  8 11 19  7  0.0000000  0 10G24G28G01G17G26G11G19G07G08G13
 118342759.424 7  92215247.49244  22519874.898                    22519886.215
 116598706.623 8  90856235.39945  22187997.914                    22188005.711
 127239322.694 6  99147650.098 6  24212845.828                    24212859.207
 122054136.431 7  95107183.469 6  23226123.992                    23226135.910
 123207506.298 7  96005908.08543  23445610.281                    23445620.500
 113418342.203 7  88378100.20645  21582808.852                    21582817.508
 123527038.255 7  96254858.36544  23506416.602                    23506423.941
 106789286.525 8  83212469.341 8  20321324.164                    20321332.188
 107733051.460 8  83947886.09546  20500911.625                    20500920.121
 124163530.719 6  96750813.06243  23627549.609                    23627563.063
 11  8 11 19  7 30.0000000  0 10G24G28G01G17G26G11G19G07G08G13
 118289581.875 7  92173810.48744  22509755.523                    22509766.324
 116571884.648 7  90835335.18745  22182894.078                    22182902.039
 127265380.469 6  99167954.887 6  24217804.266                    24217817.871
 121962452.219 7  95035741.374 6  23208676.703                    23208688.629
 123143039.223 6  95955674.05843  23433342.703                    23433353.223
 113404551.492 8  88367354.22845  21580184.930                    21580193.449
 123628068.395 7  96333583.09944  23525641.805                    23525649.539
 106799649.528 8  83220544.398 8  20323296.023                    20323304.402
 107686446.140 8  83911570.25846  20492042.664                    20492051.641
 124274834.809 7  96837543.26143  23648730.516                    23648743.734
 11  8 11 19  8  0.0000000  0 10G24G28G01G17G26G11G19G07G08G13
 118236762.997 7  92132652.96944  22499704.680                    22499715.520
 116545134.542 8  90814490.97045  22177803.758                    22177811.719
 127291933.367 6  99188645.483 6  24222856.742                    24222870.453
 121871012.781 7  94964489.997 6  23191276.688                    23191288.094
 123079085.179 7  95905839.78843  23421172.313                    23421182.688
 113391316.509 8  88357041.28345  21577666.641                    21577674.699
 123729260.532 7  96412434.07544  23544898.102                    23544905.266
 106810470.795 8  83228976.541 8  20325354.922                    20325363.055
 107640182.693 8  83875520.81946  20483239.094                    20483247.738
 124386185.702 7  96924309.95543  23669920.391                    23669933.250
 11  8 11 19  8 30.0000000  0 10G24G28G01G17G26G11G19G07G08G13
 118184305.732 7  92091777.21544  22489722.453                    22489732.805
 116518455.628 8  90793702.23845  22172726.992                    22172734.816
 127318981.014 6  99209721.584 6  24228004.125                    24228017.762
 121779820.617 7  94893431.300 6  23173922.938                    23173935.117
 123015646.529 7  95856407.10844  23409100.750                    23409110.816
 113378638.174 8  88347162.09245  21575253.828                    21575262.074
 123830611.623 7  96491408.91144  23564183.930                    23564191.762
 106821751.174 8  83237766.442 8  20327501.711                    20327509.777
 107594263.388 8  83839739.53946  20474500.820                    20474510.082
 124497580.619 7  97011110.94143  23691118.313                    23691131.012
 11  8 11 19  9  0.0000000  0 10G24G28G01G17G26G11G19G07G08G13
 118132212.923 7  92051185.47444  22479809.234                    22479819.902
 116491847.037 8  90772968.28945  22167662.922                    22167671.117
 127346523.438 6  99231183.233 6  24233244.680                    24233258.504
 121688877.092 7  94822566.341 6  23156617.039                    23156628.766
 122952725.273 6  95807377.59843  23397127.797                    23397137.094
 113366517.863 8  88337717.71045  21572947.414                    21572955.594
 123932119.659 7  96570506.03244  23583500.492                    23583508.305
 106833491.942 8  83246915.075 8  20329735.539                    20329744.094
 107548690.748 8  83804228.39446  20465828.516                    20465837.293
 124609016.159 7  97097943.57343  23712324.078                    23712336.445
 11  8 11 19  9 30.0000000  0 10G24G28G01G17G26G11G19G07G08G13
 118080487.188 7  92010879.77044  22469966.000                    22469977.039
 116465308.156 8  90752288.66345  22162612.813                    22162620.832
 127374559.660 6  99253029.654 6  24238580.563                    24238593.836
 121598183.530 7  94751896.169 6  23139359.242                    23139369.895
 122890323.353 6  95758752.76243  23385252.570                    23385262.602
 113354956.571 8  88328708.93545  21570747.430                    21570755.691
 124033781.877 7  96649723.28744  23602847.258                    23602854.008
 106845693.855 8  83256423.039 8  20332057.922                    20332065.973
 107503467.368 8  83768989.40346  20457223.070                    20457231.535
 124720489.392 7  97184805.62143  23733536.992                    23733549.719
 11  8 11 19 10  0.0000000  0 10G24G28G01G17G26G11G19G07G08G13
 118029131.434 7  91970862.34144  22460193.406                    22460204.023
 116438838.116 8  90731662.67845  22157575.953                    22157584.113
 127403089.897 6  99275261.045 6  24244009.961                    24244022.574
 121507741.889 7  94681422.296 6  23122148.625                    23122159.398
 122828442.979 6  95710534.32944  23373476.398                    23373487.055
 113343955.511 8  88320136.68845  21568653.867                    21568662.738
 124135595.510 6  96729058.52244  23622221.047                    23622228.863
 106858357.702 8  83266290.957 8  20334467.688                    20334475.965
 107458595.816 8  83734024.54946  20448684.281                    20448692.984
 124831997.712 7  97271694.96043  23754756.297                    23754768.984
 11  8 11 19 10 30.0000000  0 10G24G28G01G17G26G11G19G07G08G13
 117978148.353 7  91931135.34844  22450491.250                    22450501.934
 116412436.425 7  90711089.93745  22152551.719                    22152559.762
 127432113.273 6  99297876.662 6  24249531.930                    24249545.590
 121417553.480 7  94611145.747 6  23104986.266                    23104997.211
 122767086.046 7  95662723.74643  23361800.805                    23361811.098
 113333515.645 8  88312001.73745  21566667.547                    21566675.766
 124237557.741 6  96808509.54344  23641623.469                    23641631.602
 106871484.449 8  83276519.572 8  20336965.883                    20336973.738
 107414078.365 8  83699335.62946  20440212.742                    20440221.707
 124943538.133 7  97358609.34443  23775981.984                    23775994.883
 11  8 11 19 11  0.0000000  0 10G24G28G01G17G26G11G19G07G08G13
 117927540.426 7  91891700.65544  22440861.180                    22440872.113
 116386102.178 8  90690569.75945  22147540.172                    22147548.723
 127461629.776 6  99320876.549 6  24255148.797                    24255162.230
 121327620.128 7  94541067.940 7  23087871.836                    23087883.125
 122706254.474 7  95615322.57444  23350225.242                    23350235.160
 113323637.597 8  88304304.56445  21564787.711                    21564796.234
 124339665.927 6  96888074.29344  23661054.500                    23661062.750
 106885074.528 8  83287109.228 8  20339552.023                    20339560.000
 107369917.338 8  83664924.43146  20431809.055                    20431818.289
 125055107.484 6  97445546.23743  23797213.094                    23797226.242
 11  8 11 19 11 30.0000000  0 10G24G28G01G17G26G11G19G07G08G13
 117877310.687 7  91852560.67644  22431302.555                    22431313.805
 116359835.099 8  90670101.91745  22142542.102                    22142549.813
 127491638.572 6  99344260.012 6  24260859.430                    24260872.699
 121237943.530 7  94471190.201 7  23070806.867                    23070818.340
 122645950.558 7  95568332.53743  23338749.734                    23338759.727
 113314322.488 8  88297046.04945  21563014.602                    21563022.926
 124441917.712 6  96967750.94944  23680512.320                    23680520.316
 106899129.837 8  83298061.396 8  20342226.383                    20342234.680
 107326115.400 8  83630793.03546  20423474.031                    20423482.750
 125166703.298 6  97532503.72043  23818449.508                    23818462.551
 11  8 11 19 12  0.0000000  0 10G24G28G01G17G26G11G19G07G08G13
 117827461.466 7  91813717.20044  22421816.844                    22421827.574
 116333634.097 8  90649685.55645  22137555.852                    22137563.754
 127522139.123 6  99368026.670 6  24266663.094                    24266677.395
 121148524.966 7  94401513.510 7  23053791.055                    23053802.754
 122586175.765 7  95521754.82543  23327374.484                    23327385.051
 113305571.884 8  88290227.40145  21561349.555                    21561357.891
 124544310.132 6  97047537.17444  23699996.445                    23700005.805
 106913650.297 8  83309376.019 8  20344989.227                    20344997.930
 107282674.798 8  83596943.21046  20415207.727                    20415216.078
 125278322.142 6  97619479.18843  23839689.508                    23839703.703
 11  8 11 19 12 30.0000000  0 10G24G28G01G17G26G11G19G07G08G13
 117777995.900 7  91775172.72344  22412403.281                    22412414.668
 116307498.811 8  90629320.41145  22132582.930                    22132590.914
 127553131.079 6  99392176.233 6  24272561.469                    24272574.625
 121059366.553 7  94332039.544 7  23036824.789                    23036836.047
 122526932.483 6  95475591.24343  23316101.539                    23316110.902
 113297386.503 8  88283849.18145  21559791.945                    21559801.008
 124646840.921 6  97127431.25244  23719508.492                    23719515.879
 106928637.532 8  83321054.377 8  20347841.758                    20347849.793
 107239598.474 8  83563377.23146  20407010.438                    20407018.984
 125389961.316 7  97706470.46243  23860933.391                    23860947.766
 11  8 11 19 13  0.0000000  0 10G24G28G01G17G26G11G19G07G08G13
 117728916.239 7  91736928.93844  22403063.602                    22403074.984
 116281428.502 7  90609005.89645  22127621.594                    22127629.816
 127584614.392 6  99416708.648 6  24278552.750                    24278565.641
 120970469.500 7  94262769.217 6  23019907.930                    23019919.547
 122468222.159 7  95429842.95244  23304929.078                    23304939.133
 113289766.776 8  88277911.73445  21558342.297                    21558350.707
 124749507.396 6  97207431.04344  23739044.891                    23739052.902
 106944092.011 8  83333096.811 8  20350782.664                    20350790.734
 107196888.275 8  83530096.55246  20398882.883                    20398891.621
 125501618.056 6  97793475.43843  23882181.977                    23882195.477
 11  8 11 19 13 30.0000000  0 10G24G28G01G17G26G11G19G07G08G13
 117680225.630 7  91698988.30645  22393798.367                    22393809.391
 116255422.743 8  90588741.69045  22122672.758                    22122680.609
 127616588.057 6  99441623.148 6  24284637.125                    24284650.418
 120881835.689 7  94193704.034 7  23003041.305                    23003052.969
 122410047.152 6  95384511.80743  23293858.680                    23293868.691
 113282714.142 8  88272416.19045  21557000.109                    21557008.219
 124852306.832 6  97287534.44644  23758606.781                    23758615.230
 106960014.649 7  83345504.037 8  20353812.398                    20353820.832
 107154546.904 8  83497103.26846  20390825.727                    20390834.527
 125613289.206 6  97880491.59843  23903432.414                    23903446.410
 11  8 11 19 14  0.0000000  0 10G24G28G01G17G26G11G19G07G08G13
 117631926.243 7  91661352.53344  22384606.906                    22384618.652
 116229480.317 7  90568526.83945  22117736.258                    22117744.293
 127649051.777 6  99466919.521 6  24290814.352                    24290827.820
 120793466.382 7  94124844.957 7  22986224.977                    22986236.422
 122352409.097 6  95339599.07443  23282890.539                    23282900.211
 113276229.243 8  88267363.03345  21555765.922                    21555774.297
 124955236.400 7  97367739.23244  23778193.977                    23778201.828
 106976405.891 8  83358276.414 8  20356931.484                    20356940.309
 107112576.290 8  83464398.88946  20382839.281                    20382847.480
 125724971.826 6  97967516.69443  23924685.492                    23924698.813
 11  8 11 19 14 30.0000000  0 10G24G28G01G17G26G11G19G07G08G13
 117584021.171 7  91624024.02545  22375490.797                    22375502.473
 116203601.062 7  90548361.20445  22112811.656                    22112819.824
 127682004.632 6  99492597.025 6  24297085.781                    24297098.727
 120705363.436 7  94056193.434 6  22969459.445                    22969471.238
 122295309.904 6  95295106.20243  23272024.414                    23272034.539
 113270312.734 8  88262752.77945  21554639.813                    21554648.270
 125058293.960 7  97448043.80344  23797805.469                    23797812.582
 106993266.939 8  83371414.873 8  20360140.227                    20360148.762
 107070979.489 8  83431985.79446  20374923.289                    20374931.867
 125836663.293 6  98054548.73543  23945939.406                    23945953.492
 11  8 11 19 15  0.0000000  0 10G24G28G01G17G26G11G19G07G08G13
 117536512.756 7  91587004.58844  22366450.414                    22366461.762
 116177784.096 7  90528244.11545  22107898.469                    22107907.000
 127715446.159 6  99518655.321 6  24303448.914                    24303462.340
 120617528.287 7  93987750.583 7  22952745.156                    22952756.574
 122238751.409 6  95251034.71343  23261261.883                    23261271.988
 113264965.446 8  88258586.07145  21553622.180                    21553630.598
 125161476.781 7  97528445.94344  23817439.797                    23817447.723
 107010598.350 8  83384919.854 8  20363438.203                    20363446.645
 107029758.683 8  83399865.68446  20367079.219                    20367087.668
 125948360.661 6  98141585.34943  23967195.602                    23967209.434
 11  8 11 19 15 30.0000000  0 10G24G28G01G17G26G11G19G07G08G13
 117489403.729 7  91550296.36944  22357486.070                    22357496.730
 116152029.179 8  90508175.36745  22102997.383                    22103005.863
 127749375.921 6  99545094.039 6  24309906.367                    24309918.566
 120529962.473 7  93919517.604 7  22936081.703                    22936093.043
 122182735.386 6  95207385.88243  23250602.797                    23250612.371
 113260188.748 8  88254863.99445  21552713.172                    21552721.816
 125264782.341 7  97608943.73044  23837098.500                    23837106.008
 107028401.096 8  83398792.105 8  20366825.836                    20366834.305
 106988916.289 8  83368040.44146  20359307.164                    20359315.641
 126060061.090 6  98228624.33843  23988451.500                    23988465.434
 11  8 11 19 16  0.0000000  0 10G24G28G01G17G26G11G19G07G08G13
 117442696.377 7  91513901.14345  22348597.563                    22348608.684
 116126334.998 7  90488153.94545  22098108.453                    22098116.613
 127783792.685 6  99571912.286 6  24316455.109                    24316468.473
 120442667.210 7  93851495.453 6  22919470.164                    22919481.234
 122127263.474 6  95164161.02343  23240046.047                    23240056.121
 113255982.830 7  88251586.68045  21551913.430                    21551921.582
 125368207.824 7  97689534.97544  23856780.188                    23856787.711
 107046675.489 8  83413031.871 8  20370303.906                    20370311.867
 106948454.274 8  83336511.58946  20351607.664                    20351616.133
 126171761.295 6  98315663.15043  24009707.750                    24009721.484
 11  8 11 19 16 30.0000000  0 10G24G28G01G17G26G11G19G07G08G13
 117396393.691 7  91477821.21445  22339786.297                    22339797.504
 116100701.216 7  90468179.58145  22093229.797                    22093238.824
 127818696.549 6  99599110.087 6  24323097.078                    24323109.930
 120355644.556 7  93783685.724 6  22902910.125                    22902920.988
 122072337.586 7  95121361.67144  23229594.836                    23229604.750
 113252348.650 8  88248754.87845  21551221.516                    21551229.828
 125471751.016 6  97770217.96043  23876483.164                    23876490.684
 107065422.538 8  83427639.941 8  20373871.320                    20373879.461
 106908375.484 8  83305281.36446  20343980.703                    20343989.754
 126283458.847 6  98402699.90243  24030963.227                    24030977.332
 11  8 11 19 17  0.0000000  0 10G24G28G01G17G26G11G19G07G08G13
 117350498.049 7  91442058.46644  22331052.609                    22331063.414
 116075127.281 8  90448251.84945  22088363.375                    22088371.594
 127854086.652 6  99626686.791 6  24329832.328                    24329844.328
 120268895.944 7  93716089.534 7  22886401.938                    22886412.840
 122017959.586 7  95078989.22644  23219246.258                    23219256.215
 113249287.012 8  88246369.21945  21550639.039                    21550647.098
 125575409.454 7  97850990.67543  23896209.406                    23896216.637
 107084642.941 8  83442616.867 8  20377528.914                    20377536.707
 106868682.610 8  83274351.85346  20336427.492                    20336436.219
 126395150.992 6  98489732.45943  24052217.883                    24052230.863
 11  8 11 19 17 30.0000000  0 10G24G28G01G17G26G11G19G07G08G13
 117305012.194 7  91406615.01245  22322397.133                    22322407.758
 116049613.046 8  90428370.63945  22083508.219                    22083516.711
 127889962.171 6  99654641.702 6  24336658.375                    24336671.711
 120182422.933 7  93648708.092 7  22869946.766                    22869957.355
 121964131.249 7  95037045.07844  23209003.188                    23209013.660
 113246798.559 8  88244430.19345  21550165.117                    21550173.602
 125679180.431 6  97931851.11643  23915955.875                    23915964.102
 107104337.610 8  83457963.339 8  20381276.266                    20381284.566
 106829377.942 8  83243724.84846  20328948.117                    20328956.488
 126506834.811 6  98576758.53043  24073470.453                    24073484.137
 11  8 11 19 18  0.0000000  0 10G24G28G01G17G26G11G19G07G08G13
 117259938.551 7  91371492.74645  22313819.641                    22313830.852
 116024157.517 8  90408535.16445  22078664.273                    22078672.559
 127926322.737 6  99682974.609 6  24343576.875                    24343590.617
 120096226.890 7  93581542.497 7  22853544.047                    22853555.016
 121910854.121 7  94995530.45744  23198864.961                    23198875.441
 113244884.144 8  88242938.47945  21549800.602                    21549809.168
 125783061.448 6  98012797.28243  23935724.063                    23935732.156
 107124507.200 8  83473679.884 8  20385114.633                    20385123.035
 106790463.705 8  83213402.06846  20321542.656                    20321551.605
 126618507.310 6  98663775.77442  24094720.992                    24094735.145
 11  8 11 19 18 30.0000000  0 10G24G28G01G17G26G11G19G07G08G13
 117215279.668 7  91336693.66245  22305321.523                    22305332.066
 115998760.080 7  90388744.97745  22073831.617                    22073839.605
 127963167.194 6  99711684.561 6  24350589.055                    24350602.004
 120010309.473 7  93514594.005 6  22837194.516                    22837205.133
 121858129.845 6  94954446.62944  23188831.883                    23188842.336
 113243543.980 7  88241894.22145  21549545.867                    21549553.887
 125887049.878 6  98093827.12743  23955512.078                    23955519.695
 107145151.880 8  83489766.633 8  20389043.008                    20389051.434
 106751942.140 8  83183385.27046  20314212.641                    20314221.254
 126730165.666 6  98750781.98842  24115969.375                    24115982.887
 11  8 11 19 19  0.0000000  0 10G24G28G01G17G26G11G19G07G08G13
 117171038.253 7  91302219.89045  22296902.648                    22296913.195
 115973420.385 8  90368999.76045  22069009.445                    22069017.773
 128000495.113 6  99740771.243 6  24357692.586                    24357705.969
 119924672.053 7  93447863.692 7  22820897.867                    22820909.313
 121805960.335 7  94913795.06244  23178904.000                    23178914.703
 113242779.066 7  88241298.22145  21549400.328                    21549408.586
 125991143.192 6  98174938.71743  23975320.617                    23975328.766
 107166272.647 8  83506224.352 8  20393062.039                    20393070.871
 106713816.347 8  83153676.86446  20306957.180                    20306965.902
 126841807.168 6  98837775.04743  24137214.492                    24137228.219
 11  8 11 19 19 30.0000000  0 10G24G28G01G17G26G11G19G07G08G13
 117127216.375 7  91268073.00745  22288563.039                    22288574.160
 115948137.550 8  90349298.86245  22064198.242                    22064206.555
 128038305.501 6  99770233.888 6  24364887.531                    24364900.715
 119839316.082 7  93381352.651 6  22804655.688                    22804665.969
 121754346.961 7  94873576.85744  23169082.992                    23169093.016
 113242589.768 8  88241150.74645  21549364.188                    21549372.492
 126095338.884 6  98256130.13743  23995148.500                    23995156.355
 107187869.926 8  83523053.369 8  20397172.172                    20397180.805
 106676088.066 8  83124278.20746  20299778.164                    20299786.484
 126953428.953 6  98924752.71242  24158455.070                    24158469.797
 11  8 11 19 20  0.0000000  0 10G24G28G01G17G26G11G19G07G08G13
 117083816.541 7  91234254.99645  22280304.406                    22280315.500
 115922910.951 8  90329641.77745  22059397.938                    22059406.137
 128076597.408 6  99800071.757 6  24372174.492                    24372187.348
 119754242.965 7  93315062.040 7  22788466.484                    22788477.035
 121703291.510 7  94833793.40744  23159367.070                    23159377.387
 113242976.837 7  88241452.37745  21549437.883                    21549446.203
 126199634.710 6  98337399.53344  24014995.031                    24015003.320
 107209944.540 8  83540254.347 8  20401372.742                    20401381.184
 106638759.466 8  83095190.99146  20292674.336                    20292683.332
 127065028.154 6  99011712.83443  24179692.414                    24179706.582
 11  8 11 19 20 30.0000000  0 10G24G28G01G17G26G11G19G07G08G13
 117040841.440 7  91200767.95245  22272126.570                    22272137.227
 115897740.351 8  90310028.34145  22054608.086                    22054616.137
 128115370.311 6  99830284.399 6  24379551.773                    24379565.328
 119669454.291 7  93248993.050 6  22772331.688                    22772342.508
 121652795.587 7  94794445.95444  23149757.781                    23149768.520
 113243940.698 7  88242203.45345  21549621.102                    21549629.938
 126304028.031 7  98418744.90944  24034860.734                    24034869.070
 107232496.916 8  83557827.609 8  20405664.508                    20405672.910
 106601833.293 8  83066417.34846  20285647.609                    20285656.355
 127176601.945 6  99098653.16643  24200924.398                    24200938.637
 11  8 11 19 21  0.0000000  0 10G24G28G01G17G26G11G19G07G08G13
 116998293.623 7  91167613.85545  22264029.969                    22264041.063
 115872625.011 8  90290457.96545  22049828.688                    22049837.258
 128154622.982 6  99860870.900 6  24387021.773                    24387035.250
 119584951.182 7  93183146.591 7  22756251.086                    22756261.930
 121602860.346 7  94755535.38444  23140255.945                    23140266.086
 113245481.579 8  88243404.14845  21549914.445                    21549922.605
 126408516.317 7  98500164.30844  24054744.625                    24054752.242
 107255527.438 8  83575773.459 8  20410047.000                    20410055.355
 106565311.648 8  83037958.92546  20278697.891                    20278706.762
 127288147.252 6  99185571.31043  24222150.695                    24222165.398
 11  8 11 19 21 30.0000000  0 10G24G28G01G17G26G11G19G07G08G13
 116956175.530 7  91134794.60044  22256014.695                    22256026.051
 115847564.216 8  90270930.08545  22045059.680                    22045068.184
 128194354.764 6  99891830.707 6  24394582.602                    24394596.367
 119500735.066 7  93117523.748 7  22740225.688                    22740236.121
 121553487.527 7  94717063.08944  23130860.305                    23130870.383
 113247600.016 7  88245054.87245  21550317.680                    21550325.590
 126513097.019 6  98581655.68844  24074645.344                    24074653.574
 107279036.854 8  83594092.465 8  20414520.641                    20414529.176
 106529196.888 8  83009817.54046  20271825.586                    20271833.977
 127399661.614 6  99272465.30543  24243371.281                    24243386.395
 11  8 11 19 22  0.0000000  0 10G24G28G01G17G26G11G19G07G08G13
 116914489.708 7  91102312.18244  22248082.297                    22248093.469
 115822557.638 7  90251444.44745  22040301.508                    22040309.621
 128234565.175 6  99923163.465 6  24402234.023                    24402247.820
 119416808.428 7  93052126.462 7  22724254.375                    22724264.977
 121504678.902 7  94679030.40644  23121572.203                    23121582.816
 113250297.082 8  88247156.48145  21550830.789                    21550838.957
 126617767.986 6  98663217.40443  24094564.258                    24094571.566
 107303025.651 8  83612784.997 8  20419085.594                    20419094.098
 106493491.825 8  82981995.41946  20265030.836                    20265039.512
 127511142.410 6  99359333.15843  24264586.438                    24264600.648
 11  8 11 19 22 30.0000000  0 10G24G28G01G17G26G11G19G07G08G13
 116873237.894 7  91070167.95044  22240232.906                    22240243.363
 115797604.739 7  90232000.63845  22035552.836                    22035560.996
 128275252.664 6  99954867.952 6  24409977.438                    24409990.484
 119333171.356 7  92986954.814 7  22708338.859                    22708349.980
 121456435.758 7  94641438.36444  23112391.625                    23112402.184
 113253572.709 7  88249708.91145  21551454.359                    21551462.699
 126722526.518 6  98744847.36044  24114498.727                    24114506.723
 107327494.265 8  83631851.428 7  20423741.703                    20423750.063
 106458198.207 8  82954493.88346  20258314.922                    20258323.789
 127622586.536 6  99446172.46943  24285793.055                    24285807.719
 11  8 11 19 23  0.0000000  0 10G24G28G01G17G26G11G19G07G08G13
 116832423.160 7  91038364.30744  22232465.867                    22232476.488
 115772705.110 7  90212598.34145  22030814.406                    22030822.480
 128316416.967 6  99986943.976 6  24417810.156                    24417823.160
 119249825.583 7  92922010.137 7  22692478.625                    22692489.496
 121408759.918 7  94604288.35844  23103319.445                    23103329.727
 113257427.501 8  88252712.63645  21552187.992                    21552196.367
 126827370.445 6  98826543.86443  24134449.719                    24134457.730
 107352443.352 8  83651292.256 8  20428489.477                    20428497.828
 106423318.632 8  82927314.99146  20251677.125                    20251686.180
 127733991.364 6  99532981.09843  24306992.711                    24307007.805
 11  8 11 19 23 30.0000000  0 10G24G28G01G17G26G11G19G07G08G13
 116792047.769 7  91006903.01444  22224782.688                    22224793.676
 115747858.177 8  90193237.10945  22026086.469                    22026094.664
 128358056.741 6 100019390.510 6  24425734.039                    24425747.238
 119166772.789 7  92857293.760 7  22676674.234                    22676685.223
 121361652.538 7  94567581.33144  23094355.836                    23094365.988
 113261862.122 7  88256168.18545  21553031.578                    21553040.023
 126932297.235 6  98908304.95444  24154416.867                    24154425.027
 107377873.483 8  83671107.919 8  20433328.688                    20433337.359
 106388855.475 8  82900460.57746  20245119.633                    20245128.465
 127845353.988 6  99619756.89843  24328184.313                    24328200.566
